GFSWCAN_prec_precacc24_027.txt.gz
Total_Precipitation_Accumulation
0.19 0.20 0.23 0.26 0.26 0.25 0.23 0.23 0.26 0.25 0.21 0.18 0.17 0.23 0.27 0.25 0.47 0.37 0.25 0.16 0.16 0.12 0.03 0.00 0.00 0.01 0.16 0.36 0.46 0.37 0.41 0.17 0.16 0.31 0.22 0.09 0.02 0.01 0.00 0.00 0.00 0.00 0.01 0.02 0.03 0.03 0.00 0.00 0.00 0.00 0.00 0.00 0.00 0.00
0.17 0.22 0.26 0.29 0.29 0.24 0.26 0.24 0.25 0.23 0.20 0.19 0.16 0.19 0.22 0.18 0.35 0.46 0.24 0.19 0.17 0.12 0.03 0.01 0.01 0.01 0.04 0.20 0.41 0.36 0.30 0.08 0.09 0.13 0.08 0.04 0.01 0.00 0.00 0.00 0.00 0.00 0.00 0.00 0.00 0.00 0.00 0.00 0.00 0.00 0.00 0.00 0.00 0.00
0.16 0.24 0.24 0.25 0.27 0.24 0.22 0.22 0.26 0.23 0.19 0.19 0.17 0.16 0.16 0.16 0.24 0.41 0.25 0.14 0.21 0.13 0.02 0.00 0.00 0.00 0.00 0.05 0.30 0.45 0.27 0.22 0.08 0.05 0.07 0.01 0.01 0.00 0.00 0.00 0.00 0.00 0.00 0.00 0.00 0.00 0.00 0.00 0.00 0.00 0.00 0.00 0.00 0.00
0.16 0.20 0.20 0.20 0.23 0.19 0.17 0.20 0.20 0.19 0.13 0.15 0.16 0.13 0.11 0.16 0.23 0.30 0.20 0.10 0.15 0.13 0.03 0.00 0.00 0.00 0.00 0.02 0.16 0.34 0.43 0.33 0.28 0.13 0.16 0.06 0.00 0.00 0.00 0.00 0.00 0.00 0.00 0.00 0.00 0.00 0.00 0.00 0.00 0.00 0.00 0.00 0.00 0.00
0.16 0.16 0.16 0.15 0.15 0.16 0.16 0.15 0.14 0.14 0.10 0.11 0.13 0.12 0.11 0.17 0.28 0.16 0.10 0.14 0.14 0.18 0.17 0.03 0.00 0.00 0.00 0.00 0.08 0.21 0.37 0.42 0.40 0.31 0.12 0.05 0.01 0.00 0.00 0.00 0.00 0.00 0.00 0.00 0.00 0.00 0.00 0.00 0.00 0.00 0.00 0.00 0.00 0.00
0.15 0.16 0.14 0.13 0.13 0.18 0.15 0.10 0.10 0.11 0.08 0.09 0.13 0.14 0.12 0.19 0.38 0.34 0.25 0.14 0.13 0.12 0.16 0.05 0.00 0.00 0.00 0.00 0.04 0.10 0.17 0.18 0.17 0.21 0.08 0.02 0.00 0.00 0.00 0.00 0.00 0.00 0.00 0.00 0.00 0.00 0.00 0.00 0.00 0.00 0.00 0.00 0.00 0.00
0.17 0.19 0.16 0.16 0.18 0.22 0.18 0.10 0.10 0.17 0.16 0.16 0.20 0.18 0.12 0.24 0.32 0.43 0.13 0.03 0.13 0.12 0.14 0.02 0.01 0.00 0.00 0.00 0.02 0.08 0.13 0.13 0.11 0.08 0.05 0.00 0.00 0.00 0.00 0.00 0.00 0.00 0.00 0.00 0.00 0.00 0.00 0.00 0.00 0.00 0.00 0.00 0.00 0.00
0.17 0.16 0.27 0.34 0.32 0.33 0.34 0.17 0.18 0.26 0.32 0.21 0.25 0.24 0.23 0.35 0.34 0.30 0.07 0.05 0.15 0.25 0.14 0.04 0.00 0.00 0.00 0.00 0.00 0.03 0.13 0.09 0.05 0.03 0.01 0.01 0.00 0.00 0.00 0.00 0.00 0.00 0.00 0.00 0.00 0.00 0.00 0.00 0.00 0.00 0.00 0.00 0.00 0.00
0.17 0.26 0.33 0.51 0.65 0.70 0.62 0.43 0.32 0.35 0.41 0.40 0.40 0.45 0.47 0.36 0.18 0.10 0.20 0.21 0.09 0.40 0.47 0.09 0.00 0.00 0.00 0.00 0.00 0.00 0.04 0.04 0.02 0.00 0.00 0.00 0.00 0.00 0.00 0.00 0.00 0.00 0.00 0.00 0.00 0.00 0.00 0.00 0.00 0.00 0.00 0.00 0.00 0.00
0.15 0.28 0.44 0.50 0.68 1.01 1.12 0.90 0.70 0.52 0.53 0.70 0.72 0.72 0.51 0.26 0.14 0.12 0.37 0.42 0.41 0.22 0.23 0.19 0.04 0.00 0.00 0.00 0.00 0.01 0.00 0.00 0.00 0.00 0.00 0.00 0.00 0.00 0.00 0.00 0.00 0.00 0.00 0.00 0.00 0.00 0.00 0.00 0.00 0.00 0.00 0.00 0.00 0.00
0.12 0.23 0.37 0.49 0.61 0.88 1.28 1.42 1.41 1.21 1.11 1.15 1.15 0.67 0.50 0.41 0.22 0.30 0.28 0.22 0.37 0.18 0.05 0.04 0.06 0.05 0.01 0.00 0.00 0.00 0.00 0.00 0.00 0.00 0.00 0.00 0.00 0.00 0.00 0.00 0.00 0.00 0.00 0.00 0.00 0.00 0.00 0.00 0.00 0.00 0.00 0.00 0.00 0.00
0.10 0.17 0.32 0.45 0.58 0.97 1.29 1.75 2.30 2.55 2.03 1.18 0.75 0.88 0.92 0.49 0.39 0.39 0.21 0.10 0.03 0.02 0.00 0.00 0.00 0.03 0.09 0.06 0.02 0.00 0.00 0.00 0.00 0.00 0.00 0.00 0.00 0.00 0.00 0.00 0.00 0.00 0.00 0.00 0.00 0.00 0.00 0.00 0.00 0.00 0.00 0.00 0.00 0.00
0.06 0.14 0.27 0.41 0.57 0.85 1.31 1.61 2.27 2.36 1.51 1.11 1.20 1.59 0.93 0.57 0.27 0.08 0.05 0.02 0.00 0.00 0.00 0.00 0.00 0.00 0.02 0.11 0.09 0.02 0.00 0.00 0.00 0.00 0.00 0.00 0.00 0.00 0.00 0.00 0.00 0.00 0.00 0.00 0.00 0.00 0.00 0.00 0.00 0.00 0.00 0.00 0.00 0.00
0.03 0.10 0.19 0.30 0.61 0.87 1.53 2.09 2.53 2.49 2.09 1.80 1.67 1.38 0.50 0.29 0.01 0.00 0.00 0.00 0.00 0.00 0.00 0.00 0.00 0.00 0.00 0.00 0.04 0.01 0.00 0.00 0.00 0.00 0.00 0.00 0.00 0.00 0.00 0.00 0.00 0.00 0.00 0.00 0.00 0.00 0.00 0.00 0.00 0.00 0.00 0.00 0.00 0.00
0.01 0.05 0.12 0.25 0.51 1.01 1.79 2.66 2.60 1.96 1.70 1.52 0.93 0.53 0.20 0.03 0.00 0.00 0.00 0.00 0.00 0.00 0.00 0.00 0.00 0.00 0.00 0.00 0.00 0.00 0.01 0.00 0.00 0.00 0.00 0.00 0.00 0.00 0.00 0.00 0.00 0.00 0.00 0.00 0.00 0.00 0.00 0.00 0.00 0.00 0.00 0.00 0.00 0.00
0.01 0.02 0.10 0.21 0.35 0.71 1.37 1.60 1.67 1.30 1.59 1.30 0.70 0.33 0.06 0.00 0.01 0.00 0.00 0.00 0.00 0.00 0.00 0.00 0.00 0.00 0.00 0.00 0.00 0.00 0.00 0.00 0.00 0.00 0.00 0.00 0.00 0.00 0.00 0.00 0.00 0.00 0.00 0.00 0.00 0.00 0.00 0.00 0.00 0.00 0.00 0.00 0.00 0.00
0.01 0.02 0.12 0.13 0.19 0.39 0.94 1.43 1.21 1.47 1.67 1.22 0.38 0.04 0.01 0.00 0.00 0.00 0.00 0.00 0.00 0.00 0.00 0.00 0.00 0.00 0.00 0.00 0.00 0.00 0.00 0.00 0.00 0.00 0.00 0.00 0.00 0.00 0.00 0.00 0.00 0.00 0.00 0.00 0.00 0.00 0.00 0.00 0.00 0.00 0.00 0.00 0.00 0.00
0.00 0.01 0.06 0.06 0.10 0.31 0.62 1.09 1.49 1.51 1.25 0.62 0.11 0.03 0.01 0.00 0.00 0.00 0.00 0.00 0.00 0.00 0.00 0.00 0.00 0.00 0.00 0.00 0.00 0.00 0.00 0.00 0.00 0.00 0.00 0.00 0.00 0.00 0.00 0.00 0.00 0.00 0.00 0.00 0.00 0.00 0.00 0.00 0.00 0.00 0.00 0.00 0.00 0.00
0.01 0.02 0.02 0.02 0.09 0.32 0.50 0.74 0.98 0.88 0.56 0.22 0.06 0.04 0.03 0.02 0.01 0.01 0.00 0.00 0.00 0.00 0.00 0.00 0.00 0.00 0.00 0.00 0.00 0.00 0.00 0.00 0.00 0.00 0.00 0.00 0.00 0.00 0.00 0.00 0.00 0.00 0.00 0.00 0.00 0.00 0.00 0.00 0.00 0.00 0.00 0.00 0.00 0.00
0.03 0.06 0.02 0.01 0.05 0.23 0.36 0.52 0.56 0.51 0.33 0.22 0.15 0.11 0.09 0.06 0.06 0.05 0.03 0.02 0.01 0.01 0.02 0.01 0.00 0.00 0.00 0.00 0.00 0.00 0.00 0.00 0.00 0.00 0.00 0.00 0.00 0.00 0.00 0.00 0.00 0.00 0.00 0.00 0.00 0.00 0.00 0.00 0.00 0.00 0.00 0.00 0.00 0.00
0.00 0.01 0.00 0.01 0.08 0.25 0.30 0.30 0.44 0.41 0.31 0.26 0.37 0.27 0.25 0.23 0.19 0.23 0.34 0.25 0.28 0.25 0.07 0.00 0.00 0.00 0.00 0.00 0.00 0.00 0.00 0.00 0.00 0.00 0.00 0.00 0.00 0.00 0.00 0.00 0.00 0.00 0.00 0.00 0.00 0.00 0.00 0.00 0.00 0.00 0.00 0.00 0.00 0.00
0.00 0.00 0.00 0.03 0.08 0.14 0.18 0.21 0.34 0.34 0.25 0.28 0.40 0.44 0.45 0.45 0.49 0.52 0.57 0.68 0.62 0.27 0.08 0.02 0.02 0.01 0.00 0.00 0.00 0.00 0.00 0.00 0.00 0.00 0.00 0.00 0.00 0.00 0.00 0.00 0.00 0.00 0.00 0.00 0.00 0.00 0.00 0.00 0.00 0.00 0.00 0.00 0.00 0.00
0.00 0.00 0.00 0.02 0.07 0.06 0.13 0.14 0.20 0.28 0.31 0.37 0.40 0.43 0.55 0.54 0.64 0.77 0.88 0.71 0.39 0.20 0.12 0.12 0.09 0.04 0.01 0.00 0.00 0.00 0.00 0.00 0.00 0.00 0.00 0.00 0.00 0.00 0.00 0.00 0.00 0.00 0.00 0.00 0.00 0.00 0.00 0.00 0.00 0.00 0.00 0.00 0.00 0.00
0.00 0.00 0.00 0.00 0.04 0.06 0.09 0.14 0.13 0.18 0.23 0.26 0.33 0.34 0.36 0.51 0.61 0.60 0.47 0.24 0.22 0.23 0.19 0.19 0.14 0.07 0.02 0.00 0.00 0.00 0.00 0.00 0.00 0.00 0.00 0.00 0.00 0.00 0.00 0.00 0.00 0.00 0.00 0.00 0.00 0.00 0.00 0.00 0.00 0.00 0.00 0.00 0.00 0.00
0.00 0.00 0.00 0.00 0.00 0.01 0.04 0.11 0.12 0.11 0.16 0.22 0.27 0.31 0.34 0.41 0.50 0.39 0.23 0.19 0.30 0.36 0.29 0.20 0.13 0.09 0.06 0.03 0.02 0.02 0.01 0.00 0.00 0.00 0.01 0.01 0.01 0.01 0.01 0.00 0.00 0.00 0.00 0.00 0.00 0.00 0.00 0.00 0.00 0.00 0.00 0.00 0.00 0.00
0.00 0.00 0.00 0.00 0.00 0.00 0.00 0.06 0.12 0.16 0.18 0.21 0.25 0.27 0.32 0.34 0.32 0.30 0.18 0.21 0.33 0.42 0.43 0.33 0.22 0.14 0.10 0.08 0.08 0.09 0.05 0.03 0.04 0.04 0.10 0.08 0.04 0.01 0.00 0.00 0.00 0.00 0.00 0.00 0.00 0.00 0.00 0.00 0.00 0.00 0.00 0.00 0.00 0.00
0.00 0.00 0.00 0.00 0.00 0.00 0.00 0.00 0.01 0.04 0.09 0.13 0.16 0.17 0.20 0.22 0.24 0.14 0.12 0.22 0.32 0.39 0.43 0.43 0.33 0.20 0.16 0.14 0.13 0.12 0.12 0.12 0.11 0.10 0.11 0.13 0.12 0.06 0.02 0.01 0.00 0.00 0.00 0.00 0.00 0.00 0.00 0.00 0.00 0.00 0.00 0.00 0.00 0.00
0.00 0.00 0.00 0.00 0.00 0.00 0.00 0.00 0.00 0.00 0.00 0.03 0.10 0.09 0.10 0.10 0.07 0.08 0.13 0.22 0.33 0.38 0.43 0.45 0.41 0.28 0.21 0.18 0.17 0.16 0.18 0.19 0.19 0.14 0.11 0.11 0.09 0.04 0.01 0.00 0.00 0.00 0.00 0.00 0.00 0.00 0.00 0.00 0.00 0.00 0.00 0.00 0.00 0.00
0.00 0.00 0.00 0.00 0.00 0.00 0.00 0.00 0.00 0.00 0.00 0.00 0.01 0.03 0.03 0.03 0.06 0.09 0.14 0.21 0.30 0.36 0.39 0.40 0.42 0.37 0.32 0.28 0.26 0.25 0.22 0.17 0.11 0.09 0.06 0.06 0.04 0.04 0.01 0.01 0.01 0.01 0.00 0.00 0.00 0.00 0.00 0.00 0.00 0.00 0.00 0.00 0.00 0.00
0.01 0.00 0.00 0.01 0.00 0.00 0.00 0.01 0.01 0.01 0.00 0.00 0.00 0.00 0.01 0.03 0.05 0.09 0.13 0.19 0.26 0.32 0.37 0.41 0.41 0.39 0.36 0.31 0.31 0.30 0.29 0.27 0.22 0.12 0.08 0.07 0.06 0.07 0.07 0.06 0.03 0.01 0.00 0.00 0.00 0.00 0.00 0.00 0.00 0.00 0.00 0.00 0.00 0.00
0.01 0.01 0.00 0.00 0.00 0.01 0.01 0.02 0.01 0.00 0.00 0.00 0.00 0.00 0.01 0.02 0.04 0.07 0.11 0.16 0.21 0.27 0.32 0.35 0.37 0.39 0.37 0.35 0.31 0.26 0.23 0.22 0.20 0.18 0.14 0.11 0.09 0.08 0.05 0.02 0.00 0.00 0.00 0.00 0.00 0.00 0.00 0.00 0.00 0.00 0.00 0.00 0.00 0.00
0.02 0.01 0.00 0.00 0.01 0.02 0.02 0.01 0.01 0.00 0.01 0.00 0.00 0.01 0.01 0.02 0.02 0.03 0.06 0.10 0.14 0.19 0.24 0.26 0.26 0.26 0.27 0.25 0.22 0.20 0.17 0.14 0.12 0.11 0.09 0.06 0.04 0.02 0.00 0.00 0.00 0.00 0.00 0.00 0.00 0.00 0.00 0.00 0.00 0.00 0.00 0.00 0.00 0.00
0.04 0.04 0.03 0.02 0.02 0.01 0.01 0.01 0.01 0.00 0.00 0.00 0.01 0.01 0.01 0.01 0.02 0.03 0.03 0.06 0.09 0.13 0.15 0.18 0.20 0.20 0.19 0.17 0.16 0.13 0.11 0.10 0.08 0.06 0.04 0.02 0.01 0.00 0.00 0.00 0.00 0.00 0.00 0.00 0.00 0.00 0.00 0.00 0.00 0.00 0.00 0.00 0.00 0.00

GFSWCAN_prec_precacc24_030.txt.gz
Total_Precipitation_Accumulation
0.13 0.13 0.16 0.20 0.23 0.23 0.22 0.24 0.28 0.25 0.21 0.17 0.16 0.23 0.26 0.26 0.48 0.39 0.29 0.22 0.21 0.13 0.03 0.00 0.00 0.01 0.17 0.40 0.53 0.44 0.51 0.27 0.19 0.33 0.25 0.10 0.02 0.01 0.00 0.00 0.00 0.00 0.01 0.02 0.03 0.03 0.00 0.00 0.00 0.00 0.00 0.00 0.00 0.00
0.11 0.13 0.17 0.20 0.24 0.21 0.23 0.25 0.27 0.23 0.19 0.18 0.15 0.18 0.22 0.19 0.36 0.47 0.26 0.27 0.24 0.17 0.05 0.01 0.01 0.01 0.05 0.25 0.50 0.43 0.36 0.14 0.10 0.14 0.09 0.05 0.02 0.00 0.00 0.00 0.00 0.00 0.00 0.00 0.00 0.00 0.00 0.00 0.00 0.00 0.00 0.00 0.00 0.00
0.10 0.15 0.16 0.18 0.22 0.22 0.19 0.22 0.28 0.23 0.19 0.18 0.16 0.15 0.16 0.17 0.24 0.43 0.27 0.19 0.24 0.15 0.03 0.00 0.00 0.01 0.00 0.08 0.39 0.57 0.33 0.25 0.10 0.07 0.07 0.01 0.01 0.00 0.00 0.00 0.00 0.00 0.00 0.00 0.00 0.00 0.00 0.00 0.00 0.00 0.00 0.00 0.00 0.00
0.12 0.15 0.16 0.17 0.21 0.17 0.16 0.21 0.21 0.19 0.13 0.14 0.15 0.12 0.11 0.16 0.23 0.31 0.22 0.13 0.21 0.15 0.03 0.00 0.00 0.01 0.02 0.02 0.26 0.49 0.51 0.38 0.32 0.16 0.16 0.06 0.00 0.00 0.00 0.00 0.00 0.00 0.00 0.00 0.00 0.00 0.00 0.00 0.00 0.00 0.00 0.00 0.00 0.00
0.12 0.14 0.15 0.14 0.14 0.13 0.14 0.15 0.15 0.14 0.09 0.10 0.12 0.11 0.10 0.17 0.28 0.16 0.10 0.14 0.14 0.22 0.21 0.04 0.00 0.00 0.00 0.00 0.15 0.33 0.47 0.50 0.48 0.40 0.16 0.06 0.01 0.00 0.00 0.00 0.00 0.00 0.00 0.00 0.00 0.00 0.00 0.00 0.00 0.00 0.00 0.00 0.00 0.00
0.10 0.12 0.12 0.12 0.12 0.14 0.12 0.10 0.10 0.11 0.07 0.09 0.13 0.14 0.11 0.18 0.38 0.34 0.26 0.15 0.13 0.12 0.21 0.07 0.00 0.00 0.00 0.00 0.05 0.16 0.26 0.27 0.25 0.28 0.12 0.02 0.00 0.00 0.00 0.00 0.00 0.00 0.00 0.00 0.00 0.00 0.00 0.00 0.00 0.00 0.00 0.00 0.00 0.00
0.09 0.11 0.12 0.14 0.16 0.15 0.12 0.10 0.10 0.17 0.16 0.16 0.20 0.18 0.11 0.22 0.32 0.43 0.14 0.05 0.14 0.15 0.17 0.04 0.01 0.00 0.00 0.00 0.02 0.10 0.17 0.18 0.17 0.15 0.10 0.02 0.00 0.00 0.00 0.00 0.00 0.00 0.00 0.00 0.00 0.00 0.00 0.00 0.00 0.00 0.00 0.00 0.00 0.00
0.08 0.08 0.14 0.16 0.19 0.17 0.18 0.16 0.18 0.26 0.32 0.21 0.24 0.23 0.21 0.34 0.34 0.31 0.07 0.05 0.16 0.26 0.15 0.07 0.01 0.00 0.00 0.00 0.00 0.05 0.14 0.15 0.13 0.07 0.02 0.02 0.00 0.00 0.00 0.00 0.00 0.00 0.00 0.00 0.00 0.00 0.00 0.00 0.00 0.00 0.00 0.00 0.00 0.00
0.07 0.08 0.13 0.16 0.23 0.32 0.33 0.36 0.32 0.35 0.41 0.39 0.39 0.43 0.47 0.36 0.18 0.10 0.22 0.21 0.10 0.40 0.47 0.09 0.00 0.00 0.00 0.01 0.00 0.00 0.05 0.09 0.07 0.01 0.00 0.00 0.00 0.00 0.00 0.00 0.00 0.00 0.00 0.00 0.00 0.00 0.00 0.00 0.00 0.00 0.00 0.00 0.00 0.00
0.06 0.07 0.11 0.16 0.29 0.45 0.62 0.70 0.66 0.52 0.53 0.70 0.72 0.72 0.52 0.27 0.18 0.22 0.51 0.47 0.43 0.23 0.24 0.20 0.04 0.00 0.00 0.00 0.00 0.01 0.01 0.01 0.00 0.00 0.00 0.00 0.00 0.00 0.00 0.00 0.00 0.00 0.00 0.00 0.00 0.00 0.00 0.00 0.00 0.00 0.00 0.00 0.00 0.00
0.05 0.05 0.10 0.18 0.36 0.54 0.82 1.00 1.23 1.18 1.08 1.15 1.15 0.68 0.54 0.45 0.37 0.42 0.48 0.34 0.42 0.19 0.05 0.04 0.06 0.05 0.01 0.00 0.00 0.00 0.00 0.00 0.00 0.00 0.00 0.00 0.00 0.00 0.00 0.00 0.00 0.00 0.00 0.00 0.00 0.00 0.00 0.00 0.00 0.00 0.00 0.00 0.00 0.00
0.02 0.03 0.09 0.16 0.31 0.61 0.95 1.35 1.90 2.33 1.96 1.18 0.75 0.91 0.99 0.56 0.52 0.47 0.31 0.13 0.04 0.02 0.00 0.00 0.00 0.03 0.09 0.06 0.02 0.00 0.00 0.00 0.00 0.00 0.00 0.00 0.00 0.00 0.00 0.00 0.00 0.00 0.00 0.00 0.00 0.00 0.00 0.00 0.00 0.00 0.00 0.00 0.00 0.00
0.01 0.02 0.08 0.12 0.25 0.47 0.81 1.23 1.69 1.89 1.34 1.08 1.12 1.58 1.00 0.57 0.29 0.09 0.07 0.03 0.00 0.00 0.00 0.00 0.00 0.00 0.02 0.11 0.09 0.02 0.00 0.00 0.00 0.00 0.00 0.00 0.00 0.00 0.00 0.00 0.00 0.00 0.00 0.00 0.00 0.00 0.00 0.00 0.00 0.00 0.00 0.00 0.00 0.00
0.01 0.02 0.04 0.10 0.26 0.47 1.01 1.59 1.92 2.03 1.79 1.63 1.55 1.34 0.53 0.31 0.02 0.01 0.00 0.00 0.00 0.00 0.00 0.00 0.00 0.00 0.00 0.00 0.04 0.01 0.00 0.00 0.00 0.00 0.00 0.00 0.00 0.00 0.00 0.00 0.00 0.00 0.00 0.00 0.00 0.00 0.00 0.00 0.00 0.00 0.00 0.00 0.00 0.00
0.01 0.02 0.03 0.11 0.25 0.60 1.31 2.11 2.07 1.65 1.47 1.34 0.86 0.54 0.24 0.06 0.02 0.01 0.00 0.00 0.00 0.00 0.00 0.00 0.00 0.00 0.00 0.00 0.00 0.00 0.01 0.00 0.00 0.00 0.00 0.00 0.00 0.00 0.00 0.00 0.00 0.00 0.00 0.00 0.00 0.00 0.00 0.00 0.00 0.00 0.00 0.00 0.00 0.00
0.01 0.01 0.04 0.10 0.17 0.47 1.02 1.31 1.44 1.16 1.39 1.13 0.65 0.34 0.08 0.01 0.01 0.01 0.00 0.00 0.00 0.00 0.00 0.00 0.00 0.00 0.00 0.00 0.00 0.00 0.00 0.00 0.00 0.00 0.00 0.00 0.00 0.00 0.00 0.00 0.00 0.00 0.00 0.00 0.00 0.00 0.00 0.00 0.00 0.00 0.00 0.00 0.00 0.00
0.00 0.01 0.08 0.07 0.09 0.28 0.78 1.17 1.00 1.30 1.47 1.04 0.35 0.05 0.02 0.00 0.00 0.02 0.01 0.00 0.00 0.00 0.00 0.00 0.00 0.00 0.00 0.00 0.00 0.00 0.00 0.00 0.00 0.00 0.00 0.00 0.00 0.00 0.00 0.00 0.00 0.00 0.00 0.00 0.00 0.00 0.00 0.00 0.00 0.00 0.00 0.00 0.00 0.00
0.00 0.00 0.04 0.03 0.05 0.22 0.51 0.95 1.31 1.36 1.08 0.52 0.09 0.03 0.01 0.00 0.00 0.01 0.01 0.00 0.00 0.00 0.00 0.00 0.00 0.00 0.00 0.00 0.00 0.00 0.00 0.00 0.00 0.00 0.00 0.00 0.00 0.00 0.00 0.00 0.00 0.00 0.00 0.00 0.00 0.00 0.00 0.00 0.00 0.00 0.00 0.00 0.00 0.00
0.00 0.01 0.01 0.00 0.04 0.23 0.40 0.61 0.83 0.75 0.48 0.20 0.05 0.04 0.03 0.02 0.01 0.01 0.03 0.04 0.01 0.00 0.03 0.02 0.00 0.00 0.00 0.00 0.00 0.00 0.00 0.00 0.00 0.00 0.00 0.00 0.00 0.00 0.00 0.00 0.00 0.00 0.00 0.00 0.00 0.00 0.00 0.00 0.00 0.00 0.00 0.00 0.00 0.00
0.01 0.02 0.00 0.00 0.02 0.15 0.29 0.41 0.44 0.41 0.27 0.19 0.13 0.11 0.09 0.06 0.06 0.05 0.04 0.06 0.07 0.07 0.12 0.08 0.00 0.00 0.00 0.00 0.00 0.00 0.00 0.00 0.00 0.00 0.00 0.00 0.00 0.00 0.00 0.00 0.00 0.00 0.00 0.00 0.00 0.00 0.00 0.00 0.00 0.00 0.00 0.00 0.00 0.00
0.00 0.00 0.00 0.00 0.02 0.12 0.22 0.25 0.33 0.31 0.25 0.21 0.32 0.26 0.23 0.21 0.18 0.21 0.32 0.29 0.41 0.44 0.17 0.05 0.01 0.00 0.00 0.00 0.00 0.00 0.00 0.00 0.00 0.00 0.00 0.00 0.00 0.00 0.00 0.00 0.00 0.00 0.00 0.00 0.00 0.00 0.00 0.00 0.00 0.00 0.00 0.00 0.00 0.00
0.00 0.00 0.00 0.00 0.02 0.05 0.13 0.19 0.28 0.24 0.20 0.22 0.32 0.40 0.40 0.42 0.46 0.50 0.55 0.74 0.75 0.35 0.11 0.05 0.06 0.03 0.00 0.00 0.00 0.00 0.00 0.00 0.00 0.00 0.00 0.00 0.00 0.00 0.00 0.00 0.00 0.00 0.00 0.00 0.00 0.00 0.00 0.00 0.00 0.00 0.00 0.00 0.00 0.00
0.00 0.00 0.00 0.00 0.01 0.01 0.07 0.08 0.16 0.20 0.25 0.28 0.29 0.36 0.48 0.47 0.59 0.74 0.88 0.74 0.44 0.24 0.16 0.14 0.11 0.08 0.04 0.01 0.00 0.00 0.00 0.00 0.00 0.00 0.00 0.00 0.00 0.00 0.00 0.00 0.00 0.00 0.00 0.00 0.00 0.00 0.00 0.00 0.00 0.00 0.00 0.00 0.00 0.00
0.00 0.00 0.00 0.00 0.00 0.01 0.02 0.06 0.10 0.16 0.18 0.21 0.25 0.27 0.30 0.45 0.56 0.57 0.47 0.26 0.25 0.27 0.23 0.22 0.17 0.10 0.05 0.03 0.03 0.01 0.00 0.00 0.00 0.00 0.00 0.00 0.00 0.00 0.00 0.00 0.00 0.00 0.00 0.00 0.00 0.00 0.00 0.00 0.00 0.00 0.00 0.00 0.00 0.00
0.00 0.00 0.00 0.00 0.00 0.00 0.02 0.07 0.09 0.10 0.14 0.18 0.22 0.26 0.31 0.38 0.48 0.38 0.23 0.20 0.33 0.40 0.34 0.24 0.16 0.13 0.10 0.07 0.05 0.05 0.02 0.00 0.00 0.00 0.01 0.00 0.01 0.01 0.00 0.00 0.00 0.00 0.00 0.00 0.00 0.00 0.00 0.00 0.00 0.00 0.00 0.00 0.00 0.00
0.00 0.00 0.00 0.00 0.00 0.00 0.00 0.04 0.10 0.14 0.15 0.17 0.20 0.22 0.28 0.32 0.31 0.31 0.18 0.21 0.34 0.45 0.47 0.37 0.26 0.18 0.15 0.15 0.15 0.16 0.12 0.07 0.05 0.04 0.10 0.08 0.04 0.01 0.01 0.00 0.00 0.00 0.00 0.00 0.00 0.00 0.00 0.00 0.00 0.00 0.00 0.00 0.00 0.00
0.00 0.00 0.00 0.00 0.00 0.00 0.00 0.00 0.00 0.03 0.08 0.12 0.14 0.16 0.19 0.22 0.25 0.14 0.13 0.22 0.33 0.40 0.45 0.47 0.38 0.25 0.21 0.21 0.21 0.21 0.21 0.19 0.14 0.11 0.12 0.15 0.15 0.11 0.05 0.02 0.01 0.00 0.00 0.00 0.00 0.00 0.00 0.00 0.00 0.00 0.00 0.00 0.00 0.00
0.00 0.00 0.00 0.00 0.00 0.00 0.00 0.00 0.00 0.00 0.00 0.03 0.10 0.09 0.10 0.11 0.08 0.08 0.13 0.22 0.33 0.38 0.44 0.48 0.45 0.33 0.27 0.25 0.26 0.26 0.27 0.27 0.25 0.19 0.17 0.21 0.23 0.21 0.15 0.08 0.04 0.03 0.01 0.00 0.00 0.00 0.00 0.00 0.00 0.00 0.00 0.00 0.00 0.00
0.00 0.00 0.00 0.00 0.00 0.00 0.00 0.00 0.00 0.00 0.00 0.00 0.01 0.03 0.03 0.03 0.05 0.08 0.14 0.21 0.29 0.35 0.39 0.42 0.45 0.42 0.37 0.34 0.32 0.32 0.30 0.26 0.18 0.14 0.09 0.11 0.12 0.16 0.15 0.10 0.05 0.03 0.02 0.02 0.02 0.01 0.00 0.00 0.00 0.00 0.00 0.00 0.00 0.00
0.01 0.00 0.00 0.00 0.00 0.00 0.00 0.01 0.01 0.01 0.00 0.00 0.00 0.00 0.01 0.03 0.05 0.09 0.14 0.19 0.26 0.32 0.37 0.42 0.43 0.43 0.41 0.37 0.37 0.36 0.35 0.32 0.28 0.17 0.12 0.10 0.10 0.12 0.13 0.11 0.09 0.08 0.06 0.03 0.01 0.00 0.00 0.00 0.00 0.00 0.00 0.00 0.00 0.00
0.01 0.01 0.00 0.00 0.00 0.01 0.01 0.02 0.01 0.00 0.00 0.00 0.00 0.00 0.01 0.01 0.04 0.06 0.10 0.16 0.21 0.28 0.32 0.36 0.38 0.42 0.41 0.41 0.38 0.33 0.30 0.29 0.28 0.28 0.23 0.18 0.16 0.16 0.15 0.14 0.12 0.08 0.04 0.01 0.00 0.00 0.00 0.00 0.00 0.00 0.00 0.00 0.00 0.00
0.02 0.01 0.00 0.00 0.01 0.02 0.02 0.01 0.01 0.01 0.01 0.00 0.00 0.01 0.01 0.02 0.02 0.03 0.06 0.10 0.14 0.19 0.25 0.28 0.28 0.30 0.31 0.31 0.30 0.28 0.25 0.22 0.21 0.22 0.20 0.17 0.15 0.13 0.11 0.08 0.05 0.02 0.01 0.00 0.00 0.00 0.00 0.00 0.00 0.00 0.00 0.00 0.00 0.00
0.03 0.03 0.02 0.01 0.01 0.01 0.01 0.01 0.01 0.00 0.00 0.00 0.00 0.01 0.01 0.01 0.01 0.03 0.03 0.06 0.09 0.14 0.17 0.21 0.24 0.24 0.25 0.24 0.24 0.23 0.23 0.23 0.21 0.20 0.19 0.16 0.11 0.07 0.03 0.01 0.00 0.00 0.00 0.00 0.00 0.00 0.00 0.00 0.00 0.00 0.00 0.00 0.00 0.00

GFSWCAN_prec_precacc24_033.txt.gz
Total_Precipitation_Accumulation
0.10 0.10 0.12 0.13 0.14 0.14 0.16 0.19 0.23 0.23 0.21 0.18 0.16 0.22 0.26 0.26 0.49 0.39 0.33 0.28 0.25 0.13 0.03 0.00 0.00 0.02 0.17 0.40 0.56 0.50 0.57 0.33 0.27 0.35 0.24 0.11 0.02 0.01 0.00 0.00 0.00 0.00 0.01 0.02 0.04 0.03 0.00 0.00 0.00 0.00 0.00 0.00 0.00 0.00
0.08 0.10 0.13 0.14 0.16 0.15 0.18 0.17 0.21 0.21 0.19 0.19 0.15 0.17 0.22 0.19 0.38 0.48 0.31 0.28 0.25 0.17 0.05 0.01 0.01 0.01 0.05 0.26 0.55 0.53 0.45 0.25 0.16 0.15 0.09 0.05 0.02 0.00 0.00 0.00 0.00 0.00 0.00 0.00 0.00 0.00 0.00 0.00 0.00 0.00 0.00 0.00 0.00 0.00
0.07 0.12 0.13 0.14 0.15 0.15 0.16 0.16 0.21 0.20 0.19 0.18 0.16 0.14 0.16 0.18 0.24 0.43 0.29 0.22 0.26 0.16 0.03 0.00 0.00 0.01 0.00 0.08 0.44 0.67 0.40 0.32 0.16 0.08 0.08 0.01 0.01 0.00 0.00 0.00 0.00 0.00 0.00 0.00 0.00 0.00 0.00 0.00 0.00 0.00 0.00 0.00 0.00 0.00
0.10 0.13 0.14 0.14 0.14 0.12 0.13 0.17 0.15 0.15 0.13 0.13 0.15 0.11 0.10 0.16 0.22 0.30 0.23 0.15 0.23 0.16 0.03 0.00 0.00 0.01 0.02 0.05 0.31 0.61 0.62 0.42 0.37 0.23 0.18 0.06 0.00 0.00 0.00 0.00 0.00 0.00 0.00 0.00 0.00 0.00 0.00 0.00 0.00 0.00 0.00 0.00 0.00 0.00
0.11 0.12 0.12 0.11 0.11 0.10 0.13 0.11 0.11 0.11 0.09 0.10 0.11 0.11 0.10 0.16 0.27 0.16 0.10 0.15 0.16 0.26 0.24 0.04 0.00 0.00 0.00 0.01 0.18 0.45 0.62 0.58 0.51 0.44 0.19 0.08 0.01 0.00 0.00 0.00 0.00 0.00 0.00 0.00 0.00 0.00 0.00 0.00 0.00 0.00 0.00 0.00 0.00 0.00
0.09 0.09 0.08 0.09 0.10 0.12 0.10 0.08 0.08 0.10 0.07 0.09 0.13 0.13 0.10 0.18 0.37 0.33 0.27 0.17 0.15 0.14 0.23 0.07 0.01 0.00 0.00 0.01 0.06 0.24 0.35 0.35 0.32 0.33 0.16 0.04 0.01 0.00 0.00 0.00 0.00 0.00 0.00 0.00 0.00 0.00 0.00 0.00 0.00 0.00 0.00 0.00 0.00 0.00
0.09 0.08 0.07 0.08 0.11 0.11 0.08 0.06 0.08 0.16 0.16 0.15 0.20 0.18 0.10 0.20 0.31 0.43 0.15 0.07 0.15 0.16 0.19 0.05 0.01 0.00 0.00 0.00 0.02 0.13 0.24 0.25 0.23 0.20 0.13 0.05 0.00 0.01 0.01 0.00 0.00 0.00 0.00 0.00 0.00 0.00 0.00 0.00 0.00 0.00 0.00 0.00 0.00 0.00
0.07 0.06 0.07 0.09 0.11 0.08 0.07 0.07 0.13 0.24 0.32 0.21 0.24 0.23 0.20 0.32 0.33 0.31 0.08 0.06 0.16 0.28 0.15 0.07 0.01 0.00 0.00 0.00 0.00 0.05 0.16 0.18 0.18 0.12 0.04 0.02 0.01 0.00 0.00 0.00 0.00 0.00 0.00 0.00 0.00 0.00 0.00 0.00 0.00 0.00 0.00 0.00 0.00 0.00
0.07 0.06 0.06 0.07 0.07 0.08 0.10 0.12 0.23 0.32 0.41 0.39 0.39 0.42 0.45 0.36 0.19 0.14 0.30 0.24 0.10 0.41 0.48 0.09 0.00 0.00 0.00 0.01 0.00 0.00 0.06 0.11 0.12 0.05 0.02 0.00 0.00 0.00 0.00 0.00 0.00 0.00 0.00 0.00 0.00 0.00 0.00 0.00 0.00 0.00 0.00 0.00 0.00 0.00
0.05 0.04 0.05 0.04 0.05 0.10 0.16 0.27 0.37 0.47 0.53 0.69 0.71 0.72 0.52 0.27 0.21 0.31 0.67 0.50 0.48 0.24 0.26 0.20 0.04 0.00 0.00 0.00 0.00 0.00 0.00 0.03 0.01 0.00 0.00 0.00 0.00 0.00 0.00 0.00 0.00 0.00 0.00 0.00 0.00 0.00 0.00 0.00 0.00 0.00 0.00 0.00 0.00 0.00
0.04 0.02 0.02 0.03 0.04 0.12 0.27 0.52 0.75 0.98 1.03 1.14 1.15 0.68 0.54 0.47 0.50 0.49 0.59 0.38 0.47 0.20 0.05 0.04 0.06 0.05 0.01 0.00 0.00 0.00 0.00 0.00 0.00 0.00 0.00 0.00 0.00 0.00 0.00 0.00 0.00 0.00 0.00 0.00 0.00 0.00 0.00 0.00 0.00 0.00 0.00 0.00 0.00 0.00
0.01 0.00 0.01 0.02 0.05 0.16 0.39 0.78 1.39 1.89 1.81 1.17 0.76 0.91 1.00 0.61 0.60 0.49 0.35 0.16 0.05 0.02 0.00 0.00 0.00 0.03 0.09 0.06 0.02 0.00 0.00 0.00 0.00 0.00 0.00 0.00 0.00 0.00 0.00 0.00 0.00 0.00 0.00 0.00 0.00 0.00 0.00 0.00 0.00 0.00 0.00 0.00 0.00 0.00
0.00 0.00 0.01 0.02 0.06 0.17 0.41 0.79 1.22 1.41 1.22 1.03 1.02 1.49 0.97 0.62 0.38 0.10 0.09 0.03 0.00 0.00 0.00 0.00 0.00 0.00 0.02 0.11 0.09 0.02 0.00 0.00 0.00 0.00 0.00 0.00 0.00 0.00 0.00 0.00 0.00 0.00 0.00 0.00 0.00 0.00 0.00 0.00 0.00 0.00 0.00 0.00 0.00 0.00
0.00 0.00 0.00 0.01 0.08 0.18 0.54 1.04 1.38 1.59 1.56 1.46 1.39 1.26 0.51 0.29 0.05 0.05 0.02 0.00 0.00 0.00 0.00 0.00 0.00 0.00 0.00 0.00 0.04 0.01 0.00 0.00 0.00 0.00 0.00 0.00 0.00 0.00 0.00 0.00 0.00 0.00 0.00 0.00 0.00 0.00 0.00 0.00 0.00 0.00 0.00 0.00 0.00 0.00
0.00 0.00 0.00 0.03 0.06 0.19 0.62 1.20 1.54 1.42 1.31 1.09 0.78 0.53 0.24 0.08 0.03 0.03 0.02 0.00 0.00 0.00 0.00 0.00 0.00 0.00 0.00 0.00 0.00 0.00 0.00 0.00 0.00 0.00 0.00 0.00 0.00 0.00 0.00 0.00 0.00 0.00 0.00 0.00 0.00 0.00 0.00 0.00 0.00 0.00 0.00 0.00 0.00 0.00
0.00 0.00 0.01 0.03 0.04 0.18 0.57 0.85 1.07 0.90 1.13 0.91 0.55 0.30 0.08 0.01 0.01 0.01 0.00 0.00 0.00 0.00 0.00 0.00 0.00 0.00 0.00 0.00 0.00 0.00 0.00 0.00 0.00 0.00 0.00 0.00 0.00 0.00 0.00 0.00 0.00 0.00 0.00 0.00 0.00 0.00 0.00 0.00 0.00 0.00 0.00 0.00 0.00 0.00
0.00 0.00 0.01 0.01 0.02 0.14 0.48 0.82 0.69 0.98 1.21 0.87 0.30 0.04 0.02 0.00 0.00 0.02 0.01 0.00 0.00 0.00 0.00 0.01 0.00 0.00 0.00 0.00 0.00 0.00 0.00 0.00 0.00 0.00 0.00 0.00 0.00 0.00 0.00 0.00 0.00 0.00 0.00 0.00 0.00 0.00 0.00 0.00 0.00 0.00 0.00 0.00 0.00 0.00
0.00 0.00 0.01 0.00 0.01 0.12 0.34 0.68 0.98 1.09 0.87 0.43 0.09 0.03 0.01 0.00 0.00 0.01 0.01 0.02 0.02 0.02 0.02 0.03 0.00 0.00 0.00 0.00 0.00 0.00 0.00 0.00 0.00 0.00 0.00 0.00 0.00 0.00 0.00 0.00 0.00 0.00 0.00 0.00 0.00 0.00 0.00 0.00 0.00 0.00 0.00 0.00 0.00 0.00
0.00 0.00 0.00 0.00 0.02 0.15 0.28 0.47 0.66 0.60 0.38 0.16 0.05 0.04 0.03 0.02 0.01 0.01 0.03 0.05 0.06 0.07 0.13 0.13 0.04 0.00 0.00 0.00 0.00 0.00 0.00 0.00 0.00 0.00 0.00 0.00 0.00 0.00 0.00 0.00 0.00 0.00 0.00 0.00 0.00 0.00 0.00 0.00 0.00 0.00 0.00 0.00 0.00 0.00
0.00 0.00 0.00 0.00 0.02 0.11 0.20 0.31 0.34 0.34 0.23 0.16 0.13 0.11 0.08 0.06 0.06 0.05 0.04 0.06 0.10 0.18 0.26 0.21 0.06 0.01 0.00 0.00 0.00 0.00 0.00 0.00 0.00 0.00 0.00 0.00 0.00 0.00 0.00 0.00 0.00 0.00 0.00 0.00 0.00 0.00 0.00 0.00 0.00 0.00 0.00 0.00 0.00 0.00
0.00 0.00 0.00 0.00 0.01 0.07 0.15 0.18 0.24 0.23 0.20 0.19 0.28 0.24 0.22 0.20 0.17 0.20 0.31 0.30 0.42 0.50 0.25 0.10 0.03 0.01 0.02 0.01 0.00 0.00 0.00 0.00 0.00 0.00 0.00 0.00 0.00 0.00 0.00 0.00 0.00 0.00 0.00 0.00 0.00 0.00 0.00 0.00 0.00 0.00 0.00 0.00 0.00 0.00
0.00 0.00 0.00 0.00 0.01 0.03 0.10 0.15 0.21 0.18 0.17 0.18 0.28 0.36 0.36 0.37 0.43 0.45 0.50 0.69 0.70 0.35 0.12 0.06 0.08 0.07 0.04 0.03 0.02 0.01 0.00 0.00 0.00 0.00 0.00 0.00 0.00 0.00 0.00 0.00 0.00 0.00 0.00 0.00 0.00 0.00 0.00 0.00 0.00 0.00 0.00 0.00 0.00 0.00
0.00 0.00 0.00 0.00 0.00 0.00 0.05 0.07 0.14 0.15 0.19 0.21 0.25 0.32 0.42 0.40 0.48 0.64 0.76 0.62 0.36 0.21 0.17 0.16 0.14 0.14 0.12 0.07 0.04 0.01 0.01 0.00 0.00 0.00 0.00 0.00 0.00 0.00 0.00 0.00 0.00 0.00 0.00 0.00 0.00 0.00 0.00 0.00 0.00 0.00 0.00 0.00 0.00 0.00
0.00 0.00 0.00 0.00 0.00 0.00 0.01 0.05 0.09 0.12 0.14 0.16 0.21 0.24 0.27 0.39 0.48 0.50 0.41 0.21 0.19 0.20 0.22 0.25 0.20 0.13 0.11 0.13 0.14 0.11 0.07 0.03 0.01 0.01 0.01 0.00 0.00 0.00 0.00 0.00 0.00 0.00 0.00 0.00 0.00 0.00 0.00 0.00 0.00 0.00 0.00 0.00 0.00 0.00
0.00 0.00 0.00 0.00 0.00 0.00 0.00 0.04 0.08 0.09 0.12 0.15 0.18 0.21 0.26 0.33 0.43 0.33 0.19 0.16 0.28 0.36 0.32 0.25 0.19 0.16 0.14 0.11 0.11 0.14 0.14 0.11 0.07 0.04 0.02 0.00 0.01 0.00 0.00 0.00 0.00 0.00 0.00 0.00 0.00 0.00 0.00 0.00 0.00 0.00 0.00 0.00 0.00 0.00
0.00 0.00 0.00 0.00 0.00 0.00 0.00 0.01 0.05 0.10 0.12 0.14 0.17 0.20 0.24 0.29 0.27 0.27 0.16 0.19 0.31 0.42 0.45 0.37 0.27 0.20 0.17 0.17 0.18 0.21 0.19 0.15 0.12 0.09 0.12 0.08 0.04 0.01 0.01 0.00 0.00 0.00 0.00 0.00 0.00 0.00 0.00 0.00 0.00 0.00 0.00 0.00 0.00 0.00
0.00 0.00 0.00 0.00 0.00 0.00 0.00 0.00 0.00 0.02 0.06 0.10 0.12 0.14 0.17 0.21 0.23 0.14 0.12 0.22 0.32 0.39 0.45 0.47 0.38 0.26 0.22 0.22 0.23 0.24 0.27 0.28 0.22 0.17 0.16 0.18 0.16 0.11 0.06 0.03 0.02 0.01 0.00 0.00 0.00 0.00 0.00 0.00 0.00 0.00 0.00 0.00 0.00 0.00
0.00 0.00 0.00 0.00 0.00 0.00 0.00 0.00 0.00 0.00 0.00 0.03 0.10 0.09 0.10 0.11 0.08 0.08 0.13 0.22 0.33 0.38 0.44 0.48 0.45 0.34 0.28 0.26 0.28 0.30 0.33 0.35 0.35 0.28 0.24 0.25 0.26 0.24 0.21 0.15 0.13 0.11 0.05 0.01 0.01 0.00 0.00 0.00 0.00 0.00 0.00 0.00 0.00 0.00
0.00 0.00 0.00 0.00 0.00 0.00 0.00 0.00 0.00 0.00 0.00 0.00 0.01 0.03 0.03 0.03 0.05 0.08 0.14 0.21 0.29 0.35 0.39 0.42 0.45 0.43 0.38 0.36 0.35 0.36 0.36 0.35 0.27 0.22 0.14 0.14 0.14 0.20 0.23 0.21 0.17 0.14 0.09 0.05 0.03 0.01 0.01 0.01 0.00 0.00 0.00 0.00 0.00 0.00
0.01 0.00 0.00 0.00 0.00 0.00 0.00 0.01 0.01 0.01 0.00 0.00 0.00 0.00 0.01 0.03 0.05 0.09 0.14 0.19 0.26 0.32 0.37 0.42 0.44 0.43 0.42 0.39 0.40 0.41 0.41 0.40 0.37 0.25 0.18 0.15 0.14 0.16 0.19 0.20 0.19 0.17 0.11 0.05 0.03 0.05 0.04 0.02 0.01 0.00 0.00 0.00 0.00 0.00
0.01 0.01 0.00 0.00 0.00 0.01 0.01 0.02 0.01 0.00 0.00 0.00 0.00 0.00 0.01 0.01 0.04 0.06 0.10 0.15 0.21 0.27 0.32 0.36 0.38 0.42 0.42 0.43 0.42 0.40 0.38 0.38 0.38 0.37 0.31 0.28 0.27 0.27 0.26 0.25 0.21 0.15 0.09 0.06 0.04 0.03 0.02 0.01 0.00 0.00 0.00 0.00 0.00 0.00
0.02 0.01 0.00 0.00 0.00 0.02 0.02 0.01 0.01 0.00 0.01 0.00 0.00 0.00 0.01 0.02 0.02 0.03 0.06 0.10 0.14 0.19 0.25 0.28 0.29 0.30 0.32 0.32 0.33 0.35 0.34 0.32 0.31 0.32 0.30 0.25 0.24 0.24 0.22 0.19 0.16 0.12 0.10 0.09 0.06 0.03 0.01 0.00 0.00 0.00 0.00 0.00 0.00 0.00
0.03 0.02 0.01 0.00 0.01 0.01 0.01 0.01 0.01 0.00 0.00 0.00 0.00 0.01 0.01 0.01 0.01 0.02 0.03 0.05 0.09 0.14 0.17 0.21 0.24 0.26 0.27 0.27 0.28 0.29 0.31 0.33 0.34 0.35 0.35 0.30 0.23 0.18 0.15 0.12 0.09 0.07 0.04 0.02 0.01 0.00 0.00 0.00 0.00 0.00 0.00 0.00 0.00 0.00

GFSWCAN_prec_precacc24_036.txt.gz
Total_Precipitation_Accumulation
0.10 0.09 0.09 0.10 0.12 0.12 0.12 0.12 0.12 0.16 0.12 0.14 0.16 0.22 0.25 0.26 0.47 0.37 0.34 0.34 0.29 0.14 0.03 0.00 0.00 0.02 0.17 0.39 0.54 0.50 0.58 0.33 0.27 0.36 0.26 0.08 0.01 0.00 0.00 0.00 0.00 0.00 0.01 0.02 0.04 0.02 0.00 0.00 0.00 0.00 0.00 0.00 0.00 0.02
0.08 0.09 0.10 0.10 0.12 0.11 0.12 0.10 0.11 0.15 0.12 0.15 0.14 0.17 0.21 0.19 0.35 0.45 0.32 0.30 0.28 0.18 0.05 0.01 0.01 0.01 0.05 0.26 0.55 0.54 0.49 0.28 0.20 0.16 0.09 0.05 0.02 0.00 0.00 0.00 0.00 0.00 0.00 0.00 0.00 0.00 0.00 0.00 0.00 0.00 0.00 0.00 0.00 0.00
0.07 0.11 0.11 0.10 0.12 0.11 0.09 0.09 0.13 0.15 0.12 0.13 0.15 0.13 0.15 0.17 0.22 0.39 0.29 0.23 0.26 0.17 0.03 0.00 0.00 0.01 0.00 0.08 0.44 0.70 0.45 0.37 0.22 0.10 0.09 0.01 0.02 0.00 0.00 0.00 0.00 0.00 0.00 0.00 0.00 0.00 0.00 0.00 0.00 0.00 0.00 0.00 0.00 0.00
0.10 0.12 0.12 0.11 0.11 0.09 0.09 0.10 0.09 0.11 0.09 0.11 0.14 0.11 0.10 0.16 0.20 0.26 0.22 0.15 0.24 0.18 0.04 0.00 0.00 0.01 0.02 0.05 0.34 0.66 0.66 0.45 0.40 0.26 0.20 0.09 0.01 0.00 0.00 0.00 0.00 0.00 0.00 0.00 0.00 0.00 0.00 0.00 0.00 0.00 0.00 0.00 0.00 0.00
0.11 0.12 0.11 0.09 0.08 0.07 0.10 0.07 0.07 0.10 0.06 0.09 0.11 0.10 0.10 0.16 0.25 0.14 0.10 0.14 0.17 0.30 0.26 0.05 0.00 0.00 0.00 0.01 0.23 0.54 0.72 0.67 0.54 0.50 0.23 0.09 0.01 0.00 0.00 0.00 0.00 0.00 0.00 0.00 0.00 0.00 0.00 0.00 0.00 0.00 0.00 0.00 0.00 0.00
0.09 0.10 0.08 0.07 0.07 0.09 0.07 0.05 0.05 0.08 0.06 0.08 0.12 0.13 0.10 0.17 0.34 0.33 0.28 0.18 0.21 0.19 0.26 0.08 0.01 0.00 0.00 0.01 0.09 0.32 0.43 0.41 0.34 0.36 0.18 0.05 0.01 0.01 0.00 0.00 0.00 0.00 0.00 0.00 0.00 0.00 0.00 0.00 0.00 0.00 0.00 0.00 0.00 0.00
0.08 0.08 0.06 0.06 0.07 0.07 0.04 0.04 0.04 0.09 0.10 0.15 0.20 0.18 0.11 0.18 0.30 0.42 0.17 0.10 0.14 0.16 0.20 0.05 0.01 0.00 0.00 0.00 0.02 0.16 0.33 0.34 0.27 0.22 0.14 0.06 0.01 0.01 0.01 0.00 0.00 0.00 0.00 0.00 0.00 0.00 0.00 0.00 0.00 0.00 0.00 0.00 0.00 0.00
0.07 0.05 0.06 0.06 0.07 0.03 0.03 0.02 0.05 0.12 0.20 0.19 0.23 0.23 0.18 0.29 0.31 0.29 0.08 0.08 0.16 0.27 0.14 0.07 0.01 0.00 0.00 0.00 0.00 0.05 0.21 0.27 0.25 0.16 0.06 0.02 0.01 0.01 0.00 0.00 0.00 0.00 0.00 0.00 0.00 0.00 0.00 0.00 0.00 0.00 0.00 0.00 0.00 0.00
0.06 0.05 0.05 0.05 0.03 0.02 0.02 0.03 0.05 0.16 0.29 0.36 0.38 0.41 0.42 0.34 0.19 0.16 0.31 0.26 0.11 0.46 0.48 0.09 0.00 0.00 0.00 0.01 0.00 0.00 0.07 0.18 0.17 0.09 0.04 0.03 0.01 0.00 0.00 0.00 0.00 0.00 0.00 0.00 0.00 0.00 0.00 0.00 0.00 0.00 0.00 0.00 0.00 0.00
0.05 0.04 0.04 0.02 0.01 0.01 0.02 0.05 0.08 0.21 0.41 0.67 0.70 0.71 0.51 0.27 0.28 0.43 0.76 0.53 0.49 0.26 0.26 0.20 0.04 0.00 0.00 0.00 0.00 0.00 0.01 0.05 0.03 0.03 0.02 0.00 0.00 0.00 0.00 0.00 0.00 0.00 0.00 0.00 0.00 0.00 0.00 0.00 0.00 0.00 0.00 0.00 0.00 0.00
0.04 0.02 0.01 0.00 0.01 0.02 0.04 0.09 0.29 0.53 0.86 1.13 1.15 0.68 0.55 0.53 0.59 0.55 0.64 0.39 0.49 0.21 0.05 0.04 0.06 0.05 0.01 0.00 0.00 0.00 0.01 0.00 0.00 0.00 0.00 0.00 0.00 0.00 0.00 0.00 0.00 0.00 0.00 0.00 0.00 0.00 0.00 0.00 0.00 0.00 0.00 0.00 0.00 0.00
0.01 0.00 0.00 0.01 0.01 0.03 0.07 0.20 0.64 1.28 1.51 1.16 0.76 0.91 1.01 0.68 0.65 0.50 0.37 0.17 0.05 0.02 0.00 0.00 0.00 0.03 0.09 0.06 0.02 0.00 0.00 0.00 0.00 0.00 0.00 0.00 0.00 0.00 0.00 0.00 0.00 0.00 0.00 0.00 0.00 0.00 0.00 0.00 0.00 0.00 0.00 0.00 0.00 0.00
0.00 0.00 0.00 0.00 0.01 0.04 0.09 0.32 0.67 0.97 1.00 1.01 0.98 1.42 0.95 0.62 0.41 0.11 0.09 0.03 0.00 0.00 0.00 0.00 0.00 0.00 0.02 0.11 0.09 0.02 0.00 0.00 0.00 0.00 0.00 0.00 0.00 0.00 0.00 0.00 0.00 0.00 0.00 0.00 0.00 0.00 0.00 0.00 0.00 0.00 0.00 0.00 0.00 0.00
0.00 0.00 0.00 0.00 0.02 0.03 0.12 0.40 0.82 1.08 1.22 1.31 1.25 1.18 0.49 0.27 0.06 0.07 0.04 0.00 0.00 0.00 0.00 0.01 0.00 0.00 0.00 0.00 0.04 0.01 0.00 0.00 0.00 0.00 0.00 0.00 0.00 0.00 0.00 0.00 0.00 0.00 0.00 0.00 0.00 0.00 0.00 0.00 0.00 0.00 0.00 0.00 0.00 0.00
0.00 0.00 0.00 0.00 0.01 0.04 0.15 0.47 0.95 1.10 1.08 0.91 0.72 0.52 0.24 0.08 0.03 0.03 0.02 0.00 0.00 0.00 0.00 0.00 0.00 0.00 0.00 0.00 0.00 0.00 0.00 0.00 0.00 0.00 0.00 0.00 0.00 0.00 0.00 0.00 0.00 0.00 0.00 0.00 0.00 0.00 0.00 0.00 0.00 0.00 0.00 0.00 0.00 0.00
0.00 0.00 0.00 0.01 0.01 0.05 0.19 0.46 0.66 0.61 0.84 0.68 0.45 0.26 0.08 0.01 0.01 0.01 0.00 0.00 0.00 0.00 0.00 0.00 0.00 0.00 0.00 0.00 0.00 0.00 0.00 0.00 0.00 0.00 0.00 0.00 0.00 0.00 0.00 0.00 0.00 0.00 0.00 0.00 0.00 0.00 0.00 0.00 0.00 0.00 0.00 0.00 0.00 0.00
0.00 0.00 0.00 0.01 0.01 0.05 0.22 0.52 0.50 0.66 0.90 0.64 0.21 0.03 0.02 0.00 0.00 0.02 0.01 0.00 0.00 0.00 0.00 0.04 0.05 0.01 0.00 0.00 0.00 0.00 0.00 0.00 0.00 0.00 0.00 0.00 0.00 0.00 0.00 0.00 0.00 0.00 0.00 0.00 0.00 0.00 0.00 0.00 0.00 0.00 0.00 0.00 0.00 0.00
0.00 0.00 0.00 0.00 0.00 0.06 0.20 0.44 0.67 0.77 0.64 0.31 0.05 0.02 0.01 0.00 0.00 0.01 0.01 0.02 0.02 0.04 0.04 0.09 0.07 0.04 0.00 0.00 0.00 0.00 0.00 0.00 0.00 0.00 0.00 0.00 0.00 0.00 0.00 0.00 0.00 0.00 0.00 0.00 0.00 0.00 0.00 0.00 0.00 0.00 0.00 0.00 0.00 0.00
0.00 0.00 0.00 0.00 0.01 0.08 0.17 0.30 0.47 0.44 0.27 0.10 0.03 0.03 0.02 0.01 0.00 0.00 0.02 0.05 0.06 0.07 0.14 0.18 0.12 0.04 0.00 0.00 0.00 0.00 0.00 0.00 0.00 0.00 0.00 0.00 0.00 0.00 0.00 0.00 0.00 0.00 0.00 0.00 0.00 0.00 0.00 0.00 0.00 0.00 0.00 0.00 0.00 0.00
0.00 0.00 0.00 0.00 0.00 0.05 0.12 0.19 0.23 0.25 0.16 0.11 0.08 0.07 0.06 0.04 0.04 0.04 0.03 0.06 0.10 0.19 0.28 0.23 0.07 0.03 0.01 0.01 0.01 0.00 0.00 0.00 0.00 0.00 0.00 0.00 0.00 0.00 0.00 0.00 0.00 0.00 0.00 0.00 0.00 0.00 0.00 0.00 0.00 0.00 0.00 0.00 0.00 0.00
0.00 0.00 0.00 0.00 0.00 0.03 0.09 0.11 0.16 0.17 0.15 0.14 0.21 0.19 0.17 0.17 0.15 0.17 0.27 0.28 0.38 0.49 0.26 0.11 0.04 0.02 0.03 0.04 0.04 0.03 0.01 0.00 0.00 0.00 0.00 0.00 0.00 0.00 0.00 0.00 0.00 0.00 0.00 0.00 0.00 0.00 0.00 0.00 0.00 0.00 0.00 0.00 0.00 0.00
0.00 0.00 0.00 0.00 0.00 0.01 0.06 0.09 0.14 0.13 0.15 0.15 0.23 0.31 0.30 0.31 0.38 0.41 0.46 0.63 0.66 0.34 0.12 0.06 0.09 0.07 0.04 0.04 0.06 0.06 0.05 0.03 0.00 0.00 0.00 0.00 0.00 0.00 0.00 0.00 0.00 0.00 0.00 0.00 0.00 0.00 0.00 0.00 0.00 0.00 0.00 0.00 0.00 0.00
0.00 0.00 0.00 0.00 0.00 0.00 0.03 0.05 0.10 0.11 0.15 0.17 0.21 0.29 0.36 0.33 0.40 0.55 0.63 0.52 0.32 0.20 0.17 0.16 0.14 0.14 0.12 0.08 0.06 0.04 0.05 0.06 0.04 0.02 0.01 0.00 0.00 0.00 0.00 0.00 0.00 0.00 0.00 0.00 0.00 0.00 0.00 0.00 0.00 0.00 0.00 0.00 0.00 0.00
0.00 0.00 0.00 0.00 0.00 0.00 0.01 0.03 0.06 0.08 0.10 0.13 0.18 0.22 0.25 0.34 0.40 0.42 0.35 0.19 0.16 0.18 0.22 0.25 0.20 0.13 0.12 0.14 0.16 0.13 0.09 0.07 0.05 0.06 0.07 0.05 0.01 0.00 0.00 0.00 0.00 0.00 0.00 0.00 0.00 0.00 0.00 0.00 0.00 0.00 0.00 0.00 0.00 0.00
0.00 0.00 0.00 0.00 0.00 0.00 0.00 0.02 0.05 0.06 0.09 0.11 0.16 0.19 0.24 0.30 0.39 0.30 0.16 0.13 0.23 0.29 0.28 0.25 0.19 0.16 0.14 0.12 0.12 0.15 0.16 0.16 0.12 0.09 0.09 0.11 0.07 0.04 0.01 0.00 0.00 0.00 0.00 0.00 0.00 0.00 0.00 0.00 0.00 0.00 0.00 0.00 0.00 0.00
0.00 0.00 0.00 0.00 0.00 0.00 0.00 0.00 0.02 0.06 0.09 0.11 0.14 0.16 0.21 0.26 0.24 0.22 0.12 0.14 0.25 0.35 0.38 0.33 0.26 0.20 0.17 0.17 0.18 0.22 0.21 0.20 0.17 0.15 0.20 0.23 0.15 0.08 0.04 0.01 0.00 0.00 0.00 0.00 0.00 0.00 0.00 0.00 0.00 0.00 0.00 0.00 0.00 0.00
0.00 0.00 0.00 0.00 0.00 0.00 0.00 0.00 0.00 0.01 0.04 0.08 0.09 0.11 0.15 0.19 0.20 0.12 0.08 0.15 0.24 0.31 0.39 0.44 0.37 0.26 0.22 0.22 0.23 0.25 0.28 0.31 0.27 0.21 0.24 0.30 0.29 0.22 0.12 0.04 0.02 0.01 0.01 0.01 0.02 0.02 0.01 0.00 0.00 0.00 0.00 0.00 0.00 0.00
0.00 0.00 0.00 0.00 0.00 0.00 0.00 0.00 0.00 0.00 0.00 0.02 0.08 0.07 0.09 0.10 0.07 0.06 0.10 0.17 0.27 0.33 0.41 0.47 0.45 0.34 0.29 0.26 0.28 0.30 0.34 0.38 0.39 0.33 0.31 0.34 0.35 0.34 0.28 0.19 0.15 0.17 0.14 0.09 0.07 0.03 0.00 0.00 0.00 0.00 0.00 0.00 0.00 0.00
0.00 0.00 0.00 0.00 0.00 0.00 0.00 0.00 0.00 0.00 0.00 0.00 0.01 0.03 0.03 0.03 0.05 0.08 0.13 0.20 0.29 0.35 0.39 0.42 0.45 0.42 0.38 0.36 0.35 0.36 0.37 0.37 0.31 0.26 0.19 0.19 0.22 0.28 0.31 0.30 0.27 0.26 0.21 0.15 0.11 0.04 0.02 0.01 0.01 0.01 0.00 0.00 0.00 0.00
0.01 0.00 0.00 0.00 0.00 0.00 0.00 0.00 0.01 0.01 0.00 0.00 0.00 0.00 0.01 0.02 0.05 0.08 0.13 0.19 0.26 0.32 0.37 0.42 0.43 0.44 0.42 0.39 0.40 0.41 0.42 0.43 0.40 0.29 0.22 0.20 0.20 0.26 0.30 0.31 0.30 0.28 0.22 0.15 0.12 0.12 0.06 0.03 0.03 0.02 0.01 0.00 0.00 0.00
0.01 0.01 0.00 0.00 0.00 0.00 0.01 0.01 0.01 0.00 0.00 0.00 0.00 0.00 0.01 0.01 0.04 0.06 0.10 0.15 0.21 0.28 0.32 0.36 0.38 0.42 0.42 0.43 0.43 0.41 0.39 0.40 0.41 0.42 0.37 0.35 0.36 0.36 0.37 0.36 0.33 0.27 0.22 0.16 0.09 0.06 0.05 0.05 0.05 0.04 0.01 0.00 0.00 0.00
0.02 0.01 0.00 0.00 0.00 0.01 0.02 0.01 0.01 0.01 0.01 0.00 0.00 0.01 0.01 0.01 0.02 0.03 0.06 0.10 0.14 0.19 0.25 0.28 0.29 0.30 0.32 0.33 0.34 0.36 0.37 0.36 0.36 0.38 0.37 0.33 0.31 0.33 0.33 0.31 0.29 0.23 0.20 0.17 0.14 0.11 0.09 0.07 0.05 0.03 0.00 0.00 0.00 0.00
0.02 0.02 0.01 0.00 0.01 0.01 0.01 0.01 0.01 0.00 0.00 0.00 0.00 0.01 0.01 0.01 0.01 0.02 0.02 0.05 0.08 0.13 0.17 0.21 0.24 0.26 0.27 0.28 0.29 0.31 0.35 0.39 0.42 0.44 0.46 0.42 0.34 0.29 0.26 0.24 0.22 0.19 0.16 0.13 0.11 0.09 0.07 0.04 0.01 0.00 0.00 0.00 0.00 0.00

GFSWCAN_prec_precacc24_039.txt.gz
Total_Precipitation_Accumulation
0.09 0.09 0.09 0.10 0.11 0.09 0.09 0.08 0.08 0.08 0.07 0.06 0.08 0.18 0.24 0.26 0.46 0.36 0.34 0.35 0.30 0.15 0.04 0.00 0.00 0.02 0.11 0.31 0.50 0.50 0.52 0.31 0.27 0.36 0.27 0.08 0.02 0.00 0.00 0.00 0.00 0.00 0.01 0.02 0.04 0.05 0.00 0.00 0.00 0.00 0.00 0.00 0.00 0.04
0.07 0.09 0.11 0.10 0.11 0.09 0.08 0.06 0.06 0.06 0.06 0.06 0.05 0.13 0.20 0.19 0.35 0.43 0.30 0.28 0.31 0.19 0.06 0.01 0.01 0.01 0.04 0.24 0.48 0.52 0.47 0.26 0.18 0.13 0.09 0.04 0.01 0.01 0.00 0.00 0.00 0.00 0.00 0.00 0.00 0.00 0.00 0.00 0.00 0.00 0.00 0.00 0.00 0.00
0.06 0.11 0.11 0.11 0.11 0.09 0.06 0.06 0.07 0.05 0.04 0.05 0.04 0.09 0.14 0.17 0.21 0.37 0.26 0.20 0.26 0.17 0.04 0.00 0.00 0.01 0.00 0.08 0.40 0.62 0.41 0.37 0.22 0.08 0.11 0.03 0.04 0.01 0.00 0.00 0.00 0.00 0.00 0.00 0.00 0.00 0.00 0.00 0.00 0.00 0.00 0.00 0.00 0.00
0.08 0.12 0.13 0.11 0.10 0.07 0.06 0.07 0.04 0.04 0.04 0.03 0.06 0.07 0.09 0.15 0.19 0.23 0.19 0.11 0.24 0.19 0.04 0.01 0.00 0.01 0.02 0.05 0.34 0.65 0.66 0.47 0.43 0.27 0.21 0.12 0.02 0.00 0.01 0.00 0.00 0.00 0.00 0.00 0.00 0.00 0.00 0.00 0.00 0.00 0.00 0.00 0.00 0.00
0.09 0.11 0.11 0.09 0.07 0.05 0.07 0.05 0.03 0.04 0.03 0.03 0.06 0.08 0.09 0.16 0.24 0.12 0.06 0.07 0.17 0.32 0.28 0.05 0.00 0.00 0.00 0.01 0.24 0.60 0.80 0.74 0.59 0.52 0.24 0.11 0.02 0.00 0.00 0.00 0.00 0.00 0.00 0.00 0.00 0.00 0.00 0.00 0.00 0.00 0.00 0.00 0.00 0.00
0.07 0.09 0.08 0.07 0.06 0.07 0.05 0.03 0.02 0.02 0.03 0.05 0.08 0.12 0.10 0.17 0.33 0.30 0.23 0.12 0.22 0.21 0.28 0.08 0.02 0.00 0.00 0.01 0.10 0.40 0.50 0.50 0.41 0.39 0.22 0.07 0.01 0.01 0.01 0.00 0.00 0.00 0.00 0.00 0.00 0.00 0.00 0.00 0.00 0.00 0.00 0.00 0.00 0.00
0.06 0.07 0.06 0.06 0.07 0.06 0.02 0.02 0.01 0.02 0.04 0.09 0.16 0.17 0.11 0.18 0.28 0.38 0.15 0.10 0.11 0.16 0.21 0.05 0.01 0.00 0.00 0.00 0.02 0.19 0.40 0.45 0.32 0.25 0.16 0.09 0.02 0.01 0.01 0.00 0.00 0.00 0.00 0.00 0.00 0.00 0.00 0.00 0.00 0.00 0.00 0.00 0.00 0.00
0.05 0.05 0.06 0.07 0.06 0.02 0.01 0.01 0.02 0.03 0.06 0.09 0.16 0.22 0.18 0.26 0.27 0.26 0.07 0.08 0.10 0.20 0.11 0.06 0.01 0.00 0.00 0.00 0.00 0.06 0.27 0.39 0.33 0.20 0.07 0.03 0.01 0.02 0.01 0.00 0.00 0.00 0.00 0.00 0.00 0.00 0.00 0.00 0.00 0.00 0.00 0.00 0.00 0.01
0.06 0.05 0.05 0.05 0.03 0.01 0.01 0.01 0.03 0.04 0.06 0.13 0.30 0.38 0.40 0.32 0.18 0.15 0.31 0.25 0.10 0.38 0.36 0.04 0.00 0.00 0.00 0.01 0.00 0.00 0.10 0.29 0.26 0.13 0.05 0.04 0.01 0.00 0.00 0.00 0.00 0.00 0.00 0.00 0.00 0.00 0.00 0.00 0.00 0.00 0.00 0.00 0.00 0.00
0.04 0.04 0.04 0.02 0.00 0.00 0.01 0.03 0.04 0.03 0.10 0.34 0.62 0.68 0.50 0.26 0.28 0.41 0.75 0.54 0.47 0.25 0.24 0.19 0.04 0.00 0.00 0.00 0.00 0.00 0.00 0.06 0.09 0.08 0.05 0.01 0.00 0.00 0.00 0.00 0.00 0.00 0.00 0.00 0.00 0.00 0.00 0.00 0.00 0.00 0.00 0.00 0.00 0.00
0.03 0.02 0.01 0.00 0.00 0.00 0.02 0.04 0.04 0.11 0.40 0.79 1.06 0.68 0.55 0.55 0.64 0.60 0.64 0.38 0.49 0.20 0.05 0.04 0.06 0.05 0.01 0.00 0.00 0.00 0.01 0.00 0.00 0.00 0.01 0.00 0.00 0.00 0.00 0.00 0.00 0.00 0.00 0.00 0.00 0.00 0.00 0.00 0.00 0.00 0.00 0.00 0.00 0.00
0.01 0.01 0.00 0.01 0.00 0.01 0.03 0.03 0.11 0.44 0.95 0.92 0.73 0.91 1.04 0.69 0.67 0.52 0.38 0.17 0.05 0.02 0.00 0.00 0.00 0.03 0.09 0.06 0.02 0.00 0.00 0.00 0.00 0.00 0.00 0.00 0.00 0.00 0.00 0.00 0.00 0.00 0.00 0.00 0.00 0.00 0.00 0.00 0.00 0.00 0.00 0.00 0.00 0.00
0.00 0.00 0.00 0.00 0.00 0.01 0.02 0.04 0.17 0.45 0.65 0.81 0.94 1.40 0.95 0.62 0.41 0.11 0.10 0.04 0.00 0.00 0.00 0.01 0.00 0.00 0.02 0.11 0.09 0.02 0.00 0.00 0.00 0.00 0.00 0.00 0.00 0.00 0.00 0.00 0.00 0.00 0.00 0.00 0.00 0.00 0.00 0.00 0.00 0.00 0.00 0.00 0.00 0.00
0.00 0.00 0.00 0.00 0.00 0.01 0.01 0.06 0.27 0.55 0.77 0.98 1.09 1.12 0.49 0.27 0.07 0.08 0.04 0.00 0.00 0.00 0.00 0.01 0.01 0.00 0.00 0.00 0.04 0.01 0.00 0.00 0.00 0.00 0.00 0.00 0.00 0.00 0.00 0.00 0.00 0.00 0.00 0.00 0.00 0.00 0.00 0.00 0.00 0.00 0.00 0.00 0.00 0.00
0.00 0.00 0.00 0.00 0.00 0.00 0.02 0.08 0.31 0.52 0.71 0.75 0.66 0.51 0.24 0.08 0.03 0.03 0.02 0.00 0.00 0.00 0.00 0.00 0.00 0.00 0.00 0.00 0.00 0.00 0.00 0.00 0.00 0.00 0.00 0.00 0.00 0.00 0.00 0.00 0.00 0.00 0.00 0.00 0.00 0.00 0.00 0.00 0.00 0.00 0.00 0.00 0.00 0.00
0.00 0.00 0.00 0.00 0.00 0.00 0.02 0.10 0.28 0.32 0.58 0.57 0.42 0.25 0.08 0.01 0.01 0.01 0.00 0.00 0.00 0.00 0.00 0.00 0.00 0.00 0.00 0.00 0.00 0.00 0.00 0.00 0.00 0.00 0.00 0.00 0.00 0.00 0.00 0.00 0.00 0.00 0.00 0.00 0.00 0.00 0.00 0.00 0.00 0.00 0.00 0.00 0.00 0.00
0.00 0.00 0.00 0.00 0.00 0.00 0.03 0.15 0.26 0.41 0.61 0.46 0.18 0.03 0.02 0.00 0.00 0.02 0.01 0.00 0.00 0.00 0.00 0.04 0.08 0.02 0.00 0.00 0.00 0.00 0.00 0.00 0.00 0.00 0.00 0.00 0.00 0.00 0.00 0.00 0.00 0.00 0.00 0.00 0.00 0.00 0.00 0.00 0.00 0.00 0.00 0.00 0.00 0.00
0.00 0.00 0.00 0.00 0.00 0.00 0.04 0.15 0.31 0.45 0.43 0.20 0.04 0.01 0.01 0.00 0.00 0.01 0.01 0.02 0.02 0.04 0.05 0.11 0.08 0.08 0.01 0.00 0.00 0.00 0.00 0.00 0.00 0.00 0.00 0.00 0.00 0.00 0.00 0.00 0.00 0.00 0.00 0.00 0.00 0.00 0.00 0.00 0.00 0.00 0.00 0.00 0.00 0.00
0.00 0.00 0.00 0.00 0.00 0.02 0.05 0.12 0.24 0.29 0.19 0.08 0.03 0.03 0.02 0.01 0.00 0.00 0.02 0.05 0.06 0.07 0.15 0.20 0.14 0.05 0.00 0.00 0.00 0.00 0.00 0.00 0.00 0.00 0.00 0.00 0.00 0.00 0.00 0.00 0.00 0.00 0.00 0.00 0.00 0.00 0.00 0.00 0.00 0.00 0.00 0.00 0.00 0.00
0.01 0.00 0.00 0.00 0.00 0.01 0.04 0.09 0.14 0.17 0.12 0.08 0.07 0.06 0.06 0.03 0.03 0.03 0.02 0.05 0.10 0.19 0.28 0.24 0.08 0.03 0.01 0.01 0.02 0.01 0.00 0.00 0.00 0.00 0.00 0.00 0.00 0.00 0.00 0.00 0.00 0.00 0.00 0.00 0.00 0.00 0.00 0.00 0.00 0.00 0.00 0.00 0.00 0.00
0.00 0.00 0.00 0.00 0.00 0.00 0.03 0.05 0.09 0.12 0.10 0.09 0.15 0.13 0.12 0.13 0.11 0.12 0.18 0.19 0.29 0.42 0.24 0.11 0.03 0.02 0.03 0.04 0.04 0.03 0.01 0.01 0.00 0.00 0.00 0.00 0.00 0.00 0.00 0.00 0.00 0.00 0.00 0.00 0.00 0.00 0.00 0.00 0.00 0.00 0.00 0.00 0.00 0.00
0.00 0.00 0.00 0.00 0.00 0.00 0.02 0.04 0.08 0.08 0.11 0.10 0.15 0.23 0.21 0.23 0.31 0.34 0.39 0.55 0.57 0.29 0.11 0.06 0.07 0.07 0.04 0.04 0.06 0.06 0.05 0.03 0.01 0.00 0.00 0.00 0.00 0.00 0.00 0.00 0.00 0.00 0.00 0.00 0.00 0.00 0.00 0.00 0.00 0.00 0.00 0.00 0.00 0.00
0.00 0.00 0.00 0.00 0.00 0.00 0.00 0.01 0.05 0.07 0.10 0.11 0.14 0.20 0.27 0.26 0.31 0.46 0.54 0.45 0.29 0.19 0.17 0.16 0.14 0.14 0.12 0.08 0.06 0.04 0.05 0.06 0.04 0.02 0.01 0.00 0.00 0.00 0.00 0.00 0.00 0.00 0.00 0.00 0.00 0.00 0.00 0.00 0.00 0.00 0.00 0.00 0.00 0.00
0.00 0.00 0.00 0.00 0.00 0.00 0.00 0.01 0.02 0.05 0.07 0.09 0.13 0.18 0.21 0.29 0.33 0.34 0.32 0.18 0.15 0.17 0.22 0.25 0.20 0.13 0.12 0.14 0.16 0.13 0.09 0.07 0.05 0.06 0.08 0.07 0.04 0.02 0.01 0.00 0.00 0.00 0.00 0.00 0.00 0.00 0.00 0.00 0.00 0.00 0.00 0.00 0.00 0.00
0.02 0.01 0.00 0.00 0.00 0.00 0.00 0.00 0.01 0.03 0.06 0.08 0.12 0.15 0.19 0.25 0.33 0.26 0.14 0.11 0.19 0.25 0.26 0.25 0.19 0.16 0.14 0.12 0.12 0.15 0.16 0.16 0.13 0.09 0.09 0.13 0.10 0.09 0.09 0.05 0.02 0.00 0.00 0.00 0.00 0.00 0.00 0.00 0.00 0.00 0.00 0.00 0.00 0.00
0.02 0.00 0.00 0.00 0.00 0.00 0.00 0.00 0.00 0.02 0.04 0.07 0.10 0.13 0.17 0.21 0.20 0.19 0.11 0.12 0.19 0.26 0.31 0.30 0.26 0.20 0.17 0.17 0.18 0.22 0.21 0.20 0.17 0.15 0.20 0.26 0.20 0.14 0.10 0.09 0.08 0.05 0.01 0.00 0.00 0.00 0.01 0.00 0.00 0.00 0.00 0.00 0.00 0.00
0.01 0.00 0.00 0.00 0.00 0.00 0.00 0.00 0.00 0.00 0.02 0.05 0.06 0.08 0.12 0.15 0.16 0.10 0.07 0.12 0.18 0.23 0.30 0.35 0.32 0.25 0.22 0.22 0.23 0.25 0.28 0.31 0.27 0.21 0.24 0.32 0.33 0.28 0.20 0.13 0.08 0.05 0.04 0.02 0.02 0.03 0.03 0.03 0.02 0.01 0.00 0.00 0.00 0.00
0.00 0.00 0.00 0.00 0.00 0.00 0.00 0.00 0.00 0.00 0.00 0.01 0.05 0.05 0.07 0.09 0.07 0.05 0.07 0.13 0.19 0.24 0.31 0.38 0.40 0.32 0.28 0.26 0.28 0.30 0.34 0.38 0.39 0.33 0.31 0.35 0.39 0.40 0.38 0.31 0.28 0.27 0.22 0.15 0.13 0.14 0.12 0.09 0.06 0.03 0.00 0.00 0.00 0.00
0.00 0.00 0.00 0.00 0.00 0.00 0.00 0.00 0.00 0.00 0.00 0.00 0.01 0.02 0.03 0.03 0.03 0.04 0.08 0.14 0.22 0.28 0.32 0.37 0.41 0.41 0.38 0.36 0.35 0.36 0.37 0.37 0.31 0.26 0.19 0.20 0.25 0.34 0.42 0.43 0.43 0.42 0.35 0.26 0.23 0.16 0.12 0.09 0.06 0.02 0.01 0.00 0.00 0.00
0.01 0.00 0.00 0.00 0.00 0.00 0.00 0.00 0.01 0.00 0.00 0.00 0.00 0.00 0.01 0.02 0.03 0.06 0.10 0.15 0.21 0.27 0.33 0.39 0.42 0.43 0.42 0.39 0.40 0.41 0.42 0.43 0.41 0.30 0.23 0.20 0.23 0.31 0.40 0.43 0.43 0.43 0.40 0.31 0.26 0.26 0.20 0.12 0.07 0.04 0.02 0.01 0.00 0.00
0.01 0.01 0.00 0.00 0.00 0.00 0.01 0.01 0.01 0.00 0.00 0.00 0.00 0.00 0.01 0.01 0.03 0.05 0.09 0.14 0.19 0.26 0.31 0.35 0.38 0.42 0.42 0.43 0.43 0.41 0.39 0.40 0.42 0.42 0.38 0.36 0.39 0.40 0.43 0.45 0.43 0.40 0.36 0.31 0.24 0.16 0.11 0.08 0.06 0.04 0.04 0.04 0.04 0.02
0.02 0.01 0.00 0.00 0.00 0.01 0.01 0.01 0.01 0.01 0.01 0.00 0.00 0.01 0.01 0.01 0.02 0.03 0.06 0.10 0.14 0.19 0.25 0.28 0.29 0.30 0.32 0.33 0.34 0.36 0.38 0.36 0.36 0.38 0.38 0.34 0.34 0.37 0.39 0.39 0.39 0.34 0.32 0.30 0.25 0.21 0.18 0.15 0.12 0.09 0.08 0.08 0.05 0.01
0.02 0.02 0.01 0.00 0.01 0.01 0.01 0.01 0.01 0.00 0.00 0.00 0.00 0.01 0.01 0.01 0.01 0.02 0.02 0.05 0.08 0.13 0.17 0.21 0.24 0.26 0.28 0.28 0.30 0.32 0.35 0.39 0.42 0.45 0.48 0.45 0.38 0.34 0.32 0.31 0.31 0.29 0.27 0.26 0.25 0.22 0.20 0.15 0.11 0.09 0.06 0.03 0.01 0.00

GFSWCAN_prec_precacc24_042.txt.gz
Total_Precipitation_Accumulation
0.06 0.06 0.07 0.10 0.11 0.10 0.09 0.07 0.05 0.05 0.03 0.04 0.03 0.03 0.13 0.22 0.43 0.32 0.34 0.31 0.23 0.13 0.05 0.01 0.01 0.03 0.06 0.23 0.44 0.45 0.49 0.31 0.27 0.28 0.20 0.07 0.01 0.01 0.00 0.00 0.00 0.01 0.01 0.02 0.03 0.04 0.00 0.00 0.00 0.00 0.00 0.00 0.00 0.05
0.04 0.06 0.08 0.09 0.11 0.09 0.08 0.06 0.04 0.04 0.03 0.03 0.02 0.03 0.12 0.17 0.33 0.40 0.30 0.24 0.22 0.17 0.07 0.02 0.01 0.01 0.02 0.15 0.40 0.46 0.45 0.26 0.17 0.10 0.07 0.05 0.02 0.01 0.00 0.00 0.00 0.00 0.00 0.01 0.00 0.00 0.00 0.00 0.00 0.00 0.00 0.00 0.00 0.00
0.04 0.08 0.08 0.10 0.11 0.09 0.06 0.05 0.05 0.03 0.03 0.03 0.02 0.03 0.09 0.16 0.19 0.34 0.26 0.15 0.17 0.15 0.04 0.01 0.01 0.01 0.00 0.05 0.34 0.54 0.36 0.32 0.21 0.07 0.09 0.04 0.05 0.02 0.01 0.00 0.00 0.00 0.00 0.00 0.00 0.00 0.00 0.00 0.00 0.00 0.00 0.00 0.00 0.00
0.06 0.08 0.09 0.09 0.10 0.07 0.06 0.06 0.03 0.02 0.02 0.02 0.03 0.03 0.06 0.14 0.17 0.20 0.19 0.07 0.15 0.16 0.04 0.02 0.00 0.01 0.02 0.04 0.30 0.56 0.57 0.44 0.41 0.22 0.16 0.13 0.04 0.02 0.01 0.00 0.00 0.00 0.00 0.00 0.00 0.00 0.00 0.00 0.00 0.00 0.00 0.00 0.00 0.00
0.06 0.07 0.08 0.08 0.07 0.06 0.07 0.04 0.02 0.02 0.02 0.03 0.03 0.03 0.07 0.15 0.21 0.11 0.06 0.03 0.09 0.29 0.28 0.07 0.00 0.00 0.00 0.01 0.24 0.57 0.79 0.72 0.63 0.51 0.23 0.10 0.03 0.01 0.00 0.00 0.00 0.00 0.00 0.00 0.00 0.00 0.00 0.00 0.00 0.00 0.00 0.00 0.00 0.00
0.04 0.05 0.05 0.06 0.06 0.08 0.05 0.02 0.01 0.01 0.02 0.03 0.04 0.04 0.06 0.16 0.28 0.27 0.21 0.10 0.14 0.19 0.30 0.09 0.03 0.00 0.00 0.01 0.10 0.41 0.57 0.56 0.47 0.44 0.24 0.08 0.03 0.03 0.02 0.00 0.00 0.00 0.00 0.00 0.00 0.00 0.00 0.00 0.00 0.00 0.00 0.00 0.00 0.00
0.04 0.04 0.05 0.06 0.06 0.06 0.02 0.01 0.00 0.01 0.03 0.05 0.03 0.04 0.05 0.15 0.25 0.37 0.14 0.12 0.08 0.14 0.22 0.06 0.02 0.00 0.00 0.00 0.02 0.20 0.47 0.51 0.38 0.29 0.18 0.11 0.05 0.03 0.02 0.00 0.00 0.00 0.00 0.00 0.00 0.00 0.00 0.00 0.00 0.00 0.00 0.00 0.00 0.00
0.04 0.03 0.05 0.05 0.06 0.02 0.01 0.00 0.01 0.02 0.04 0.02 0.00 0.07 0.12 0.20 0.23 0.25 0.06 0.07 0.04 0.14 0.10 0.06 0.00 0.00 0.01 0.01 0.01 0.06 0.31 0.46 0.40 0.24 0.09 0.05 0.03 0.03 0.01 0.00 0.00 0.00 0.00 0.00 0.00 0.00 0.00 0.00 0.00 0.00 0.00 0.00 0.00 0.01
0.03 0.03 0.04 0.04 0.03 0.01 0.00 0.01 0.02 0.03 0.01 0.00 0.02 0.13 0.26 0.25 0.17 0.15 0.32 0.20 0.07 0.21 0.27 0.03 0.00 0.00 0.00 0.03 0.00 0.01 0.14 0.37 0.34 0.20 0.08 0.06 0.02 0.00 0.00 0.00 0.00 0.00 0.00 0.00 0.00 0.00 0.00 0.00 0.00 0.00 0.00 0.00 0.00 0.00
0.02 0.02 0.03 0.02 0.01 0.00 0.00 0.01 0.02 0.02 0.00 0.05 0.19 0.39 0.40 0.22 0.26 0.41 0.77 0.46 0.36 0.20 0.12 0.08 0.01 0.00 0.00 0.01 0.01 0.01 0.01 0.12 0.15 0.15 0.10 0.02 0.00 0.00 0.00 0.00 0.00 0.00 0.00 0.00 0.00 0.00 0.00 0.00 0.00 0.00 0.00 0.00 0.00 0.00
0.01 0.01 0.01 0.01 0.00 0.00 0.01 0.01 0.02 0.02 0.06 0.27 0.61 0.49 0.51 0.53 0.63 0.59 0.61 0.31 0.38 0.16 0.04 0.02 0.01 0.02 0.01 0.00 0.01 0.00 0.00 0.00 0.03 0.01 0.03 0.02 0.00 0.00 0.00 0.00 0.00 0.00 0.00 0.00 0.00 0.00 0.00 0.00 0.00 0.00 0.00 0.00 0.00 0.00
0.00 0.00 0.00 0.01 0.00 0.00 0.01 0.01 0.03 0.05 0.23 0.48 0.55 0.76 1.00 0.67 0.65 0.51 0.36 0.13 0.04 0.02 0.00 0.00 0.00 0.02 0.09 0.06 0.02 0.00 0.00 0.00 0.00 0.00 0.00 0.00 0.00 0.00 0.00 0.00 0.00 0.00 0.00 0.00 0.00 0.00 0.00 0.00 0.00 0.00 0.00 0.00 0.00 0.00
0.00 0.00 0.00 0.00 0.00 0.00 0.00 0.01 0.03 0.08 0.22 0.39 0.55 1.16 0.91 0.56 0.40 0.11 0.10 0.03 0.00 0.00 0.00 0.01 0.00 0.00 0.02 0.11 0.09 0.02 0.00 0.00 0.00 0.00 0.00 0.00 0.00 0.00 0.00 0.00 0.00 0.00 0.00 0.00 0.00 0.00 0.00 0.00 0.00 0.00 0.00 0.00 0.00 0.00
0.00 0.00 0.00 0.00 0.00 0.00 0.00 0.01 0.03 0.11 0.33 0.48 0.66 0.95 0.47 0.24 0.07 0.08 0.04 0.00 0.00 0.00 0.00 0.01 0.01 0.00 0.00 0.00 0.04 0.01 0.00 0.00 0.00 0.00 0.00 0.00 0.00 0.00 0.00 0.00 0.00 0.00 0.00 0.00 0.00 0.00 0.00 0.00 0.00 0.00 0.00 0.00 0.00 0.00
0.00 0.00 0.00 0.00 0.00 0.00 0.00 0.01 0.03 0.11 0.30 0.46 0.51 0.50 0.24 0.08 0.03 0.03 0.02 0.00 0.00 0.00 0.00 0.00 0.00 0.00 0.00 0.00 0.00 0.00 0.00 0.00 0.00 0.00 0.00 0.00 0.00 0.00 0.00 0.00 0.00 0.00 0.00 0.00 0.00 0.00 0.00 0.00 0.00 0.00 0.00 0.00 0.00 0.00
0.00 0.00 0.00 0.00 0.00 0.00 0.00 0.01 0.03 0.10 0.28 0.42 0.37 0.24 0.08 0.01 0.01 0.01 0.00 0.00 0.00 0.00 0.00 0.00 0.00 0.00 0.00 0.00 0.00 0.00 0.00 0.00 0.00 0.00 0.00 0.00 0.00 0.00 0.00 0.00 0.00 0.00 0.00 0.00 0.00 0.00 0.00 0.00 0.00 0.00 0.00 0.00 0.00 0.00
0.01 0.00 0.00 0.00 0.00 0.00 0.00 0.01 0.05 0.15 0.30 0.31 0.15 0.03 0.02 0.00 0.00 0.02 0.01 0.00 0.00 0.00 0.00 0.04 0.09 0.02 0.00 0.00 0.00 0.00 0.00 0.00 0.00 0.00 0.00 0.00 0.00 0.00 0.00 0.00 0.00 0.00 0.00 0.00 0.00 0.00 0.00 0.00 0.00 0.00 0.00 0.00 0.00 0.00
0.01 0.00 0.00 0.00 0.00 0.00 0.00 0.02 0.08 0.17 0.21 0.11 0.03 0.01 0.01 0.00 0.00 0.01 0.01 0.02 0.02 0.04 0.05 0.13 0.09 0.08 0.02 0.00 0.00 0.00 0.00 0.00 0.00 0.00 0.00 0.00 0.00 0.00 0.00 0.00 0.00 0.00 0.00 0.00 0.00 0.00 0.00 0.00 0.00 0.00 0.00 0.00 0.00 0.00
0.01 0.00 0.00 0.00 0.00 0.00 0.00 0.02 0.07 0.12 0.10 0.05 0.02 0.03 0.02 0.01 0.00 0.00 0.02 0.05 0.06 0.07 0.15 0.21 0.15 0.06 0.00 0.00 0.00 0.00 0.00 0.00 0.00 0.00 0.00 0.00 0.00 0.00 0.00 0.00 0.00 0.00 0.00 0.00 0.00 0.00 0.00 0.00 0.00 0.00 0.00 0.00 0.00 0.00
0.04 0.02 0.00 0.00 0.00 0.00 0.00 0.01 0.04 0.08 0.07 0.05 0.05 0.06 0.06 0.03 0.03 0.03 0.02 0.05 0.10 0.19 0.28 0.24 0.08 0.03 0.01 0.01 0.02 0.02 0.00 0.00 0.00 0.00 0.00 0.00 0.00 0.00 0.00 0.00 0.00 0.00 0.00 0.00 0.00 0.00 0.00 0.00 0.00 0.00 0.00 0.00 0.00 0.00
0.02 0.01 0.00 0.00 0.00 0.00 0.00 0.00 0.02 0.06 0.05 0.06 0.10 0.11 0.11 0.13 0.10 0.10 0.13 0.14 0.24 0.37 0.22 0.11 0.03 0.02 0.03 0.04 0.04 0.03 0.01 0.01 0.00 0.00 0.00 0.00 0.00 0.00 0.00 0.00 0.00 0.00 0.00 0.00 0.00 0.00 0.00 0.00 0.00 0.00 0.00 0.00 0.00 0.00
0.01 0.00 0.00 0.00 0.00 0.00 0.00 0.01 0.01 0.03 0.06 0.06 0.11 0.19 0.18 0.21 0.29 0.30 0.31 0.43 0.45 0.21 0.07 0.05 0.06 0.06 0.04 0.04 0.06 0.06 0.05 0.03 0.01 0.00 0.00 0.00 0.00 0.00 0.00 0.00 0.00 0.00 0.00 0.00 0.00 0.00 0.00 0.00 0.00 0.00 0.00 0.00 0.00 0.00
0.01 0.00 0.00 0.00 0.00 0.00 0.00 0.00 0.01 0.02 0.04 0.05 0.09 0.16 0.23 0.21 0.25 0.39 0.47 0.39 0.24 0.15 0.13 0.11 0.08 0.11 0.12 0.08 0.06 0.04 0.05 0.06 0.04 0.02 0.01 0.00 0.00 0.00 0.00 0.00 0.00 0.00 0.00 0.00 0.00 0.00 0.00 0.00 0.00 0.00 0.00 0.00 0.00 0.00
0.01 0.01 0.01 0.01 0.00 0.00 0.00 0.00 0.00 0.01 0.02 0.03 0.07 0.12 0.16 0.23 0.25 0.26 0.27 0.16 0.12 0.13 0.17 0.21 0.18 0.13 0.12 0.14 0.16 0.13 0.09 0.07 0.05 0.06 0.08 0.07 0.04 0.02 0.01 0.00 0.00 0.00 0.00 0.00 0.00 0.00 0.00 0.00 0.00 0.00 0.00 0.00 0.00 0.00
0.06 0.05 0.03 0.01 0.00 0.00 0.00 0.00 0.00 0.00 0.02 0.03 0.06 0.10 0.13 0.19 0.25 0.20 0.09 0.07 0.13 0.17 0.19 0.22 0.18 0.16 0.14 0.12 0.12 0.15 0.16 0.16 0.13 0.09 0.10 0.13 0.10 0.09 0.09 0.06 0.02 0.00 0.00 0.00 0.00 0.00 0.00 0.00 0.00 0.00 0.00 0.00 0.00 0.01
0.05 0.02 0.01 0.00 0.00 0.00 0.00 0.00 0.00 0.00 0.01 0.03 0.05 0.07 0.11 0.16 0.15 0.15 0.08 0.08 0.12 0.18 0.24 0.26 0.25 0.20 0.17 0.17 0.18 0.22 0.21 0.20 0.17 0.15 0.20 0.26 0.20 0.14 0.10 0.09 0.09 0.07 0.04 0.03 0.03 0.02 0.02 0.02 0.01 0.02 0.02 0.01 0.03 0.04
0.03 0.01 0.00 0.00 0.00 0.00 0.00 0.00 0.00 0.00 0.00 0.02 0.03 0.04 0.08 0.10 0.11 0.08 0.06 0.08 0.11 0.15 0.20 0.26 0.30 0.25 0.22 0.22 0.23 0.25 0.28 0.31 0.27 0.21 0.24 0.32 0.33 0.28 0.20 0.13 0.08 0.06 0.10 0.15 0.12 0.09 0.07 0.07 0.06 0.07 0.09 0.09 0.07 0.03
0.00 0.00 0.00 0.00 0.00 0.00 0.00 0.00 0.00 0.00 0.00 0.00 0.02 0.02 0.04 0.06 0.05 0.04 0.06 0.09 0.12 0.14 0.20 0.27 0.31 0.30 0.27 0.26 0.27 0.30 0.33 0.38 0.39 0.33 0.31 0.35 0.39 0.40 0.38 0.31 0.29 0.29 0.27 0.24 0.24 0.23 0.21 0.17 0.16 0.14 0.15 0.13 0.08 0.02
0.00 0.00 0.00 0.00 0.00 0.00 0.00 0.00 0.00 0.00 0.00 0.00 0.00 0.01 0.01 0.01 0.02 0.03 0.05 0.10 0.14 0.18 0.21 0.26 0.30 0.32 0.32 0.32 0.32 0.35 0.37 0.37 0.32 0.27 0.20 0.20 0.25 0.33 0.42 0.44 0.46 0.47 0.41 0.34 0.34 0.28 0.22 0.20 0.19 0.16 0.14 0.12 0.08 0.02
0.00 0.00 0.00 0.00 0.00 0.00 0.00 0.00 0.00 0.00 0.00 0.00 0.00 0.00 0.00 0.00 0.01 0.03 0.05 0.09 0.13 0.18 0.23 0.28 0.31 0.35 0.37 0.36 0.39 0.41 0.42 0.43 0.41 0.30 0.23 0.21 0.23 0.31 0.40 0.44 0.46 0.47 0.47 0.42 0.39 0.42 0.38 0.32 0.27 0.21 0.15 0.12 0.07 0.03
0.01 0.00 0.00 0.00 0.00 0.00 0.01 0.01 0.01 0.00 0.00 0.00 0.00 0.00 0.00 0.00 0.01 0.02 0.05 0.08 0.12 0.17 0.22 0.26 0.30 0.37 0.39 0.42 0.43 0.41 0.39 0.40 0.42 0.43 0.39 0.37 0.39 0.40 0.43 0.46 0.46 0.46 0.47 0.44 0.38 0.31 0.25 0.18 0.13 0.11 0.09 0.08 0.06 0.04
0.02 0.01 0.00 0.00 0.00 0.01 0.01 0.01 0.01 0.00 0.01 0.00 0.00 0.01 0.01 0.01 0.01 0.02 0.04 0.07 0.11 0.15 0.21 0.25 0.27 0.29 0.32 0.33 0.34 0.37 0.38 0.37 0.37 0.38 0.38 0.35 0.34 0.37 0.40 0.41 0.43 0.42 0.43 0.43 0.38 0.32 0.29 0.27 0.26 0.21 0.16 0.13 0.10 0.09
0.02 0.02 0.01 0.00 0.00 0.01 0.01 0.01 0.01 0.00 0.00 0.00 0.00 0.01 0.01 0.01 0.01 0.02 0.02 0.05 0.08 0.13 0.17 0.20 0.24 0.26 0.28 0.29 0.30 0.32 0.36 0.40 0.43 0.46 0.49 0.46 0.40 0.36 0.34 0.35 0.36 0.37 0.35 0.35 0.37 0.37 0.38 0.34 0.28 0.23 0.20 0.16 0.13 0.09

GFSWCAN_prec_precacc24_045.txt.gz
Total_Precipitation_Accumulation
0.04 0.04 0.06 0.07 0.08 0.08 0.09 0.07 0.06 0.05 0.01 0.02 0.02 0.01 0.03 0.10 0.31 0.24 0.33 0.32 0.20 0.11 0.06 0.01 0.02 0.04 0.05 0.16 0.30 0.31 0.42 0.26 0.23 0.24 0.18 0.06 0.01 0.01 0.00 0.01 0.00 0.01 0.02 0.02 0.03 0.05 0.00 0.00 0.00 0.00 0.00 0.00 0.00 0.05
0.03 0.04 0.07 0.07 0.07 0.07 0.09 0.06 0.05 0.04 0.02 0.02 0.01 0.02 0.03 0.05 0.25 0.32 0.29 0.25 0.19 0.14 0.08 0.02 0.01 0.01 0.02 0.11 0.29 0.33 0.34 0.22 0.14 0.10 0.04 0.03 0.02 0.01 0.00 0.00 0.00 0.00 0.00 0.01 0.00 0.00 0.00 0.00 0.00 0.00 0.00 0.00 0.00 0.00
0.03 0.06 0.06 0.07 0.07 0.07 0.07 0.05 0.06 0.04 0.02 0.01 0.01 0.02 0.02 0.04 0.13 0.28 0.25 0.15 0.13 0.12 0.04 0.02 0.01 0.01 0.00 0.04 0.25 0.42 0.27 0.27 0.19 0.07 0.08 0.04 0.05 0.02 0.01 0.00 0.00 0.00 0.00 0.00 0.00 0.00 0.00 0.00 0.00 0.00 0.00 0.00 0.00 0.00
0.05 0.06 0.07 0.06 0.06 0.05 0.06 0.07 0.03 0.02 0.01 0.01 0.02 0.02 0.02 0.07 0.12 0.15 0.18 0.08 0.13 0.10 0.02 0.04 0.00 0.01 0.02 0.04 0.26 0.48 0.47 0.39 0.38 0.22 0.15 0.14 0.04 0.02 0.01 0.00 0.00 0.00 0.00 0.00 0.00 0.00 0.00 0.00 0.00 0.00 0.00 0.00 0.00 0.00
0.06 0.06 0.06 0.05 0.04 0.04 0.07 0.04 0.02 0.02 0.01 0.02 0.03 0.03 0.03 0.06 0.17 0.08 0.06 0.03 0.04 0.19 0.19 0.07 0.00 0.00 0.00 0.01 0.20 0.50 0.66 0.63 0.58 0.46 0.22 0.10 0.03 0.01 0.00 0.00 0.00 0.00 0.00 0.00 0.00 0.00 0.00 0.00 0.00 0.00 0.00 0.00 0.00 0.00
0.05 0.05 0.04 0.04 0.05 0.06 0.05 0.02 0.01 0.01 0.01 0.02 0.04 0.06 0.04 0.09 0.22 0.22 0.17 0.11 0.11 0.13 0.23 0.09 0.03 0.00 0.00 0.01 0.08 0.36 0.49 0.52 0.46 0.42 0.24 0.08 0.03 0.05 0.03 0.00 0.00 0.00 0.00 0.00 0.00 0.00 0.00 0.00 0.00 0.00 0.00 0.00 0.00 0.00
0.05 0.04 0.04 0.04 0.04 0.04 0.02 0.01 0.00 0.01 0.02 0.03 0.03 0.03 0.03 0.10 0.19 0.30 0.13 0.14 0.08 0.08 0.16 0.06 0.02 0.00 0.00 0.00 0.01 0.19 0.48 0.52 0.40 0.31 0.19 0.11 0.06 0.06 0.03 0.00 0.00 0.00 0.00 0.00 0.00 0.00 0.00 0.00 0.00 0.00 0.00 0.00 0.00 0.00
0.03 0.03 0.03 0.03 0.03 0.02 0.01 0.00 0.01 0.01 0.02 0.01 0.00 0.03 0.05 0.09 0.14 0.21 0.06 0.06 0.03 0.08 0.06 0.06 0.00 0.00 0.01 0.03 0.02 0.08 0.36 0.50 0.43 0.27 0.10 0.06 0.04 0.08 0.03 0.00 0.00 0.00 0.00 0.00 0.00 0.00 0.00 0.00 0.00 0.00 0.00 0.00 0.00 0.01
0.02 0.02 0.03 0.02 0.01 0.01 0.00 0.01 0.01 0.01 0.01 0.00 0.00 0.02 0.03 0.08 0.12 0.14 0.31 0.14 0.03 0.14 0.13 0.02 0.00 0.01 0.00 0.04 0.02 0.02 0.17 0.43 0.40 0.25 0.12 0.09 0.04 0.00 0.00 0.00 0.00 0.00 0.00 0.00 0.00 0.00 0.00 0.00 0.00 0.00 0.00 0.00 0.00 0.00
0.02 0.01 0.02 0.01 0.01 0.00 0.00 0.01 0.00 0.01 0.00 0.01 0.03 0.07 0.12 0.13 0.27 0.44 0.78 0.39 0.25 0.13 0.08 0.04 0.01 0.01 0.00 0.01 0.02 0.01 0.01 0.14 0.22 0.20 0.17 0.09 0.04 0.01 0.00 0.00 0.00 0.00 0.00 0.00 0.00 0.00 0.00 0.00 0.00 0.00 0.00 0.00 0.00 0.00
0.02 0.01 0.01 0.01 0.01 0.00 0.00 0.00 0.00 0.01 0.01 0.04 0.19 0.23 0.32 0.50 0.64 0.59 0.58 0.29 0.29 0.10 0.03 0.01 0.00 0.01 0.00 0.00 0.01 0.00 0.00 0.01 0.07 0.08 0.09 0.12 0.06 0.00 0.00 0.00 0.00 0.00 0.00 0.00 0.00 0.00 0.00 0.00 0.00 0.00 0.00 0.00 0.00 0.00
0.01 0.01 0.01 0.01 0.01 0.00 0.00 0.00 0.01 0.01 0.04 0.08 0.22 0.42 0.73 0.65 0.60 0.44 0.31 0.11 0.04 0.01 0.00 0.00 0.00 0.00 0.00 0.01 0.00 0.00 0.00 0.00 0.01 0.02 0.03 0.01 0.01 0.00 0.00 0.00 0.00 0.00 0.00 0.00 0.00 0.00 0.00 0.00 0.01 0.01 0.00 0.00 0.00 0.00
0.03 0.01 0.01 0.01 0.01 0.00 0.00 0.00 0.01 0.03 0.03 0.10 0.27 0.65 0.65 0.49 0.37 0.10 0.09 0.03 0.00 0.00 0.00 0.01 0.00 0.00 0.00 0.05 0.06 0.02 0.00 0.00 0.00 0.00 0.02 0.04 0.00 0.00 0.00 0.00 0.00 0.00 0.00 0.00 0.00 0.00 0.00 0.00 0.03 0.02 0.00 0.00 0.00 0.00
0.04 0.02 0.01 0.01 0.00 0.00 0.00 0.00 0.01 0.02 0.05 0.20 0.35 0.55 0.37 0.22 0.07 0.08 0.04 0.00 0.00 0.00 0.00 0.01 0.01 0.00 0.00 0.00 0.04 0.01 0.00 0.00 0.00 0.00 0.00 0.00 0.00 0.00 0.00 0.00 0.00 0.00 0.00 0.00 0.00 0.00 0.00 0.00 0.01 0.00 0.00 0.00 0.00 0.00
0.04 0.03 0.02 0.01 0.00 0.00 0.00 0.00 0.02 0.01 0.08 0.20 0.29 0.36 0.22 0.08 0.03 0.03 0.02 0.00 0.00 0.00 0.00 0.00 0.00 0.00 0.00 0.00 0.00 0.00 0.00 0.00 0.00 0.00 0.00 0.00 0.00 0.00 0.00 0.00 0.00 0.00 0.00 0.00 0.00 0.00 0.00 0.00 0.00 0.00 0.00 0.00 0.00 0.00
0.02 0.03 0.03 0.01 0.00 0.00 0.00 0.00 0.01 0.02 0.08 0.17 0.21 0.20 0.08 0.01 0.01 0.01 0.00 0.00 0.00 0.00 0.00 0.00 0.00 0.00 0.00 0.00 0.00 0.00 0.00 0.00 0.00 0.00 0.00 0.00 0.00 0.00 0.00 0.00 0.00 0.00 0.00 0.00 0.00 0.00 0.00 0.00 0.00 0.00 0.00 0.00 0.00 0.00
0.01 0.02 0.02 0.00 0.00 0.00 0.00 0.00 0.01 0.04 0.10 0.13 0.08 0.02 0.02 0.00 0.00 0.02 0.01 0.00 0.00 0.00 0.00 0.04 0.09 0.02 0.00 0.00 0.00 0.00 0.00 0.00 0.00 0.00 0.00 0.00 0.00 0.00 0.00 0.00 0.00 0.00 0.00 0.00 0.00 0.00 0.00 0.00 0.00 0.00 0.00 0.00 0.00 0.00
0.01 0.00 0.00 0.00 0.00 0.00 0.00 0.01 0.01 0.04 0.05 0.04 0.01 0.01 0.01 0.00 0.00 0.01 0.02 0.02 0.02 0.04 0.06 0.14 0.09 0.08 0.02 0.00 0.00 0.00 0.00 0.00 0.00 0.00 0.00 0.00 0.00 0.00 0.00 0.00 0.00 0.00 0.00 0.00 0.00 0.00 0.00 0.00 0.00 0.00 0.00 0.00 0.00 0.00
0.02 0.03 0.01 0.00 0.00 0.00 0.00 0.00 0.00 0.01 0.01 0.01 0.00 0.01 0.02 0.01 0.00 0.00 0.02 0.05 0.06 0.07 0.16 0.22 0.16 0.07 0.00 0.00 0.00 0.00 0.00 0.00 0.00 0.00 0.00 0.00 0.00 0.00 0.00 0.00 0.00 0.00 0.00 0.00 0.00 0.00 0.00 0.00 0.00 0.00 0.00 0.00 0.00 0.00
0.07 0.07 0.02 0.00 0.00 0.00 0.00 0.00 0.00 0.01 0.01 0.01 0.01 0.02 0.04 0.03 0.03 0.03 0.02 0.05 0.10 0.19 0.28 0.24 0.08 0.03 0.01 0.01 0.02 0.02 0.00 0.00 0.00 0.00 0.00 0.00 0.00 0.00 0.00 0.00 0.00 0.00 0.00 0.00 0.00 0.00 0.00 0.00 0.00 0.00 0.00 0.00 0.00 0.00
0.05 0.04 0.03 0.00 0.00 0.00 0.00 0.00 0.00 0.01 0.01 0.01 0.03 0.04 0.05 0.10 0.08 0.09 0.12 0.13 0.23 0.35 0.22 0.11 0.03 0.02 0.03 0.04 0.04 0.03 0.01 0.01 0.00 0.00 0.00 0.00 0.00 0.00 0.00 0.00 0.00 0.00 0.00 0.00 0.00 0.00 0.00 0.00 0.00 0.00 0.00 0.00 0.00 0.00
0.03 0.03 0.01 0.00 0.00 0.00 0.00 0.00 0.00 0.00 0.02 0.02 0.04 0.09 0.09 0.14 0.22 0.23 0.23 0.33 0.36 0.16 0.06 0.05 0.06 0.06 0.04 0.04 0.06 0.06 0.05 0.03 0.01 0.00 0.00 0.00 0.00 0.00 0.00 0.00 0.00 0.00 0.00 0.00 0.00 0.00 0.00 0.00 0.00 0.00 0.00 0.00 0.00 0.00
0.02 0.00 0.00 0.00 0.00 0.00 0.00 0.00 0.00 0.00 0.01 0.02 0.03 0.08 0.13 0.14 0.20 0.33 0.40 0.31 0.20 0.11 0.09 0.07 0.06 0.10 0.12 0.08 0.06 0.04 0.05 0.06 0.04 0.02 0.01 0.00 0.00 0.00 0.00 0.00 0.00 0.00 0.00 0.00 0.00 0.00 0.00 0.00 0.00 0.00 0.00 0.00 0.00 0.00
0.02 0.03 0.02 0.03 0.02 0.00 0.00 0.00 0.00 0.00 0.00 0.00 0.02 0.05 0.09 0.16 0.18 0.21 0.25 0.15 0.10 0.10 0.11 0.13 0.11 0.08 0.10 0.13 0.16 0.13 0.09 0.07 0.05 0.06 0.08 0.07 0.04 0.02 0.01 0.00 0.00 0.00 0.00 0.00 0.00 0.00 0.00 0.00 0.00 0.00 0.00 0.00 0.00 0.00
0.12 0.08 0.04 0.03 0.00 0.00 0.00 0.00 0.00 0.00 0.00 0.00 0.01 0.03 0.06 0.11 0.17 0.15 0.08 0.06 0.11 0.14 0.13 0.14 0.14 0.13 0.12 0.11 0.11 0.13 0.16 0.16 0.13 0.09 0.10 0.13 0.10 0.09 0.09 0.06 0.02 0.00 0.00 0.00 0.00 0.00 0.00 0.00 0.00 0.00 0.00 0.00 0.00 0.02
0.08 0.03 0.02 0.00 0.00 0.00 0.00 0.00 0.00 0.00 0.00 0.01 0.01 0.01 0.04 0.07 0.07 0.09 0.05 0.05 0.07 0.11 0.15 0.16 0.16 0.16 0.15 0.16 0.17 0.20 0.20 0.20 0.17 0.15 0.20 0.26 0.20 0.14 0.10 0.09 0.09 0.07 0.04 0.03 0.04 0.03 0.03 0.03 0.03 0.03 0.02 0.02 0.04 0.12
0.03 0.02 0.01 0.00 0.00 0.00 0.00 0.00 0.00 0.00 0.00 0.00 0.00 0.01 0.02 0.03 0.04 0.03 0.02 0.03 0.05 0.07 0.11 0.16 0.20 0.19 0.19 0.21 0.22 0.24 0.28 0.31 0.27 0.20 0.24 0.32 0.33 0.28 0.20 0.13 0.08 0.06 0.10 0.15 0.13 0.11 0.10 0.10 0.10 0.11 0.14 0.15 0.14 0.14
0.00 0.00 0.00 0.00 0.00 0.00 0.00 0.00 0.00 0.00 0.00 0.00 0.00 0.01 0.01 0.03 0.02 0.01 0.02 0.03 0.05 0.06 0.10 0.15 0.20 0.22 0.23 0.23 0.26 0.30 0.33 0.38 0.39 0.33 0.31 0.35 0.39 0.40 0.38 0.31 0.29 0.29 0.27 0.24 0.25 0.25 0.24 0.21 0.21 0.21 0.22 0.21 0.17 0.16
0.00 0.00 0.00 0.00 0.00 0.00 0.00 0.00 0.00 0.00 0.00 0.00 0.00 0.00 0.00 0.00 0.00 0.00 0.01 0.04 0.06 0.09 0.11 0.15 0.19 0.21 0.23 0.26 0.28 0.32 0.35 0.36 0.31 0.27 0.19 0.19 0.25 0.33 0.42 0.44 0.46 0.48 0.42 0.35 0.35 0.31 0.26 0.24 0.25 0.25 0.25 0.24 0.20 0.18
0.00 0.00 0.00 0.00 0.00 0.00 0.00 0.00 0.00 0.00 0.00 0.00 0.00 0.00 0.00 0.00 0.00 0.00 0.01 0.03 0.06 0.09 0.13 0.17 0.20 0.23 0.26 0.28 0.31 0.34 0.38 0.40 0.40 0.30 0.23 0.21 0.23 0.31 0.40 0.44 0.46 0.47 0.47 0.42 0.41 0.45 0.44 0.42 0.39 0.36 0.29 0.27 0.24 0.20
0.01 0.00 0.00 0.00 0.00 0.00 0.01 0.01 0.01 0.00 0.00 0.00 0.00 0.00 0.00 0.00 0.00 0.00 0.01 0.03 0.05 0.09 0.13 0.16 0.20 0.26 0.30 0.34 0.37 0.38 0.38 0.40 0.42 0.43 0.39 0.38 0.39 0.40 0.43 0.46 0.46 0.46 0.47 0.45 0.40 0.35 0.31 0.26 0.19 0.17 0.20 0.20 0.17 0.12
0.02 0.01 0.00 0.00 0.00 0.01 0.01 0.01 0.01 0.00 0.01 0.00 0.00 0.01 0.00 0.01 0.00 0.01 0.01 0.03 0.05 0.08 0.14 0.17 0.19 0.22 0.26 0.30 0.33 0.37 0.39 0.37 0.37 0.39 0.39 0.36 0.35 0.37 0.40 0.41 0.44 0.43 0.44 0.46 0.42 0.38 0.34 0.32 0.35 0.33 0.30 0.29 0.24 0.19
0.02 0.02 0.01 0.00 0.00 0.01 0.01 0.01 0.01 0.00 0.00 0.00 0.00 0.01 0.01 0.01 0.01 0.01 0.02 0.03 0.05 0.09 0.13 0.16 0.20 0.23 0.26 0.28 0.31 0.32 0.36 0.41 0.44 0.47 0.50 0.48 0.42 0.38 0.36 0.36 0.37 0.38 0.38 0.39 0.41 0.43 0.46 0.44 0.39 0.36 0.34 0.31 0.27 0.23

GFSWCAN_prec_precacc24_048.txt.gz
Total_Precipitation_Accumulation
0.02 0.02 0.04 0.05 0.06 0.06 0.07 0.07 0.06 0.05 0.01 0.01 0.01 0.00 0.01 0.03 0.08 0.08 0.24 0.30 0.19 0.10 0.05 0.02 0.02 0.04 0.04 0.09 0.18 0.21 0.31 0.21 0.21 0.21 0.15 0.04 0.01 0.01 0.00 0.01 0.00 0.01 0.01 0.02 0.04 0.06 0.00 0.00 0.00 0.00 0.00 0.00 0.00 0.05
0.02 0.03 0.05 0.05 0.05 0.05 0.06 0.06 0.05 0.04 0.03 0.02 0.00 0.01 0.01 0.02 0.10 0.12 0.23 0.23 0.16 0.14 0.08 0.02 0.01 0.01 0.02 0.09 0.20 0.25 0.26 0.21 0.13 0.09 0.04 0.02 0.02 0.01 0.00 0.01 0.00 0.00 0.00 0.01 0.00 0.00 0.00 0.00 0.00 0.00 0.00 0.00 0.00 0.00
0.02 0.04 0.04 0.05 0.04 0.05 0.05 0.06 0.06 0.04 0.02 0.02 0.01 0.01 0.02 0.03 0.06 0.12 0.17 0.16 0.13 0.14 0.07 0.03 0.02 0.02 0.00 0.03 0.20 0.34 0.21 0.18 0.16 0.06 0.08 0.04 0.04 0.02 0.01 0.00 0.00 0.00 0.00 0.00 0.00 0.00 0.00 0.00 0.00 0.00 0.00 0.00 0.00 0.00
0.04 0.04 0.04 0.04 0.03 0.03 0.06 0.07 0.03 0.03 0.02 0.02 0.02 0.02 0.02 0.02 0.02 0.05 0.15 0.09 0.16 0.14 0.06 0.06 0.01 0.01 0.02 0.04 0.25 0.42 0.38 0.27 0.28 0.18 0.14 0.13 0.04 0.02 0.01 0.00 0.00 0.00 0.00 0.00 0.00 0.00 0.00 0.00 0.00 0.00 0.00 0.00 0.00 0.00
0.06 0.05 0.04 0.04 0.03 0.03 0.06 0.05 0.03 0.02 0.02 0.03 0.03 0.03 0.05 0.04 0.03 0.02 0.05 0.03 0.06 0.18 0.16 0.11 0.01 0.00 0.00 0.01 0.19 0.47 0.59 0.54 0.45 0.42 0.22 0.10 0.03 0.01 0.00 0.00 0.00 0.00 0.00 0.00 0.00 0.00 0.00 0.00 0.00 0.00 0.00 0.00 0.00 0.00
0.06 0.05 0.04 0.03 0.03 0.05 0.04 0.02 0.01 0.02 0.02 0.03 0.04 0.08 0.06 0.04 0.06 0.07 0.15 0.12 0.11 0.11 0.17 0.06 0.03 0.00 0.00 0.01 0.06 0.33 0.44 0.47 0.43 0.41 0.25 0.09 0.03 0.06 0.03 0.00 0.00 0.00 0.00 0.00 0.00 0.00 0.00 0.00 0.00 0.00 0.00 0.00 0.00 0.00
0.05 0.04 0.03 0.03 0.03 0.03 0.02 0.01 0.01 0.01 0.02 0.02 0.02 0.04 0.05 0.04 0.04 0.11 0.16 0.18 0.09 0.07 0.12 0.05 0.02 0.00 0.00 0.00 0.00 0.15 0.41 0.52 0.41 0.30 0.18 0.12 0.07 0.09 0.04 0.00 0.00 0.00 0.00 0.00 0.00 0.00 0.00 0.00 0.00 0.00 0.00 0.00 0.00 0.00
0.05 0.03 0.03 0.02 0.01 0.02 0.02 0.01 0.01 0.01 0.01 0.00 0.00 0.04 0.06 0.04 0.03 0.07 0.04 0.06 0.03 0.07 0.04 0.06 0.00 0.00 0.01 0.04 0.07 0.11 0.39 0.55 0.47 0.30 0.12 0.07 0.04 0.09 0.05 0.00 0.00 0.00 0.00 0.00 0.00 0.00 0.00 0.00 0.00 0.00 0.00 0.00 0.00 0.01
0.03 0.03 0.02 0.02 0.01 0.01 0.01 0.01 0.01 0.00 0.00 0.00 0.00 0.02 0.02 0.02 0.04 0.13 0.30 0.12 0.03 0.14 0.09 0.01 0.00 0.01 0.00 0.05 0.05 0.04 0.18 0.45 0.42 0.29 0.15 0.13 0.09 0.06 0.01 0.00 0.00 0.00 0.00 0.00 0.00 0.00 0.00 0.00 0.00 0.00 0.00 0.00 0.00 0.00
0.03 0.02 0.02 0.02 0.01 0.01 0.01 0.00 0.00 0.00 0.00 0.01 0.01 0.02 0.06 0.08 0.25 0.44 0.77 0.26 0.15 0.08 0.06 0.02 0.01 0.01 0.00 0.01 0.02 0.01 0.02 0.16 0.25 0.25 0.24 0.17 0.11 0.08 0.01 0.00 0.00 0.00 0.00 0.00 0.00 0.00 0.00 0.00 0.00 0.00 0.00 0.00 0.00 0.00
0.03 0.02 0.02 0.01 0.01 0.01 0.00 0.00 0.00 0.00 0.00 0.01 0.02 0.06 0.16 0.38 0.66 0.54 0.57 0.24 0.22 0.07 0.02 0.01 0.00 0.01 0.00 0.00 0.01 0.00 0.00 0.01 0.09 0.14 0.15 0.20 0.14 0.03 0.00 0.00 0.00 0.00 0.00 0.00 0.00 0.00 0.00 0.00 0.00 0.00 0.00 0.00 0.00 0.00
0.04 0.02 0.02 0.02 0.01 0.01 0.00 0.00 0.00 0.00 0.02 0.02 0.03 0.16 0.39 0.48 0.47 0.29 0.28 0.09 0.03 0.01 0.00 0.01 0.00 0.00 0.00 0.00 0.00 0.00 0.00 0.00 0.01 0.05 0.08 0.06 0.03 0.00 0.00 0.00 0.00 0.00 0.00 0.00 0.00 0.00 0.00 0.00 0.01 0.01 0.00 0.00 0.00 0.00
0.08 0.05 0.04 0.03 0.02 0.01 0.00 0.00 0.00 0.01 0.01 0.01 0.06 0.32 0.37 0.31 0.31 0.08 0.09 0.02 0.00 0.00 0.00 0.01 0.00 0.00 0.00 0.00 0.00 0.00 0.00 0.00 0.00 0.00 0.05 0.09 0.01 0.00 0.00 0.00 0.00 0.00 0.00 0.00 0.00 0.00 0.00 0.01 0.04 0.06 0.03 0.01 0.00 0.00
0.09 0.10 0.09 0.08 0.04 0.01 0.00 0.00 0.00 0.01 0.00 0.03 0.12 0.22 0.21 0.19 0.07 0.08 0.04 0.00 0.00 0.00 0.00 0.01 0.01 0.00 0.00 0.00 0.02 0.01 0.00 0.00 0.00 0.00 0.00 0.00 0.00 0.00 0.00 0.00 0.00 0.00 0.00 0.00 0.01 0.01 0.00 0.02 0.08 0.03 0.02 0.02 0.01 0.00
0.11 0.11 0.08 0.08 0.04 0.00 0.00 0.00 0.01 0.00 0.00 0.05 0.11 0.16 0.14 0.08 0.03 0.03 0.02 0.00 0.00 0.00 0.00 0.00 0.00 0.00 0.00 0.00 0.00 0.00 0.00 0.00 0.00 0.00 0.00 0.00 0.00 0.00 0.00 0.00 0.00 0.00 0.00 0.00 0.00 0.00 0.00 0.00 0.00 0.00 0.00 0.00 0.00 0.00
0.12 0.12 0.10 0.08 0.02 0.00 0.00 0.00 0.01 0.00 0.01 0.04 0.08 0.09 0.06 0.01 0.01 0.01 0.01 0.00 0.00 0.00 0.00 0.00 0.00 0.00 0.00 0.00 0.00 0.00 0.00 0.00 0.00 0.00 0.00 0.00 0.00 0.00 0.00 0.00 0.00 0.00 0.00 0.00 0.00 0.00 0.00 0.00 0.00 0.00 0.00 0.00 0.00 0.00
0.07 0.07 0.08 0.02 0.00 0.00 0.00 0.00 0.00 0.01 0.01 0.03 0.03 0.01 0.01 0.00 0.00 0.02 0.01 0.00 0.00 0.00 0.00 0.04 0.09 0.02 0.00 0.01 0.00 0.00 0.00 0.00 0.00 0.00 0.00 0.00 0.00 0.00 0.00 0.00 0.00 0.00 0.00 0.00 0.00 0.00 0.00 0.00 0.00 0.00 0.00 0.00 0.00 0.00
0.03 0.04 0.04 0.01 0.00 0.00 0.00 0.00 0.01 0.01 0.00 0.01 0.00 0.00 0.00 0.00 0.00 0.01 0.02 0.03 0.02 0.05 0.07 0.16 0.09 0.09 0.02 0.00 0.00 0.00 0.00 0.00 0.00 0.00 0.00 0.00 0.00 0.00 0.00 0.00 0.00 0.00 0.00 0.00 0.00 0.00 0.00 0.00 0.00 0.00 0.00 0.00 0.00 0.00
0.03 0.05 0.04 0.01 0.00 0.00 0.00 0.00 0.00 0.00 0.00 0.00 0.00 0.00 0.00 0.01 0.00 0.00 0.02 0.05 0.06 0.08 0.17 0.24 0.16 0.07 0.00 0.00 0.00 0.00 0.00 0.00 0.00 0.00 0.00 0.00 0.00 0.00 0.00 0.00 0.00 0.00 0.00 0.00 0.00 0.00 0.00 0.00 0.00 0.00 0.00 0.00 0.00 0.00
0.09 0.11 0.05 0.01 0.00 0.00 0.00 0.00 0.00 0.00 0.00 0.00 0.00 0.00 0.00 0.00 0.02 0.03 0.02 0.05 0.10 0.19 0.29 0.25 0.08 0.03 0.01 0.01 0.02 0.02 0.00 0.00 0.00 0.00 0.00 0.00 0.00 0.00 0.00 0.00 0.00 0.00 0.00 0.00 0.00 0.00 0.00 0.00 0.00 0.00 0.00 0.00 0.00 0.00
0.08 0.06 0.04 0.00 0.00 0.00 0.00 0.00 0.00 0.00 0.00 0.00 0.00 0.01 0.01 0.01 0.02 0.05 0.11 0.13 0.23 0.35 0.22 0.11 0.03 0.02 0.03 0.04 0.04 0.03 0.01 0.01 0.00 0.00 0.00 0.00 0.00 0.00 0.00 0.00 0.00 0.00 0.00 0.00 0.00 0.00 0.00 0.00 0.00 0.00 0.00 0.00 0.00 0.00
0.03 0.03 0.01 0.00 0.00 0.00 0.00 0.00 0.00 0.00 0.00 0.00 0.00 0.01 0.02 0.04 0.08 0.12 0.15 0.28 0.32 0.15 0.06 0.05 0.06 0.06 0.04 0.04 0.06 0.06 0.05 0.03 0.01 0.00 0.00 0.00 0.00 0.00 0.00 0.00 0.00 0.00 0.00 0.00 0.00 0.00 0.00 0.00 0.00 0.00 0.00 0.00 0.00 0.00
0.02 0.00 0.00 0.00 0.00 0.00 0.00 0.00 0.00 0.00 0.00 0.00 0.01 0.00 0.02 0.05 0.09 0.14 0.22 0.19 0.16 0.10 0.08 0.06 0.06 0.10 0.12 0.08 0.06 0.04 0.05 0.06 0.04 0.02 0.01 0.00 0.00 0.00 0.00 0.00 0.00 0.00 0.00 0.00 0.00 0.00 0.00 0.00 0.00 0.00 0.00 0.00 0.00 0.00
0.03 0.04 0.03 0.03 0.02 0.01 0.00 0.00 0.00 0.00 0.00 0.00 0.00 0.00 0.01 0.04 0.07 0.11 0.15 0.09 0.07 0.07 0.08 0.09 0.08 0.07 0.09 0.13 0.16 0.13 0.09 0.07 0.05 0.06 0.08 0.07 0.04 0.02 0.01 0.00 0.00 0.00 0.00 0.00 0.00 0.00 0.00 0.00 0.00 0.00 0.00 0.00 0.00 0.00
0.16 0.10 0.04 0.03 0.00 0.00 0.00 0.00 0.00 0.00 0.00 0.00 0.00 0.00 0.01 0.03 0.06 0.06 0.04 0.04 0.09 0.11 0.11 0.10 0.11 0.11 0.10 0.10 0.11 0.13 0.16 0.16 0.13 0.09 0.09 0.12 0.10 0.09 0.09 0.06 0.02 0.00 0.00 0.00 0.00 0.00 0.00 0.00 0.00 0.00 0.00 0.00 0.00 0.02
0.11 0.03 0.02 0.00 0.00 0.00 0.00 0.00 0.00 0.00 0.00 0.00 0.00 0.00 0.00 0.02 0.02 0.03 0.02 0.03 0.06 0.10 0.13 0.13 0.13 0.12 0.12 0.14 0.14 0.16 0.17 0.16 0.14 0.11 0.16 0.23 0.18 0.14 0.10 0.09 0.09 0.07 0.04 0.03 0.04 0.03 0.04 0.04 0.03 0.03 0.03 0.03 0.06 0.15
0.05 0.02 0.01 0.00 0.00 0.00 0.00 0.00 0.00 0.00 0.00 0.00 0.00 0.00 0.00 0.01 0.01 0.01 0.01 0.01 0.03 0.05 0.08 0.11 0.14 0.14 0.13 0.15 0.16 0.18 0.20 0.22 0.19 0.15 0.21 0.31 0.33 0.28 0.20 0.13 0.08 0.06 0.10 0.15 0.13 0.11 0.10 0.11 0.11 0.12 0.15 0.17 0.17 0.17
0.01 0.00 0.00 0.00 0.00 0.00 0.00 0.00 0.00 0.00 0.00 0.00 0.00 0.00 0.00 0.01 0.00 0.00 0.00 0.00 0.01 0.01 0.04 0.07 0.10 0.13 0.13 0.13 0.16 0.21 0.25 0.29 0.33 0.31 0.31 0.35 0.39 0.40 0.38 0.31 0.29 0.29 0.27 0.24 0.26 0.26 0.24 0.22 0.22 0.22 0.24 0.23 0.20 0.20
0.00 0.00 0.00 0.00 0.00 0.00 0.00 0.00 0.00 0.00 0.00 0.00 0.00 0.00 0.00 0.00 0.00 0.00 0.00 0.00 0.01 0.01 0.02 0.05 0.08 0.11 0.13 0.15 0.16 0.20 0.27 0.31 0.29 0.24 0.18 0.18 0.24 0.32 0.42 0.44 0.46 0.48 0.43 0.36 0.35 0.31 0.27 0.25 0.26 0.26 0.26 0.27 0.25 0.25
0.00 0.00 0.00 0.00 0.00 0.00 0.00 0.00 0.00 0.00 0.00 0.00 0.00 0.00 0.00 0.00 0.00 0.00 0.00 0.00 0.01 0.02 0.03 0.06 0.08 0.12 0.14 0.16 0.19 0.23 0.26 0.30 0.31 0.25 0.19 0.18 0.21 0.30 0.40 0.44 0.46 0.47 0.47 0.43 0.41 0.45 0.44 0.43 0.42 0.40 0.35 0.32 0.30 0.28
0.00 0.00 0.00 0.00 0.00 0.00 0.00 0.01 0.01 0.00 0.00 0.00 0.00 0.00 0.00 0.00 0.00 0.00 0.00 0.00 0.01 0.03 0.05 0.07 0.09 0.12 0.16 0.19 0.24 0.28 0.30 0.33 0.37 0.40 0.37 0.37 0.39 0.40 0.43 0.46 0.46 0.46 0.47 0.45 0.41 0.35 0.32 0.28 0.22 0.19 0.22 0.24 0.24 0.22
0.02 0.01 0.00 0.00 0.00 0.01 0.01 0.00 0.00 0.00 0.00 0.00 0.00 0.00 0.00 0.00 0.00 0.00 0.00 0.01 0.01 0.03 0.06 0.08 0.10 0.13 0.16 0.20 0.24 0.30 0.34 0.35 0.36 0.39 0.39 0.36 0.35 0.38 0.40 0.42 0.44 0.43 0.45 0.46 0.43 0.39 0.36 0.34 0.36 0.36 0.33 0.34 0.32 0.28
0.02 0.02 0.01 0.00 0.00 0.00 0.01 0.01 0.00 0.00 0.00 0.00 0.00 0.00 0.00 0.00 0.00 0.00 0.00 0.01 0.02 0.04 0.07 0.10 0.12 0.15 0.18 0.22 0.26 0.30 0.35 0.40 0.44 0.47 0.50 0.49 0.43 0.39 0.38 0.37 0.38 0.40 0.39 0.40 0.43 0.45 0.48 0.46 0.43 0.41 0.38 0.37 0.36 0.34

GFSWCAN_prec_precacc24_051.txt.gz
Total_Precipitation_Accumulation
0.01 0.01 0.03 0.04 0.04 0.04 0.03 0.04 0.05 0.04 0.01 0.02 0.01 0.00 0.00 0.01 0.04 0.03 0.10 0.21 0.16 0.08 0.05 0.02 0.02 0.03 0.02 0.06 0.12 0.14 0.18 0.18 0.20 0.15 0.08 0.03 0.01 0.01 0.00 0.01 0.00 0.01 0.02 0.03 0.05 0.06 0.00 0.00 0.00 0.00 0.00 0.00 0.00 0.05
0.02 0.02 0.03 0.03 0.03 0.04 0.03 0.04 0.05 0.04 0.03 0.02 0.00 0.00 0.00 0.02 0.04 0.02 0.09 0.14 0.16 0.12 0.08 0.02 0.00 0.00 0.01 0.07 0.15 0.19 0.20 0.19 0.12 0.08 0.03 0.02 0.02 0.01 0.00 0.01 0.00 0.00 0.00 0.01 0.00 0.00 0.00 0.00 0.00 0.00 0.00 0.00 0.00 0.00
0.02 0.02 0.02 0.03 0.02 0.03 0.02 0.04 0.06 0.04 0.02 0.02 0.01 0.01 0.01 0.03 0.02 0.03 0.05 0.11 0.11 0.12 0.07 0.03 0.02 0.02 0.00 0.02 0.14 0.25 0.18 0.16 0.15 0.05 0.08 0.04 0.04 0.02 0.01 0.00 0.00 0.00 0.00 0.00 0.00 0.00 0.00 0.00 0.00 0.00 0.00 0.00 0.00 0.00
0.03 0.03 0.03 0.03 0.02 0.03 0.03 0.04 0.04 0.04 0.03 0.02 0.02 0.02 0.02 0.02 0.01 0.01 0.03 0.07 0.17 0.16 0.09 0.09 0.02 0.02 0.03 0.03 0.18 0.33 0.26 0.17 0.18 0.15 0.11 0.12 0.05 0.02 0.01 0.00 0.00 0.00 0.00 0.00 0.00 0.00 0.00 0.00 0.00 0.00 0.00 0.00 0.00 0.00
0.06 0.05 0.04 0.03 0.02 0.02 0.04 0.03 0.03 0.03 0.03 0.03 0.04 0.03 0.05 0.06 0.05 0.02 0.00 0.01 0.10 0.28 0.17 0.18 0.03 0.00 0.01 0.01 0.17 0.41 0.49 0.41 0.26 0.28 0.16 0.09 0.03 0.01 0.00 0.00 0.00 0.00 0.00 0.00 0.00 0.00 0.00 0.00 0.00 0.00 0.00 0.00 0.00 0.00
0.07 0.05 0.04 0.04 0.02 0.02 0.02 0.02 0.02 0.02 0.03 0.04 0.04 0.07 0.07 0.08 0.08 0.01 0.09 0.13 0.17 0.19 0.19 0.14 0.04 0.00 0.00 0.01 0.06 0.30 0.40 0.41 0.33 0.29 0.21 0.09 0.03 0.06 0.04 0.01 0.00 0.00 0.00 0.00 0.00 0.00 0.00 0.00 0.00 0.00 0.00 0.00 0.00 0.00
0.06 0.04 0.03 0.03 0.02 0.01 0.02 0.02 0.02 0.02 0.02 0.02 0.02 0.04 0.08 0.06 0.03 0.02 0.18 0.33 0.21 0.10 0.11 0.08 0.03 0.01 0.00 0.00 0.00 0.13 0.38 0.47 0.37 0.30 0.16 0.12 0.08 0.11 0.06 0.00 0.00 0.00 0.00 0.00 0.00 0.00 0.00 0.00 0.00 0.00 0.00 0.00 0.00 0.00
0.08 0.05 0.03 0.02 0.01 0.02 0.02 0.02 0.02 0.01 0.01 0.00 0.00 0.04 0.06 0.04 0.01 0.02 0.04 0.08 0.08 0.10 0.04 0.05 0.01 0.02 0.01 0.04 0.09 0.12 0.40 0.57 0.50 0.34 0.14 0.06 0.05 0.11 0.08 0.01 0.00 0.00 0.00 0.00 0.00 0.00 0.00 0.00 0.00 0.00 0.00 0.00 0.00 0.01
0.07 0.04 0.02 0.02 0.01 0.01 0.02 0.02 0.01 0.00 0.00 0.00 0.00 0.02 0.02 0.02 0.03 0.10 0.21 0.13 0.07 0.18 0.10 0.01 0.00 0.01 0.01 0.06 0.08 0.07 0.19 0.46 0.45 0.34 0.22 0.21 0.14 0.10 0.02 0.00 0.00 0.00 0.00 0.00 0.00 0.00 0.00 0.00 0.00 0.00 0.00 0.00 0.00 0.00
0.04 0.02 0.02 0.02 0.01 0.01 0.02 0.01 0.00 0.00 0.00 0.00 0.00 0.03 0.06 0.09 0.24 0.39 0.50 0.19 0.12 0.09 0.07 0.03 0.01 0.01 0.00 0.01 0.02 0.02 0.04 0.24 0.30 0.30 0.31 0.23 0.16 0.12 0.02 0.00 0.00 0.00 0.00 0.00 0.00 0.00 0.00 0.00 0.00 0.00 0.00 0.00 0.00 0.00
0.04 0.02 0.02 0.02 0.01 0.02 0.02 0.00 0.00 0.00 0.00 0.00 0.01 0.02 0.09 0.23 0.53 0.40 0.47 0.20 0.14 0.03 0.02 0.01 0.00 0.01 0.00 0.00 0.01 0.00 0.01 0.02 0.10 0.17 0.19 0.24 0.18 0.05 0.00 0.00 0.00 0.00 0.00 0.00 0.00 0.00 0.00 0.00 0.00 0.00 0.00 0.00 0.00 0.00
0.05 0.02 0.02 0.02 0.02 0.03 0.02 0.00 0.00 0.00 0.00 0.01 0.01 0.05 0.18 0.32 0.40 0.18 0.23 0.09 0.03 0.01 0.00 0.01 0.00 0.00 0.00 0.00 0.00 0.00 0.00 0.00 0.01 0.06 0.15 0.10 0.04 0.00 0.00 0.00 0.00 0.00 0.00 0.00 0.00 0.00 0.00 0.00 0.01 0.01 0.00 0.00 0.00 0.00
0.09 0.05 0.04 0.06 0.04 0.03 0.02 0.00 0.00 0.00 0.00 0.00 0.00 0.13 0.14 0.16 0.22 0.05 0.08 0.02 0.00 0.00 0.00 0.01 0.00 0.00 0.00 0.00 0.00 0.00 0.00 0.00 0.00 0.01 0.06 0.11 0.01 0.00 0.00 0.00 0.00 0.00 0.03 0.01 0.01 0.00 0.00 0.01 0.04 0.06 0.03 0.01 0.00 0.00
0.10 0.11 0.12 0.13 0.10 0.03 0.02 0.00 0.00 0.01 0.00 0.00 0.02 0.07 0.08 0.10 0.06 0.08 0.04 0.00 0.00 0.00 0.00 0.01 0.01 0.00 0.00 0.00 0.00 0.00 0.00 0.00 0.00 0.00 0.00 0.00 0.00 0.00 0.00 0.00 0.00 0.00 0.00 0.01 0.05 0.04 0.02 0.04 0.12 0.09 0.08 0.07 0.03 0.01
0.12 0.14 0.15 0.13 0.11 0.05 0.01 0.00 0.01 0.00 0.00 0.00 0.02 0.04 0.05 0.05 0.03 0.03 0.02 0.00 0.00 0.00 0.00 0.00 0.00 0.00 0.00 0.00 0.00 0.00 0.00 0.00 0.00 0.00 0.00 0.00 0.00 0.00 0.00 0.00 0.00 0.00 0.00 0.00 0.00 0.01 0.01 0.01 0.01 0.01 0.01 0.01 0.01 0.01
0.16 0.18 0.17 0.15 0.08 0.04 0.01 0.00 0.00 0.00 0.00 0.00 0.01 0.02 0.03 0.00 0.00 0.01 0.00 0.00 0.00 0.00 0.00 0.00 0.00 0.00 0.00 0.00 0.01 0.00 0.00 0.00 0.00 0.00 0.00 0.00 0.00 0.00 0.00 0.00 0.00 0.00 0.00 0.00 0.00 0.00 0.00 0.00 0.00 0.01 0.02 0.02 0.02 0.02
0.12 0.11 0.15 0.11 0.04 0.03 0.02 0.01 0.01 0.00 0.00 0.01 0.01 0.00 0.01 0.00 0.00 0.01 0.01 0.00 0.00 0.00 0.00 0.05 0.09 0.02 0.01 0.01 0.00 0.00 0.00 0.00 0.00 0.00 0.00 0.00 0.00 0.00 0.00 0.00 0.00 0.00 0.00 0.00 0.00 0.00 0.00 0.00 0.00 0.00 0.00 0.00 0.00 0.01
0.06 0.07 0.11 0.08 0.05 0.01 0.00 0.01 0.01 0.01 0.00 0.00 0.00 0.00 0.00 0.00 0.00 0.01 0.02 0.03 0.03 0.05 0.08 0.18 0.10 0.09 0.02 0.00 0.00 0.00 0.00 0.00 0.00 0.00 0.00 0.00 0.00 0.00 0.00 0.00 0.00 0.00 0.00 0.00 0.00 0.00 0.00 0.00 0.00 0.00 0.00 0.00 0.00 0.00
0.06 0.10 0.09 0.07 0.03 0.01 0.00 0.00 0.00 0.00 0.00 0.00 0.00 0.00 0.00 0.00 0.00 0.00 0.02 0.05 0.06 0.08 0.18 0.25 0.17 0.07 0.00 0.00 0.00 0.00 0.00 0.00 0.00 0.00 0.00 0.00 0.00 0.00 0.00 0.00 0.00 0.00 0.00 0.00 0.00 0.00 0.00 0.00 0.00 0.00 0.00 0.00 0.00 0.00
0.12 0.16 0.11 0.04 0.01 0.00 0.01 0.00 0.00 0.00 0.00 0.00 0.00 0.00 0.00 0.00 0.00 0.00 0.01 0.05 0.10 0.20 0.29 0.25 0.08 0.03 0.01 0.01 0.02 0.02 0.00 0.00 0.00 0.00 0.00 0.00 0.00 0.00 0.00 0.00 0.00 0.00 0.00 0.00 0.00 0.00 0.00 0.00 0.00 0.00 0.00 0.00 0.00 0.00
0.09 0.08 0.07 0.01 0.00 0.00 0.00 0.00 0.00 0.00 0.00 0.00 0.00 0.01 0.01 0.00 0.00 0.00 0.03 0.09 0.20 0.31 0.20 0.11 0.03 0.02 0.03 0.04 0.04 0.03 0.01 0.01 0.00 0.00 0.00 0.00 0.00 0.00 0.00 0.00 0.00 0.00 0.00 0.00 0.00 0.00 0.00 0.00 0.00 0.00 0.00 0.00 0.00 0.00
0.04 0.04 0.01 0.00 0.00 0.00 0.00 0.00 0.00 0.00 0.00 0.00 0.00 0.01 0.01 0.01 0.01 0.02 0.04 0.13 0.20 0.11 0.04 0.04 0.06 0.06 0.04 0.04 0.06 0.06 0.05 0.03 0.01 0.00 0.00 0.00 0.00 0.00 0.00 0.00 0.00 0.00 0.00 0.00 0.00 0.00 0.00 0.00 0.00 0.00 0.00 0.00 0.00 0.00
0.03 0.00 0.00 0.00 0.00 0.00 0.00 0.00 0.00 0.00 0.00 0.00 0.01 0.00 0.00 0.01 0.01 0.02 0.06 0.06 0.06 0.06 0.06 0.05 0.05 0.10 0.12 0.08 0.06 0.04 0.05 0.06 0.04 0.02 0.01 0.00 0.00 0.00 0.00 0.00 0.00 0.00 0.00 0.00 0.00 0.00 0.00 0.00 0.00 0.00 0.00 0.00 0.00 0.00
0.04 0.05 0.03 0.03 0.02 0.01 0.00 0.00 0.00 0.00 0.00 0.00 0.00 0.00 0.00 0.00 0.01 0.02 0.03 0.02 0.03 0.05 0.05 0.06 0.06 0.06 0.09 0.13 0.16 0.13 0.09 0.07 0.05 0.06 0.08 0.07 0.04 0.02 0.01 0.00 0.00 0.00 0.00 0.00 0.00 0.00 0.00 0.00 0.00 0.00 0.00 0.00 0.00 0.00
0.21 0.11 0.04 0.03 0.01 0.00 0.00 0.00 0.00 0.00 0.00 0.00 0.00 0.00 0.00 0.00 0.01 0.01 0.01 0.01 0.03 0.05 0.05 0.06 0.06 0.07 0.08 0.09 0.10 0.13 0.16 0.16 0.13 0.09 0.09 0.12 0.10 0.09 0.09 0.06 0.02 0.00 0.00 0.00 0.00 0.00 0.00 0.00 0.00 0.00 0.00 0.00 0.00 0.03
0.15 0.03 0.02 0.00 0.00 0.00 0.00 0.00 0.00 0.00 0.00 0.00 0.00 0.00 0.00 0.01 0.01 0.01 0.00 0.00 0.02 0.03 0.04 0.04 0.05 0.06 0.06 0.09 0.11 0.14 0.16 0.16 0.14 0.10 0.11 0.18 0.16 0.13 0.10 0.09 0.09 0.07 0.04 0.03 0.04 0.03 0.04 0.04 0.03 0.03 0.03 0.03 0.07 0.17
0.07 0.02 0.01 0.00 0.00 0.00 0.00 0.00 0.00 0.00 0.00 0.00 0.00 0.00 0.00 0.00 0.00 0.00 0.00 0.00 0.00 0.01 0.03 0.04 0.05 0.06 0.07 0.08 0.11 0.13 0.16 0.19 0.17 0.11 0.13 0.19 0.22 0.22 0.18 0.12 0.08 0.06 0.10 0.15 0.13 0.11 0.10 0.11 0.11 0.12 0.15 0.17 0.17 0.18
0.01 0.00 0.00 0.00 0.00 0.00 0.00 0.00 0.00 0.00 0.00 0.00 0.00 0.00 0.00 0.00 0.00 0.00 0.00 0.00 0.00 0.00 0.01 0.03 0.05 0.07 0.08 0.08 0.10 0.14 0.16 0.19 0.20 0.19 0.20 0.24 0.30 0.36 0.36 0.31 0.29 0.29 0.27 0.24 0.26 0.27 0.25 0.23 0.22 0.22 0.24 0.23 0.20 0.21
0.01 0.00 0.00 0.00 0.00 0.00 0.00 0.00 0.00 0.00 0.00 0.00 0.00 0.00 0.00 0.00 0.00 0.00 0.00 0.00 0.00 0.00 0.00 0.02 0.03 0.05 0.07 0.08 0.10 0.12 0.16 0.20 0.21 0.18 0.14 0.14 0.21 0.31 0.40 0.43 0.45 0.47 0.42 0.36 0.35 0.32 0.27 0.25 0.26 0.27 0.27 0.27 0.26 0.26
0.00 0.00 0.00 0.00 0.00 0.00 0.00 0.00 0.00 0.00 0.00 0.00 0.00 0.00 0.00 0.00 0.00 0.00 0.00 0.00 0.00 0.00 0.00 0.01 0.03 0.05 0.06 0.08 0.10 0.12 0.14 0.16 0.19 0.19 0.16 0.14 0.17 0.24 0.33 0.38 0.43 0.47 0.47 0.43 0.41 0.45 0.44 0.43 0.42 0.41 0.36 0.34 0.32 0.30
0.00 0.00 0.00 0.00 0.00 0.00 0.00 0.00 0.00 0.00 0.00 0.00 0.00 0.00 0.00 0.00 0.00 0.00 0.00 0.00 0.00 0.01 0.01 0.01 0.02 0.03 0.05 0.08 0.12 0.15 0.16 0.18 0.21 0.24 0.25 0.27 0.30 0.33 0.38 0.44 0.46 0.46 0.47 0.46 0.41 0.36 0.32 0.28 0.23 0.20 0.23 0.25 0.25 0.24
0.01 0.00 0.00 0.00 0.00 0.00 0.00 0.00 0.00 0.00 0.00 0.00 0.00 0.00 0.00 0.00 0.00 0.00 0.00 0.00 0.00 0.01 0.02 0.02 0.03 0.04 0.06 0.09 0.13 0.18 0.22 0.24 0.26 0.29 0.30 0.30 0.31 0.36 0.40 0.42 0.45 0.44 0.46 0.47 0.43 0.39 0.36 0.35 0.37 0.36 0.34 0.36 0.35 0.31
0.02 0.02 0.01 0.00 0.00 0.00 0.01 0.01 0.00 0.00 0.00 0.00 0.00 0.00 0.00 0.00 0.00 0.00 0.00 0.00 0.00 0.01 0.03 0.04 0.06 0.07 0.10 0.13 0.17 0.21 0.27 0.33 0.38 0.42 0.47 0.47 0.43 0.40 0.39 0.39 0.40 0.41 0.40 0.41 0.43 0.46 0.49 0.47 0.44 0.42 0.40 0.39 0.38 0.36

GFSWCAN_prec_precacc24_054.txt.gz
Total_Precipitation_Accumulation
0.01 0.01 0.02 0.02 0.02 0.02 0.02 0.02 0.03 0.04 0.02 0.02 0.01 0.00 0.00 0.00 0.02 0.01 0.06 0.16 0.12 0.07 0.05 0.02 0.02 0.03 0.01 0.02 0.04 0.07 0.09 0.09 0.16 0.13 0.05 0.02 0.01 0.01 0.00 0.01 0.00 0.02 0.02 0.03 0.05 0.06 0.00 0.00 0.00 0.00 0.00 0.00 0.00 0.05
0.02 0.02 0.02 0.02 0.02 0.02 0.02 0.03 0.03 0.04 0.03 0.02 0.00 0.01 0.00 0.01 0.03 0.01 0.07 0.06 0.09 0.07 0.06 0.02 0.00 0.00 0.00 0.01 0.06 0.12 0.13 0.14 0.11 0.07 0.02 0.02 0.02 0.01 0.00 0.01 0.00 0.00 0.00 0.01 0.00 0.00 0.00 0.00 0.00 0.00 0.00 0.00 0.00 0.00
0.02 0.02 0.02 0.02 0.02 0.02 0.02 0.03 0.04 0.03 0.03 0.02 0.01 0.01 0.01 0.02 0.03 0.01 0.03 0.06 0.07 0.11 0.07 0.03 0.02 0.01 0.00 0.00 0.05 0.13 0.13 0.13 0.12 0.04 0.08 0.04 0.04 0.02 0.01 0.00 0.00 0.00 0.00 0.00 0.00 0.00 0.00 0.00 0.00 0.00 0.00 0.00 0.00 0.00
0.02 0.03 0.02 0.02 0.01 0.01 0.02 0.02 0.03 0.03 0.03 0.02 0.02 0.02 0.02 0.02 0.04 0.04 0.01 0.04 0.11 0.20 0.13 0.10 0.02 0.05 0.03 0.03 0.09 0.17 0.18 0.12 0.13 0.12 0.10 0.12 0.05 0.02 0.01 0.00 0.00 0.00 0.00 0.00 0.00 0.00 0.00 0.00 0.00 0.00 0.00 0.00 0.00 0.00
0.06 0.06 0.04 0.03 0.02 0.02 0.02 0.02 0.03 0.03 0.04 0.04 0.04 0.04 0.05 0.06 0.07 0.06 0.02 0.01 0.10 0.32 0.23 0.24 0.06 0.01 0.01 0.01 0.10 0.28 0.38 0.32 0.17 0.19 0.14 0.08 0.03 0.00 0.00 0.00 0.00 0.00 0.00 0.00 0.00 0.00 0.00 0.00 0.00 0.00 0.00 0.00 0.00 0.00
0.07 0.06 0.06 0.05 0.02 0.02 0.02 0.02 0.02 0.03 0.04 0.04 0.05 0.08 0.07 0.10 0.12 0.02 0.08 0.12 0.17 0.27 0.33 0.34 0.12 0.02 0.01 0.01 0.05 0.24 0.31 0.33 0.25 0.22 0.18 0.09 0.03 0.07 0.05 0.01 0.00 0.00 0.00 0.00 0.00 0.00 0.00 0.00 0.00 0.00 0.00 0.00 0.00 0.00
0.07 0.05 0.04 0.03 0.02 0.02 0.02 0.02 0.02 0.03 0.02 0.02 0.03 0.05 0.09 0.09 0.04 0.01 0.18 0.38 0.27 0.20 0.25 0.28 0.10 0.05 0.00 0.00 0.00 0.11 0.34 0.42 0.31 0.26 0.13 0.10 0.08 0.14 0.10 0.01 0.00 0.00 0.00 0.00 0.00 0.00 0.00 0.00 0.00 0.00 0.00 0.00 0.00 0.00
0.10 0.07 0.04 0.02 0.02 0.02 0.02 0.02 0.02 0.01 0.01 0.00 0.00 0.05 0.07 0.05 0.01 0.02 0.05 0.15 0.18 0.20 0.13 0.08 0.01 0.03 0.01 0.04 0.09 0.11 0.40 0.53 0.46 0.34 0.16 0.07 0.06 0.15 0.11 0.01 0.00 0.00 0.00 0.00 0.00 0.00 0.00 0.00 0.00 0.00 0.00 0.00 0.00 0.01
0.10 0.07 0.04 0.03 0.02 0.01 0.02 0.02 0.01 0.00 0.00 0.00 0.00 0.02 0.02 0.02 0.04 0.11 0.24 0.22 0.15 0.24 0.13 0.02 0.00 0.02 0.02 0.06 0.09 0.10 0.21 0.45 0.43 0.37 0.24 0.26 0.17 0.11 0.02 0.00 0.00 0.00 0.00 0.00 0.00 0.00 0.00 0.00 0.00 0.00 0.00 0.00 0.00 0.00
0.08 0.04 0.03 0.02 0.01 0.01 0.02 0.01 0.01 0.00 0.00 0.00 0.00 0.04 0.07 0.10 0.24 0.36 0.44 0.20 0.15 0.12 0.08 0.03 0.01 0.03 0.03 0.03 0.04 0.04 0.08 0.30 0.35 0.32 0.37 0.29 0.18 0.12 0.02 0.00 0.00 0.00 0.00 0.00 0.00 0.00 0.00 0.00 0.00 0.00 0.00 0.00 0.00 0.00
0.05 0.03 0.02 0.02 0.01 0.02 0.03 0.02 0.00 0.00 0.00 0.00 0.00 0.02 0.08 0.22 0.41 0.33 0.29 0.10 0.10 0.03 0.02 0.02 0.00 0.01 0.00 0.00 0.01 0.01 0.02 0.04 0.11 0.19 0.24 0.27 0.19 0.06 0.00 0.00 0.00 0.00 0.00 0.00 0.00 0.00 0.00 0.00 0.00 0.00 0.00 0.00 0.00 0.00
0.06 0.02 0.02 0.02 0.02 0.04 0.04 0.01 0.00 0.00 0.00 0.00 0.00 0.03 0.11 0.25 0.29 0.14 0.15 0.07 0.03 0.01 0.00 0.01 0.00 0.00 0.00 0.00 0.00 0.00 0.00 0.00 0.02 0.07 0.16 0.10 0.04 0.00 0.00 0.00 0.00 0.00 0.00 0.00 0.00 0.00 0.00 0.00 0.01 0.01 0.00 0.00 0.00 0.00
0.10 0.05 0.05 0.06 0.04 0.04 0.04 0.02 0.00 0.00 0.00 0.00 0.00 0.07 0.06 0.14 0.20 0.05 0.07 0.02 0.00 0.00 0.00 0.01 0.01 0.00 0.00 0.00 0.00 0.00 0.00 0.00 0.00 0.02 0.06 0.11 0.01 0.00 0.00 0.00 0.00 0.00 0.12 0.11 0.04 0.01 0.00 0.01 0.04 0.06 0.03 0.01 0.00 0.00
0.10 0.12 0.13 0.14 0.13 0.06 0.04 0.01 0.00 0.00 0.00 0.00 0.02 0.06 0.04 0.07 0.05 0.07 0.04 0.00 0.00 0.00 0.00 0.01 0.01 0.00 0.00 0.00 0.00 0.00 0.00 0.00 0.00 0.00 0.00 0.00 0.00 0.00 0.00 0.00 0.00 0.00 0.01 0.02 0.09 0.09 0.06 0.07 0.16 0.11 0.09 0.08 0.04 0.02
0.13 0.15 0.16 0.15 0.16 0.12 0.03 0.00 0.00 0.00 0.00 0.00 0.01 0.01 0.02 0.02 0.01 0.02 0.02 0.00 0.00 0.00 0.00 0.00 0.00 0.00 0.00 0.01 0.00 0.00 0.00 0.00 0.00 0.00 0.00 0.00 0.00 0.00 0.00 0.00 0.00 0.00 0.00 0.00 0.00 0.02 0.03 0.06 0.10 0.09 0.04 0.05 0.05 0.05
0.18 0.20 0.20 0.18 0.12 0.08 0.04 0.01 0.01 0.00 0.00 0.00 0.00 0.00 0.00 0.00 0.00 0.00 0.00 0.00 0.00 0.00 0.00 0.00 0.01 0.00 0.00 0.00 0.01 0.00 0.00 0.00 0.00 0.00 0.00 0.00 0.00 0.00 0.00 0.00 0.00 0.00 0.00 0.00 0.00 0.00 0.00 0.00 0.00 0.02 0.06 0.08 0.09 0.08
0.15 0.12 0.18 0.14 0.08 0.07 0.04 0.03 0.02 0.00 0.00 0.00 0.00 0.00 0.00 0.00 0.00 0.00 0.00 0.00 0.00 0.02 0.01 0.05 0.09 0.03 0.01 0.02 0.01 0.00 0.00 0.00 0.00 0.00 0.00 0.00 0.00 0.00 0.00 0.00 0.00 0.00 0.00 0.00 0.00 0.00 0.00 0.00 0.00 0.00 0.00 0.00 0.00 0.01
0.06 0.09 0.16 0.13 0.09 0.03 0.02 0.02 0.03 0.02 0.00 0.00 0.00 0.00 0.00 0.00 0.00 0.00 0.00 0.02 0.03 0.07 0.09 0.21 0.10 0.09 0.03 0.01 0.00 0.00 0.00 0.00 0.00 0.00 0.00 0.00 0.00 0.00 0.00 0.00 0.00 0.00 0.00 0.00 0.00 0.00 0.00 0.00 0.00 0.00 0.00 0.00 0.00 0.00
0.07 0.12 0.13 0.11 0.05 0.03 0.04 0.02 0.00 0.00 0.00 0.00 0.00 0.00 0.00 0.00 0.00 0.00 0.00 0.01 0.05 0.09 0.17 0.26 0.18 0.07 0.00 0.00 0.00 0.00 0.00 0.00 0.00 0.00 0.00 0.00 0.00 0.00 0.00 0.00 0.00 0.00 0.00 0.00 0.00 0.00 0.00 0.00 0.00 0.00 0.00 0.00 0.00 0.00
0.15 0.21 0.17 0.08 0.01 0.02 0.04 0.03 0.01 0.02 0.01 0.00 0.00 0.00 0.00 0.00 0.00 0.00 0.00 0.00 0.04 0.15 0.20 0.18 0.07 0.03 0.01 0.01 0.02 0.02 0.00 0.00 0.00 0.00 0.00 0.00 0.00 0.00 0.00 0.00 0.00 0.00 0.00 0.00 0.00 0.00 0.00 0.00 0.00 0.00 0.00 0.00 0.00 0.00
0.12 0.14 0.11 0.02 0.00 0.00 0.01 0.01 0.01 0.01 0.02 0.02 0.02 0.02 0.01 0.01 0.00 0.00 0.01 0.01 0.05 0.11 0.10 0.06 0.03 0.02 0.03 0.04 0.04 0.03 0.01 0.01 0.00 0.00 0.00 0.00 0.00 0.00 0.00 0.00 0.00 0.00 0.00 0.00 0.00 0.00 0.00 0.00 0.00 0.00 0.00 0.00 0.00 0.00
0.04 0.05 0.02 0.00 0.00 0.00 0.00 0.00 0.00 0.01 0.00 0.01 0.02 0.03 0.02 0.01 0.01 0.01 0.01 0.02 0.04 0.02 0.01 0.01 0.03 0.04 0.03 0.04 0.06 0.06 0.05 0.03 0.01 0.00 0.00 0.00 0.00 0.00 0.00 0.00 0.00 0.00 0.00 0.00 0.00 0.00 0.00 0.00 0.00 0.00 0.00 0.00 0.00 0.00
0.03 0.00 0.00 0.00 0.00 0.00 0.00 0.00 0.00 0.00 0.00 0.00 0.01 0.00 0.00 0.01 0.01 0.01 0.02 0.01 0.00 0.01 0.02 0.02 0.03 0.06 0.09 0.07 0.06 0.04 0.05 0.06 0.04 0.02 0.01 0.00 0.00 0.00 0.00 0.00 0.00 0.00 0.00 0.00 0.00 0.00 0.00 0.00 0.00 0.00 0.00 0.00 0.00 0.00
0.04 0.05 0.03 0.03 0.02 0.01 0.00 0.00 0.00 0.00 0.00 0.00 0.00 0.00 0.00 0.00 0.01 0.01 0.01 0.00 0.00 0.01 0.02 0.03 0.03 0.03 0.06 0.10 0.13 0.11 0.09 0.07 0.05 0.06 0.08 0.07 0.04 0.02 0.01 0.00 0.00 0.00 0.00 0.00 0.00 0.00 0.00 0.00 0.00 0.00 0.00 0.00 0.00 0.00
0.21 0.11 0.04 0.03 0.01 0.00 0.00 0.00 0.00 0.00 0.00 0.00 0.00 0.00 0.00 0.00 0.00 0.01 0.00 0.00 0.00 0.00 0.00 0.02 0.02 0.03 0.03 0.04 0.07 0.10 0.15 0.16 0.13 0.09 0.09 0.12 0.10 0.09 0.09 0.06 0.02 0.00 0.00 0.00 0.00 0.00 0.00 0.00 0.00 0.00 0.00 0.00 0.01 0.03
0.17 0.03 0.02 0.00 0.00 0.00 0.00 0.00 0.00 0.00 0.00 0.00 0.00 0.00 0.00 0.00 0.00 0.00 0.00 0.00 0.00 0.00 0.00 0.00 0.01 0.02 0.01 0.02 0.03 0.06 0.09 0.13 0.13 0.10 0.11 0.18 0.16 0.13 0.10 0.09 0.09 0.07 0.04 0.03 0.04 0.03 0.04 0.04 0.03 0.04 0.03 0.03 0.07 0.17
0.07 0.02 0.01 0.00 0.00 0.00 0.00 0.00 0.00 0.00 0.00 0.00 0.00 0.00 0.00 0.00 0.00 0.00 0.00 0.00 0.00 0.00 0.00 0.00 0.01 0.01 0.01 0.01 0.02 0.03 0.07 0.13 0.14 0.10 0.12 0.17 0.18 0.17 0.15 0.12 0.08 0.06 0.09 0.15 0.13 0.11 0.10 0.11 0.11 0.12 0.15 0.17 0.17 0.18
0.02 0.00 0.00 0.00 0.00 0.00 0.00 0.00 0.00 0.00 0.00 0.00 0.00 0.00 0.00 0.00 0.00 0.00 0.00 0.00 0.00 0.00 0.00 0.00 0.00 0.01 0.02 0.01 0.02 0.04 0.07 0.11 0.14 0.14 0.14 0.15 0.16 0.19 0.22 0.23 0.24 0.26 0.26 0.24 0.26 0.27 0.25 0.23 0.22 0.23 0.24 0.23 0.20 0.21
0.01 0.00 0.00 0.00 0.00 0.00 0.00 0.00 0.00 0.00 0.00 0.00 0.00 0.00 0.00 0.00 0.00 0.00 0.00 0.00 0.00 0.00 0.00 0.00 0.00 0.00 0.01 0.02 0.03 0.04 0.07 0.11 0.14 0.13 0.10 0.09 0.13 0.19 0.27 0.34 0.41 0.45 0.40 0.34 0.34 0.31 0.27 0.26 0.27 0.28 0.28 0.28 0.26 0.26
0.00 0.00 0.00 0.00 0.00 0.00 0.00 0.00 0.00 0.00 0.00 0.00 0.00 0.00 0.00 0.00 0.00 0.00 0.00 0.00 0.00 0.00 0.00 0.00 0.00 0.01 0.01 0.03 0.04 0.06 0.08 0.10 0.13 0.14 0.12 0.11 0.13 0.20 0.28 0.33 0.37 0.39 0.41 0.40 0.40 0.44 0.44 0.43 0.43 0.41 0.37 0.34 0.32 0.30
0.00 0.00 0.00 0.00 0.00 0.00 0.00 0.00 0.00 0.00 0.00 0.00 0.00 0.00 0.00 0.00 0.00 0.00 0.00 0.00 0.00 0.00 0.00 0.00 0.00 0.00 0.01 0.02 0.05 0.08 0.10 0.11 0.13 0.14 0.15 0.19 0.23 0.25 0.28 0.32 0.35 0.38 0.44 0.44 0.41 0.36 0.32 0.29 0.23 0.20 0.23 0.25 0.25 0.24
0.01 0.00 0.00 0.00 0.00 0.00 0.00 0.00 0.00 0.00 0.00 0.00 0.00 0.00 0.00 0.00 0.00 0.00 0.00 0.00 0.00 0.00 0.00 0.00 0.01 0.01 0.01 0.03 0.05 0.09 0.14 0.16 0.16 0.17 0.19 0.20 0.21 0.25 0.30 0.35 0.40 0.42 0.46 0.47 0.44 0.40 0.37 0.35 0.37 0.37 0.35 0.36 0.35 0.31
0.02 0.02 0.01 0.01 0.00 0.00 0.00 0.00 0.00 0.00 0.00 0.00 0.00 0.00 0.00 0.00 0.00 0.00 0.00 0.00 0.00 0.00 0.00 0.01 0.02 0.03 0.04 0.06 0.08 0.11 0.14 0.19 0.24 0.28 0.32 0.34 0.33 0.34 0.36 0.39 0.40 0.41 0.41 0.42 0.44 0.47 0.49 0.48 0.44 0.42 0.41 0.40 0.39 0.37

GFSWCAN_prec_precacc24_057.txt.gz
Total_Precipitation_Accumulation
0.02 0.01 0.01 0.02 0.02 0.02 0.02 0.02 0.02 0.02 0.01 0.02 0.01 0.00 0.00 0.00 0.01 0.00 0.02 0.10 0.08 0.07 0.05 0.02 0.02 0.03 0.01 0.02 0.02 0.01 0.03 0.02 0.08 0.09 0.04 0.01 0.01 0.01 0.00 0.01 0.00 0.02 0.02 0.03 0.05 0.07 0.00 0.00 0.00 0.00 0.00 0.00 0.00 0.05
0.02 0.01 0.01 0.02 0.02 0.01 0.02 0.02 0.02 0.02 0.02 0.02 0.01 0.01 0.01 0.01 0.01 0.00 0.02 0.05 0.08 0.07 0.06 0.02 0.00 0.00 0.00 0.01 0.01 0.01 0.04 0.03 0.05 0.05 0.02 0.02 0.02 0.01 0.00 0.01 0.00 0.00 0.00 0.01 0.00 0.00 0.00 0.00 0.00 0.00 0.00 0.00 0.00 0.00
0.04 0.03 0.02 0.02 0.02 0.02 0.01 0.02 0.02 0.03 0.02 0.02 0.02 0.02 0.02 0.02 0.02 0.01 0.01 0.04 0.06 0.09 0.07 0.03 0.02 0.01 0.00 0.00 0.00 0.02 0.05 0.06 0.07 0.03 0.07 0.04 0.04 0.02 0.01 0.00 0.00 0.00 0.00 0.00 0.00 0.00 0.00 0.00 0.00 0.00 0.00 0.00 0.00 0.00
0.06 0.05 0.03 0.02 0.02 0.01 0.01 0.02 0.02 0.03 0.03 0.03 0.04 0.03 0.02 0.02 0.04 0.05 0.01 0.02 0.09 0.20 0.14 0.10 0.03 0.05 0.03 0.01 0.04 0.06 0.06 0.08 0.08 0.06 0.08 0.12 0.05 0.02 0.01 0.00 0.00 0.00 0.00 0.00 0.00 0.00 0.00 0.00 0.00 0.00 0.00 0.00 0.00 0.00
0.06 0.06 0.05 0.05 0.03 0.03 0.02 0.02 0.03 0.04 0.04 0.04 0.05 0.03 0.05 0.06 0.08 0.08 0.02 0.01 0.08 0.29 0.23 0.25 0.10 0.01 0.03 0.04 0.10 0.17 0.24 0.25 0.14 0.15 0.10 0.07 0.03 0.00 0.00 0.00 0.00 0.00 0.00 0.00 0.00 0.00 0.00 0.00 0.00 0.00 0.00 0.00 0.00 0.00
0.11 0.10 0.10 0.08 0.04 0.02 0.02 0.02 0.03 0.03 0.04 0.05 0.05 0.08 0.07 0.11 0.15 0.02 0.06 0.10 0.15 0.25 0.35 0.45 0.28 0.06 0.04 0.07 0.06 0.18 0.23 0.24 0.19 0.19 0.15 0.08 0.02 0.07 0.07 0.01 0.00 0.00 0.00 0.00 0.00 0.00 0.00 0.00 0.00 0.00 0.00 0.00 0.00 0.00
0.09 0.07 0.07 0.05 0.02 0.02 0.03 0.02 0.02 0.03 0.03 0.03 0.03 0.05 0.09 0.11 0.05 0.01 0.17 0.37 0.26 0.20 0.36 0.51 0.35 0.13 0.04 0.03 0.01 0.09 0.28 0.36 0.26 0.22 0.10 0.08 0.08 0.14 0.13 0.01 0.00 0.00 0.00 0.00 0.00 0.00 0.00 0.00 0.00 0.00 0.00 0.00 0.00 0.00
0.16 0.14 0.11 0.06 0.03 0.03 0.03 0.02 0.02 0.02 0.01 0.00 0.00 0.05 0.09 0.06 0.01 0.01 0.04 0.15 0.21 0.26 0.31 0.31 0.26 0.14 0.08 0.09 0.11 0.12 0.39 0.50 0.42 0.30 0.15 0.07 0.08 0.18 0.14 0.01 0.00 0.00 0.00 0.00 0.00 0.00 0.00 0.00 0.00 0.00 0.00 0.00 0.00 0.01
0.14 0.11 0.08 0.05 0.04 0.03 0.02 0.02 0.01 0.01 0.00 0.00 0.00 0.02 0.03 0.02 0.03 0.09 0.19 0.22 0.24 0.34 0.22 0.09 0.05 0.12 0.04 0.08 0.09 0.10 0.21 0.44 0.40 0.35 0.24 0.31 0.22 0.13 0.03 0.00 0.00 0.00 0.00 0.00 0.00 0.00 0.00 0.00 0.00 0.00 0.00 0.00 0.00 0.00
0.18 0.12 0.08 0.06 0.04 0.02 0.02 0.01 0.01 0.00 0.00 0.00 0.00 0.04 0.08 0.13 0.24 0.34 0.36 0.23 0.17 0.17 0.11 0.06 0.01 0.07 0.06 0.05 0.07 0.09 0.13 0.32 0.37 0.34 0.40 0.32 0.18 0.12 0.02 0.00 0.00 0.00 0.00 0.00 0.00 0.00 0.00 0.00 0.00 0.00 0.00 0.00 0.00 0.00
0.25 0.18 0.11 0.07 0.04 0.03 0.03 0.02 0.00 0.00 0.00 0.00 0.00 0.03 0.10 0.25 0.35 0.31 0.21 0.09 0.06 0.03 0.03 0.02 0.00 0.02 0.02 0.03 0.09 0.02 0.04 0.08 0.12 0.20 0.28 0.27 0.19 0.06 0.00 0.00 0.00 0.00 0.00 0.00 0.00 0.00 0.00 0.00 0.00 0.00 0.00 0.00 0.00 0.00
0.23 0.16 0.09 0.06 0.03 0.04 0.05 0.02 0.00 0.00 0.00 0.00 0.00 0.03 0.12 0.24 0.24 0.13 0.13 0.04 0.03 0.01 0.00 0.02 0.00 0.00 0.00 0.00 0.00 0.00 0.00 0.00 0.02 0.07 0.17 0.11 0.04 0.00 0.00 0.00 0.00 0.00 0.00 0.00 0.00 0.00 0.00 0.00 0.01 0.01 0.00 0.00 0.00 0.00
0.25 0.16 0.10 0.07 0.04 0.04 0.05 0.03 0.00 0.00 0.00 0.00 0.00 0.08 0.07 0.09 0.13 0.05 0.06 0.02 0.01 0.00 0.00 0.01 0.01 0.00 0.00 0.00 0.00 0.00 0.01 0.01 0.00 0.02 0.06 0.11 0.01 0.00 0.00 0.00 0.00 0.00 0.14 0.20 0.13 0.04 0.01 0.01 0.04 0.06 0.03 0.01 0.00 0.00
0.24 0.21 0.17 0.15 0.13 0.06 0.04 0.03 0.00 0.00 0.00 0.00 0.02 0.08 0.04 0.07 0.02 0.03 0.02 0.00 0.00 0.00 0.00 0.02 0.07 0.01 0.00 0.00 0.00 0.00 0.00 0.00 0.01 0.00 0.00 0.00 0.00 0.00 0.00 0.00 0.00 0.00 0.02 0.02 0.10 0.10 0.10 0.12 0.20 0.14 0.10 0.08 0.04 0.02
0.23 0.21 0.18 0.16 0.17 0.14 0.04 0.01 0.00 0.00 0.00 0.00 0.01 0.02 0.02 0.00 0.00 0.00 0.00 0.00 0.00 0.00 0.00 0.01 0.03 0.00 0.00 0.01 0.00 0.00 0.00 0.00 0.00 0.00 0.00 0.00 0.00 0.00 0.00 0.00 0.00 0.00 0.00 0.00 0.00 0.02 0.03 0.07 0.13 0.14 0.07 0.07 0.06 0.07
0.25 0.25 0.23 0.21 0.14 0.10 0.06 0.01 0.01 0.00 0.00 0.00 0.00 0.00 0.00 0.00 0.00 0.00 0.00 0.00 0.00 0.00 0.01 0.01 0.01 0.01 0.00 0.00 0.02 0.00 0.00 0.00 0.00 0.00 0.00 0.00 0.00 0.00 0.00 0.00 0.00 0.00 0.00 0.00 0.00 0.00 0.00 0.00 0.00 0.02 0.07 0.09 0.11 0.14
0.18 0.13 0.21 0.18 0.10 0.11 0.07 0.03 0.02 0.00 0.00 0.00 0.00 0.00 0.00 0.00 0.00 0.00 0.00 0.00 0.00 0.04 0.05 0.05 0.10 0.03 0.01 0.02 0.01 0.00 0.00 0.00 0.00 0.00 0.00 0.00 0.00 0.00 0.00 0.00 0.00 0.00 0.00 0.00 0.00 0.00 0.00 0.00 0.00 0.00 0.00 0.00 0.00 0.01
0.06 0.10 0.19 0.16 0.11 0.05 0.07 0.02 0.03 0.02 0.00 0.00 0.00 0.00 0.00 0.00 0.00 0.00 0.00 0.00 0.01 0.05 0.11 0.22 0.11 0.09 0.03 0.01 0.00 0.00 0.00 0.00 0.00 0.00 0.00 0.00 0.00 0.00 0.00 0.00 0.00 0.00 0.00 0.00 0.00 0.00 0.00 0.00 0.00 0.00 0.00 0.00 0.00 0.00
0.08 0.14 0.16 0.13 0.06 0.04 0.07 0.04 0.00 0.00 0.00 0.00 0.00 0.00 0.00 0.00 0.00 0.00 0.00 0.00 0.00 0.03 0.11 0.18 0.16 0.08 0.00 0.00 0.00 0.00 0.00 0.00 0.00 0.00 0.00 0.00 0.00 0.00 0.00 0.00 0.00 0.00 0.00 0.00 0.00 0.00 0.00 0.00 0.00 0.00 0.00 0.00 0.00 0.00
0.18 0.25 0.20 0.09 0.02 0.03 0.06 0.06 0.03 0.04 0.02 0.01 0.01 0.01 0.00 0.00 0.00 0.00 0.00 0.00 0.01 0.03 0.06 0.06 0.02 0.02 0.01 0.01 0.02 0.02 0.00 0.00 0.00 0.00 0.00 0.00 0.00 0.00 0.00 0.00 0.00 0.00 0.00 0.00 0.00 0.00 0.00 0.00 0.00 0.00 0.00 0.00 0.00 0.00
0.16 0.19 0.14 0.03 0.01 0.01 0.03 0.04 0.05 0.05 0.05 0.05 0.06 0.06 0.04 0.01 0.01 0.00 0.00 0.00 0.02 0.03 0.02 0.01 0.00 0.00 0.01 0.03 0.04 0.03 0.01 0.01 0.00 0.00 0.00 0.00 0.00 0.00 0.00 0.00 0.00 0.00 0.00 0.00 0.00 0.00 0.00 0.00 0.00 0.00 0.00 0.00 0.00 0.00
0.05 0.06 0.02 0.00 0.00 0.00 0.01 0.02 0.02 0.03 0.03 0.05 0.07 0.07 0.05 0.03 0.03 0.02 0.01 0.01 0.01 0.00 0.00 0.00 0.00 0.00 0.00 0.01 0.03 0.05 0.05 0.03 0.01 0.00 0.00 0.00 0.00 0.00 0.00 0.00 0.00 0.00 0.00 0.00 0.00 0.00 0.00 0.00 0.00 0.00 0.00 0.00 0.00 0.00
0.03 0.00 0.00 0.00 0.00 0.00 0.00 0.00 0.00 0.00 0.00 0.01 0.03 0.03 0.03 0.02 0.02 0.01 0.02 0.01 0.00 0.00 0.00 0.00 0.00 0.00 0.01 0.00 0.02 0.02 0.04 0.06 0.04 0.02 0.01 0.00 0.00 0.00 0.00 0.00 0.00 0.00 0.00 0.00 0.00 0.00 0.00 0.00 0.00 0.00 0.00 0.00 0.00 0.00
0.04 0.05 0.03 0.03 0.02 0.01 0.00 0.00 0.00 0.00 0.00 0.00 0.00 0.00 0.00 0.00 0.01 0.02 0.01 0.00 0.00 0.00 0.00 0.00 0.00 0.00 0.00 0.01 0.01 0.02 0.03 0.03 0.04 0.05 0.07 0.07 0.04 0.02 0.01 0.00 0.00 0.00 0.00 0.00 0.00 0.00 0.00 0.00 0.00 0.00 0.00 0.00 0.00 0.00
0.21 0.11 0.04 0.03 0.01 0.00 0.00 0.00 0.00 0.00 0.00 0.00 0.00 0.00 0.00 0.00 0.00 0.01 0.00 0.00 0.00 0.00 0.00 0.00 0.00 0.00 0.00 0.00 0.01 0.01 0.03 0.05 0.05 0.05 0.07 0.12 0.10 0.09 0.09 0.06 0.02 0.00 0.00 0.00 0.00 0.00 0.00 0.00 0.00 0.00 0.00 0.00 0.01 0.03
0.17 0.03 0.02 0.00 0.00 0.00 0.00 0.00 0.00 0.00 0.00 0.00 0.00 0.00 0.00 0.00 0.00 0.00 0.00 0.00 0.00 0.00 0.00 0.00 0.00 0.00 0.00 0.00 0.00 0.01 0.02 0.04 0.05 0.06 0.09 0.18 0.16 0.13 0.10 0.09 0.09 0.07 0.04 0.03 0.03 0.03 0.04 0.04 0.03 0.04 0.03 0.03 0.07 0.16
0.07 0.02 0.01 0.00 0.00 0.00 0.00 0.00 0.00 0.00 0.00 0.00 0.00 0.00 0.00 0.00 0.00 0.00 0.00 0.00 0.00 0.00 0.00 0.00 0.00 0.00 0.00 0.00 0.00 0.00 0.01 0.04 0.05 0.04 0.08 0.15 0.18 0.17 0.14 0.10 0.06 0.05 0.09 0.15 0.13 0.10 0.10 0.11 0.11 0.12 0.15 0.17 0.17 0.18
0.02 0.00 0.00 0.00 0.00 0.00 0.00 0.00 0.00 0.00 0.00 0.00 0.00 0.00 0.00 0.00 0.00 0.00 0.00 0.00 0.00 0.00 0.00 0.00 0.00 0.00 0.00 0.00 0.00 0.00 0.01 0.02 0.03 0.05 0.07 0.10 0.13 0.16 0.17 0.16 0.16 0.19 0.22 0.23 0.25 0.27 0.25 0.23 0.23 0.22 0.24 0.23 0.20 0.21
0.02 0.00 0.00 0.00 0.00 0.00 0.00 0.00 0.00 0.00 0.00 0.00 0.00 0.00 0.00 0.00 0.00 0.00 0.00 0.00 0.00 0.00 0.00 0.00 0.00 0.00 0.00 0.00 0.00 0.00 0.01 0.02 0.05 0.05 0.05 0.07 0.11 0.14 0.19 0.23 0.29 0.33 0.33 0.31 0.33 0.30 0.26 0.25 0.27 0.28 0.29 0.29 0.26 0.26
0.00 0.00 0.00 0.00 0.00 0.00 0.00 0.00 0.00 0.00 0.00 0.00 0.00 0.00 0.00 0.00 0.00 0.00 0.00 0.00 0.00 0.00 0.00 0.00 0.00 0.00 0.00 0.00 0.00 0.00 0.01 0.02 0.04 0.05 0.05 0.06 0.09 0.15 0.21 0.24 0.26 0.30 0.36 0.38 0.38 0.40 0.40 0.41 0.42 0.41 0.37 0.35 0.33 0.31
0.00 0.00 0.00 0.00 0.00 0.00 0.00 0.00 0.00 0.00 0.00 0.00 0.00 0.00 0.00 0.00 0.00 0.00 0.00 0.00 0.00 0.00 0.00 0.00 0.00 0.00 0.00 0.00 0.01 0.02 0.01 0.02 0.04 0.05 0.07 0.10 0.12 0.14 0.17 0.21 0.25 0.31 0.39 0.40 0.37 0.33 0.30 0.28 0.23 0.21 0.23 0.25 0.25 0.25
0.01 0.00 0.00 0.00 0.00 0.00 0.00 0.00 0.00 0.00 0.00 0.00 0.00 0.00 0.00 0.00 0.00 0.00 0.00 0.00 0.00 0.00 0.00 0.00 0.00 0.00 0.00 0.01 0.01 0.02 0.05 0.05 0.06 0.07 0.09 0.12 0.12 0.14 0.19 0.24 0.29 0.32 0.37 0.39 0.38 0.37 0.36 0.36 0.38 0.37 0.35 0.36 0.35 0.31
0.02 0.01 0.01 0.01 0.00 0.00 0.00 0.00 0.00 0.00 0.00 0.00 0.00 0.00 0.00 0.00 0.00 0.00 0.00 0.00 0.00 0.00 0.00 0.00 0.00 0.01 0.01 0.02 0.03 0.04 0.05 0.08 0.10 0.13 0.16 0.20 0.21 0.22 0.25 0.29 0.31 0.35 0.37 0.40 0.44 0.47 0.50 0.48 0.45 0.43 0.41 0.40 0.39 0.38

GFSWCAN_prec_precacc24_060.txt.gz
Total_Precipitation_Accumulation
0.04 0.05 0.03 0.02 0.02 0.01 0.01 0.01 0.01 0.01 0.01 0.01 0.01 0.01 0.00 0.00 0.00 0.00 0.01 0.04 0.04 0.06 0.05 0.02 0.02 0.03 0.01 0.02 0.01 0.00 0.00 0.01 0.04 0.04 0.02 0.01 0.00 0.00 0.00 0.01 0.00 0.02 0.02 0.03 0.05 0.06 0.00 0.00 0.00 0.00 0.00 0.00 0.00 0.03
0.05 0.02 0.01 0.02 0.02 0.02 0.02 0.02 0.01 0.01 0.02 0.01 0.01 0.01 0.01 0.01 0.01 0.00 0.01 0.02 0.05 0.07 0.06 0.02 0.00 0.00 0.00 0.01 0.01 0.00 0.00 0.00 0.00 0.02 0.01 0.02 0.01 0.01 0.00 0.01 0.00 0.00 0.00 0.01 0.00 0.00 0.00 0.00 0.00 0.00 0.00 0.00 0.00 0.00
0.06 0.06 0.04 0.03 0.03 0.03 0.02 0.02 0.02 0.02 0.02 0.02 0.02 0.03 0.03 0.02 0.02 0.02 0.00 0.03 0.06 0.09 0.07 0.03 0.02 0.01 0.00 0.00 0.00 0.00 0.00 0.01 0.01 0.01 0.06 0.03 0.03 0.02 0.01 0.00 0.00 0.00 0.00 0.00 0.00 0.00 0.00 0.00 0.00 0.00 0.00 0.00 0.00 0.00
0.08 0.07 0.05 0.04 0.02 0.02 0.02 0.03 0.03 0.03 0.03 0.04 0.04 0.04 0.03 0.02 0.04 0.06 0.01 0.02 0.08 0.18 0.14 0.10 0.03 0.05 0.03 0.01 0.01 0.01 0.02 0.05 0.05 0.03 0.07 0.10 0.04 0.02 0.01 0.00 0.00 0.00 0.00 0.00 0.00 0.00 0.00 0.00 0.00 0.00 0.00 0.00 0.00 0.00
0.08 0.07 0.07 0.06 0.04 0.03 0.03 0.03 0.04 0.04 0.04 0.05 0.05 0.05 0.05 0.07 0.09 0.09 0.02 0.01 0.07 0.25 0.21 0.25 0.10 0.01 0.04 0.03 0.05 0.11 0.14 0.16 0.12 0.11 0.07 0.06 0.03 0.00 0.00 0.00 0.00 0.00 0.00 0.00 0.00 0.00 0.00 0.00 0.00 0.00 0.00 0.00 0.00 0.00
0.12 0.11 0.11 0.09 0.06 0.04 0.04 0.04 0.03 0.03 0.04 0.05 0.06 0.09 0.07 0.11 0.16 0.02 0.05 0.08 0.09 0.20 0.33 0.45 0.28 0.08 0.05 0.11 0.05 0.14 0.17 0.20 0.18 0.19 0.14 0.07 0.02 0.07 0.07 0.01 0.00 0.00 0.00 0.00 0.00 0.00 0.00 0.00 0.00 0.00 0.00 0.00 0.00 0.00
0.11 0.10 0.09 0.08 0.04 0.04 0.04 0.04 0.03 0.03 0.03 0.03 0.03 0.04 0.09 0.12 0.05 0.01 0.15 0.34 0.24 0.19 0.36 0.61 0.49 0.18 0.10 0.38 0.12 0.15 0.24 0.29 0.24 0.22 0.10 0.07 0.07 0.15 0.14 0.01 0.00 0.00 0.00 0.00 0.00 0.00 0.00 0.00 0.00 0.00 0.00 0.00 0.00 0.00
0.17 0.17 0.14 0.09 0.06 0.05 0.06 0.04 0.02 0.02 0.01 0.01 0.01 0.04 0.09 0.07 0.01 0.01 0.04 0.13 0.21 0.26 0.34 0.44 0.48 0.25 0.27 0.49 0.22 0.18 0.39 0.44 0.37 0.28 0.14 0.07 0.08 0.18 0.15 0.01 0.00 0.00 0.00 0.00 0.00 0.00 0.00 0.00 0.00 0.00 0.00 0.00 0.00 0.01
0.17 0.15 0.11 0.08 0.08 0.07 0.05 0.03 0.01 0.01 0.00 0.00 0.00 0.03 0.03 0.02 0.03 0.06 0.17 0.21 0.24 0.33 0.29 0.26 0.24 0.23 0.16 0.20 0.14 0.12 0.21 0.37 0.37 0.34 0.22 0.30 0.23 0.14 0.03 0.00 0.00 0.00 0.00 0.00 0.00 0.00 0.00 0.00 0.00 0.00 0.00 0.00 0.00 0.00
0.20 0.16 0.14 0.13 0.11 0.09 0.07 0.02 0.01 0.00 0.00 0.00 0.00 0.04 0.09 0.13 0.20 0.31 0.35 0.29 0.22 0.20 0.16 0.12 0.13 0.19 0.13 0.10 0.08 0.10 0.15 0.31 0.35 0.32 0.40 0.35 0.19 0.12 0.02 0.00 0.00 0.00 0.00 0.00 0.00 0.00 0.00 0.00 0.00 0.00 0.00 0.00 0.00 0.00
0.32 0.27 0.22 0.21 0.20 0.13 0.08 0.04 0.01 0.00 0.00 0.00 0.00 0.03 0.12 0.26 0.33 0.33 0.23 0.12 0.09 0.07 0.05 0.03 0.02 0.05 0.04 0.05 0.13 0.07 0.14 0.11 0.14 0.20 0.29 0.28 0.19 0.06 0.00 0.00 0.00 0.00 0.00 0.00 0.00 0.00 0.00 0.00 0.00 0.00 0.00 0.00 0.00 0.00
0.28 0.27 0.29 0.26 0.22 0.14 0.08 0.03 0.01 0.00 0.00 0.00 0.00 0.03 0.13 0.24 0.26 0.19 0.15 0.04 0.04 0.01 0.00 0.02 0.00 0.00 0.01 0.02 0.04 0.01 0.00 0.00 0.02 0.08 0.18 0.11 0.04 0.00 0.00 0.00 0.00 0.00 0.00 0.00 0.00 0.00 0.00 0.00 0.01 0.01 0.00 0.00 0.00 0.00
0.35 0.27 0.28 0.29 0.19 0.11 0.08 0.04 0.00 0.00 0.00 0.00 0.01 0.13 0.12 0.14 0.15 0.08 0.08 0.02 0.01 0.00 0.00 0.01 0.01 0.00 0.01 0.00 0.00 0.00 0.00 0.01 0.01 0.03 0.07 0.11 0.01 0.00 0.00 0.00 0.00 0.00 0.15 0.21 0.15 0.05 0.02 0.01 0.05 0.07 0.03 0.01 0.00 0.00
0.50 0.48 0.36 0.29 0.18 0.08 0.06 0.05 0.00 0.00 0.00 0.00 0.03 0.12 0.07 0.10 0.01 0.01 0.00 0.00 0.00 0.00 0.00 0.02 0.09 0.01 0.00 0.00 0.00 0.00 0.00 0.01 0.01 0.01 0.00 0.00 0.00 0.00 0.00 0.00 0.00 0.00 0.02 0.03 0.10 0.10 0.10 0.14 0.23 0.17 0.11 0.08 0.04 0.02
0.51 0.53 0.42 0.26 0.19 0.15 0.07 0.05 0.00 0.00 0.00 0.00 0.01 0.02 0.03 0.00 0.00 0.00 0.00 0.00 0.00 0.00 0.00 0.00 0.10 0.01 0.00 0.01 0.01 0.01 0.01 0.01 0.00 0.00 0.00 0.00 0.00 0.00 0.00 0.00 0.00 0.00 0.00 0.00 0.00 0.02 0.03 0.07 0.13 0.15 0.08 0.09 0.09 0.08
0.56 0.49 0.36 0.25 0.17 0.15 0.11 0.03 0.00 0.00 0.00 0.00 0.01 0.01 0.01 0.01 0.00 0.00 0.00 0.01 0.00 0.00 0.01 0.01 0.02 0.00 0.00 0.00 0.02 0.00 0.00 0.00 0.00 0.00 0.00 0.00 0.00 0.00 0.00 0.00 0.00 0.00 0.00 0.00 0.00 0.00 0.00 0.00 0.00 0.02 0.07 0.09 0.11 0.15
0.31 0.21 0.27 0.24 0.18 0.18 0.11 0.03 0.02 0.00 0.00 0.00 0.00 0.00 0.00 0.00 0.00 0.00 0.00 0.00 0.00 0.04 0.07 0.04 0.05 0.02 0.01 0.03 0.01 0.00 0.00 0.00 0.00 0.00 0.00 0.00 0.00 0.00 0.00 0.00 0.00 0.00 0.00 0.00 0.00 0.00 0.00 0.00 0.00 0.00 0.00 0.00 0.00 0.01
0.11 0.16 0.25 0.20 0.14 0.08 0.10 0.02 0.03 0.02 0.00 0.00 0.00 0.00 0.00 0.00 0.00 0.00 0.01 0.01 0.01 0.05 0.11 0.18 0.05 0.05 0.02 0.01 0.00 0.00 0.00 0.00 0.00 0.00 0.00 0.00 0.00 0.00 0.00 0.00 0.00 0.00 0.00 0.00 0.00 0.00 0.00 0.00 0.00 0.00 0.00 0.00 0.00 0.00
0.11 0.17 0.18 0.13 0.06 0.05 0.09 0.05 0.00 0.00 0.00 0.00 0.00 0.00 0.00 0.00 0.00 0.00 0.00 0.00 0.01 0.04 0.11 0.15 0.09 0.04 0.00 0.00 0.00 0.00 0.00 0.00 0.00 0.00 0.00 0.00 0.00 0.00 0.00 0.00 0.00 0.00 0.00 0.00 0.00 0.00 0.00 0.00 0.00 0.00 0.00 0.00 0.00 0.00
0.21 0.28 0.22 0.10 0.02 0.04 0.07 0.06 0.04 0.05 0.02 0.01 0.01 0.01 0.00 0.00 0.00 0.00 0.00 0.00 0.00 0.02 0.05 0.04 0.01 0.00 0.00 0.00 0.01 0.01 0.00 0.00 0.00 0.00 0.00 0.00 0.00 0.00 0.00 0.00 0.00 0.00 0.00 0.00 0.00 0.00 0.00 0.00 0.00 0.00 0.00 0.00 0.00 0.00
0.21 0.23 0.16 0.04 0.02 0.02 0.04 0.05 0.07 0.06 0.06 0.06 0.08 0.08 0.05 0.02 0.01 0.00 0.00 0.00 0.01 0.01 0.01 0.00 0.00 0.00 0.00 0.00 0.00 0.00 0.00 0.00 0.00 0.00 0.00 0.00 0.00 0.00 0.00 0.00 0.00 0.00 0.00 0.00 0.00 0.00 0.00 0.00 0.00 0.00 0.00 0.00 0.00 0.00
0.05 0.08 0.03 0.01 0.00 0.00 0.01 0.03 0.03 0.05 0.06 0.08 0.10 0.09 0.07 0.05 0.04 0.03 0.02 0.02 0.01 0.00 0.00 0.00 0.00 0.00 0.00 0.00 0.00 0.00 0.00 0.00 0.00 0.00 0.00 0.00 0.00 0.00 0.00 0.00 0.00 0.00 0.00 0.00 0.00 0.00 0.00 0.00 0.00 0.00 0.00 0.00 0.00 0.00
0.03 0.00 0.00 0.00 0.00 0.00 0.00 0.00 0.00 0.00 0.01 0.03 0.05 0.06 0.07 0.06 0.04 0.03 0.03 0.01 0.00 0.00 0.00 0.00 0.00 0.00 0.00 0.00 0.00 0.00 0.00 0.00 0.00 0.00 0.00 0.00 0.00 0.00 0.00 0.00 0.00 0.00 0.00 0.00 0.00 0.00 0.00 0.00 0.00 0.00 0.00 0.00 0.00 0.00
0.04 0.05 0.03 0.03 0.02 0.01 0.00 0.00 0.00 0.00 0.00 0.00 0.00 0.00 0.01 0.02 0.02 0.02 0.01 0.00 0.00 0.00 0.00 0.00 0.00 0.00 0.00 0.00 0.00 0.00 0.00 0.00 0.00 0.00 0.00 0.02 0.02 0.02 0.01 0.00 0.00 0.00 0.00 0.00 0.00 0.00 0.00 0.00 0.00 0.00 0.00 0.00 0.00 0.00
0.21 0.11 0.04 0.03 0.01 0.00 0.00 0.00 0.00 0.00 0.00 0.00 0.00 0.00 0.00 0.00 0.00 0.00 0.00 0.00 0.00 0.00 0.00 0.00 0.00 0.00 0.00 0.00 0.00 0.00 0.00 0.00 0.00 0.00 0.00 0.02 0.03 0.06 0.08 0.06 0.02 0.00 0.00 0.00 0.00 0.00 0.00 0.00 0.00 0.00 0.00 0.00 0.01 0.03
0.17 0.04 0.02 0.00 0.00 0.00 0.00 0.00 0.00 0.00 0.00 0.00 0.00 0.00 0.00 0.00 0.00 0.00 0.00 0.00 0.00 0.00 0.00 0.00 0.00 0.00 0.00 0.00 0.00 0.00 0.00 0.00 0.00 0.00 0.00 0.03 0.04 0.06 0.07 0.09 0.09 0.07 0.04 0.03 0.03 0.03 0.03 0.04 0.03 0.04 0.03 0.03 0.07 0.16
0.07 0.02 0.02 0.00 0.00 0.00 0.00 0.00 0.00 0.00 0.00 0.00 0.00 0.00 0.00 0.00 0.00 0.00 0.00 0.00 0.00 0.00 0.00 0.00 0.00 0.00 0.00 0.00 0.00 0.00 0.00 0.00 0.00 0.00 0.00 0.02 0.04 0.06 0.08 0.09 0.06 0.05 0.09 0.14 0.11 0.08 0.09 0.11 0.11 0.12 0.15 0.17 0.17 0.18
0.02 0.00 0.00 0.00 0.00 0.00 0.00 0.00 0.00 0.00 0.00 0.00 0.00 0.00 0.00 0.00 0.00 0.00 0.00 0.00 0.00 0.00 0.00 0.00 0.00 0.00 0.00 0.00 0.00 0.00 0.00 0.00 0.00 0.00 0.00 0.01 0.03 0.06 0.09 0.12 0.13 0.13 0.13 0.15 0.19 0.24 0.25 0.23 0.23 0.23 0.24 0.23 0.20 0.21
0.02 0.00 0.00 0.00 0.00 0.00 0.00 0.00 0.00 0.00 0.00 0.00 0.00 0.00 0.00 0.00 0.00 0.00 0.00 0.00 0.00 0.00 0.00 0.00 0.00 0.00 0.00 0.00 0.00 0.00 0.00 0.00 0.01 0.01 0.00 0.00 0.03 0.06 0.11 0.15 0.19 0.22 0.22 0.21 0.24 0.28 0.25 0.26 0.27 0.28 0.29 0.29 0.26 0.26
0.00 0.00 0.00 0.00 0.00 0.00 0.00 0.00 0.00 0.00 0.00 0.00 0.00 0.00 0.00 0.00 0.00 0.00 0.00 0.00 0.00 0.00 0.00 0.00 0.00 0.00 0.00 0.00 0.00 0.00 0.00 0.00 0.00 0.01 0.01 0.01 0.02 0.06 0.10 0.13 0.16 0.20 0.25 0.28 0.29 0.33 0.38 0.40 0.40 0.40 0.37 0.35 0.33 0.31
0.00 0.00 0.00 0.00 0.00 0.00 0.00 0.00 0.00 0.00 0.00 0.00 0.00 0.00 0.00 0.00 0.00 0.00 0.00 0.00 0.00 0.00 0.00 0.00 0.00 0.00 0.00 0.00 0.00 0.01 0.00 0.00 0.00 0.01 0.01 0.03 0.03 0.04 0.06 0.10 0.13 0.19 0.26 0.29 0.32 0.31 0.28 0.24 0.19 0.17 0.22 0.25 0.25 0.25
0.01 0.00 0.00 0.00 0.00 0.00 0.00 0.00 0.00 0.00 0.00 0.00 0.00 0.00 0.00 0.00 0.00 0.00 0.00 0.00 0.00 0.00 0.00 0.00 0.00 0.00 0.00 0.00 0.00 0.01 0.02 0.02 0.01 0.01 0.02 0.04 0.05 0.04 0.07 0.11 0.16 0.21 0.27 0.31 0.31 0.29 0.29 0.30 0.33 0.34 0.35 0.36 0.35 0.32
0.02 0.02 0.01 0.01 0.00 0.00 0.00 0.00 0.00 0.00 0.00 0.00 0.00 0.00 0.00 0.00 0.00 0.00 0.00 0.00 0.00 0.00 0.00 0.00 0.00 0.00 0.00 0.01 0.02 0.01 0.01 0.02 0.02 0.04 0.06 0.08 0.10 0.12 0.14 0.17 0.19 0.22 0.25 0.29 0.34 0.39 0.44 0.45 0.44 0.43 0.42 0.41 0.39 0.38

GFSWCAN_prec_precacc24_063.txt.gz
Total_Precipitation_Accumulation
0.05 0.05 0.04 0.02 0.02 0.01 0.01 0.01 0.01 0.01 0.01 0.01 0.01 0.01 0.00 0.00 0.00 0.00 0.00 0.01 0.02 0.05 0.04 0.02 0.02 0.02 0.01 0.01 0.01 0.00 0.00 0.01 0.02 0.01 0.01 0.00 0.00 0.00 0.00 0.01 0.00 0.02 0.02 0.03 0.03 0.04 0.00 0.00 0.00 0.01 0.01 0.00 0.00 0.01
0.05 0.03 0.02 0.02 0.02 0.02 0.02 0.02 0.01 0.01 0.02 0.01 0.01 0.01 0.02 0.02 0.01 0.00 0.00 0.02 0.03 0.06 0.04 0.02 0.00 0.00 0.00 0.01 0.01 0.00 0.01 0.00 0.00 0.01 0.01 0.01 0.01 0.01 0.00 0.01 0.00 0.00 0.00 0.00 0.00 0.00 0.00 0.00 0.00 0.00 0.00 0.00 0.00 0.00
0.07 0.06 0.05 0.03 0.03 0.03 0.02 0.02 0.02 0.02 0.03 0.03 0.03 0.03 0.03 0.04 0.03 0.03 0.01 0.02 0.06 0.10 0.06 0.03 0.02 0.01 0.00 0.00 0.01 0.02 0.00 0.00 0.00 0.00 0.02 0.02 0.01 0.01 0.01 0.00 0.00 0.00 0.00 0.00 0.00 0.00 0.00 0.00 0.00 0.00 0.00 0.00 0.00 0.00
0.08 0.07 0.05 0.04 0.03 0.02 0.02 0.03 0.03 0.03 0.03 0.04 0.04 0.04 0.04 0.03 0.05 0.07 0.03 0.03 0.09 0.18 0.15 0.09 0.03 0.05 0.03 0.01 0.01 0.01 0.00 0.03 0.03 0.02 0.04 0.07 0.04 0.02 0.01 0.00 0.00 0.00 0.00 0.00 0.00 0.00 0.00 0.00 0.00 0.00 0.00 0.00 0.00 0.00
0.08 0.08 0.07 0.06 0.05 0.03 0.03 0.03 0.04 0.04 0.04 0.05 0.05 0.05 0.05 0.08 0.09 0.10 0.04 0.02 0.08 0.25 0.20 0.24 0.10 0.01 0.04 0.03 0.04 0.08 0.08 0.08 0.09 0.13 0.08 0.05 0.03 0.00 0.00 0.00 0.00 0.00 0.00 0.00 0.00 0.00 0.00 0.00 0.00 0.00 0.00 0.00 0.00 0.00
0.13 0.12 0.11 0.10 0.07 0.05 0.04 0.04 0.03 0.03 0.04 0.05 0.05 0.08 0.07 0.11 0.17 0.03 0.04 0.07 0.08 0.21 0.34 0.45 0.27 0.08 0.06 0.11 0.05 0.10 0.21 0.13 0.15 0.20 0.14 0.07 0.02 0.07 0.06 0.01 0.00 0.00 0.00 0.00 0.00 0.00 0.00 0.00 0.00 0.00 0.00 0.00 0.00 0.00
0.11 0.10 0.10 0.09 0.07 0.06 0.07 0.06 0.06 0.04 0.04 0.03 0.03 0.04 0.08 0.12 0.07 0.01 0.14 0.33 0.22 0.19 0.37 0.62 0.51 0.21 0.12 0.42 0.16 0.20 0.39 0.33 0.23 0.24 0.11 0.05 0.07 0.16 0.14 0.01 0.00 0.00 0.00 0.00 0.00 0.00 0.00 0.00 0.00 0.00 0.00 0.00 0.00 0.00
0.17 0.16 0.14 0.10 0.08 0.07 0.08 0.06 0.05 0.03 0.02 0.01 0.01 0.04 0.08 0.07 0.03 0.02 0.03 0.11 0.20 0.25 0.36 0.47 0.52 0.40 0.33 0.63 0.42 0.42 0.60 0.51 0.37 0.29 0.15 0.07 0.09 0.19 0.15 0.01 0.00 0.00 0.00 0.00 0.00 0.00 0.00 0.00 0.00 0.00 0.00 0.00 0.00 0.00
0.16 0.15 0.11 0.09 0.09 0.09 0.09 0.08 0.07 0.06 0.03 0.00 0.00 0.03 0.04 0.03 0.04 0.06 0.16 0.18 0.25 0.31 0.31 0.30 0.32 0.46 0.31 0.52 0.41 0.35 0.37 0.47 0.39 0.35 0.22 0.30 0.24 0.14 0.03 0.00 0.00 0.00 0.00 0.00 0.00 0.00 0.00 0.00 0.00 0.00 0.00 0.00 0.00 0.00
0.20 0.16 0.14 0.14 0.14 0.15 0.14 0.12 0.11 0.07 0.03 0.02 0.01 0.05 0.09 0.14 0.19 0.31 0.34 0.29 0.25 0.21 0.18 0.14 0.23 0.29 0.30 0.27 0.19 0.19 0.23 0.34 0.31 0.27 0.38 0.36 0.19 0.12 0.02 0.00 0.00 0.00 0.00 0.00 0.00 0.00 0.00 0.00 0.00 0.00 0.00 0.00 0.00 0.00
0.32 0.27 0.22 0.22 0.23 0.26 0.27 0.21 0.12 0.05 0.04 0.02 0.01 0.04 0.13 0.30 0.32 0.33 0.25 0.15 0.10 0.08 0.05 0.03 0.08 0.13 0.13 0.08 0.14 0.08 0.19 0.12 0.15 0.20 0.30 0.29 0.19 0.06 0.00 0.00 0.00 0.00 0.00 0.00 0.00 0.00 0.00 0.00 0.00 0.00 0.00 0.00 0.00 0.00
0.28 0.27 0.30 0.39 0.38 0.32 0.31 0.21 0.13 0.04 0.01 0.01 0.00 0.03 0.13 0.29 0.30 0.24 0.17 0.06 0.06 0.02 0.00 0.02 0.02 0.04 0.04 0.04 0.06 0.03 0.03 0.03 0.04 0.08 0.20 0.11 0.04 0.00 0.00 0.00 0.00 0.00 0.00 0.00 0.00 0.00 0.00 0.00 0.01 0.01 0.00 0.00 0.00 0.00
0.35 0.28 0.30 0.35 0.42 0.43 0.26 0.14 0.10 0.04 0.02 0.00 0.01 0.15 0.14 0.18 0.22 0.11 0.10 0.03 0.01 0.00 0.00 0.01 0.02 0.04 0.04 0.01 0.00 0.00 0.01 0.01 0.01 0.03 0.07 0.11 0.01 0.00 0.00 0.00 0.00 0.01 0.15 0.22 0.15 0.06 0.02 0.02 0.05 0.07 0.04 0.02 0.00 0.00
0.50 0.50 0.40 0.39 0.33 0.29 0.21 0.16 0.07 0.04 0.01 0.00 0.03 0.14 0.10 0.14 0.02 0.00 0.00 0.00 0.00 0.00 0.00 0.02 0.10 0.04 0.01 0.01 0.00 0.00 0.00 0.01 0.02 0.01 0.00 0.00 0.00 0.00 0.00 0.00 0.00 0.03 0.03 0.04 0.11 0.11 0.11 0.16 0.26 0.19 0.14 0.12 0.05 0.02
0.53 0.65 0.59 0.44 0.35 0.31 0.27 0.17 0.05 0.02 0.01 0.01 0.01 0.03 0.05 0.01 0.00 0.00 0.00 0.00 0.00 0.00 0.00 0.01 0.14 0.02 0.00 0.01 0.01 0.01 0.01 0.01 0.00 0.00 0.00 0.00 0.00 0.00 0.00 0.00 0.00 0.00 0.00 0.00 0.00 0.02 0.03 0.07 0.13 0.15 0.09 0.10 0.10 0.10
0.63 0.73 0.69 0.53 0.39 0.29 0.28 0.12 0.06 0.01 0.00 0.01 0.01 0.01 0.01 0.01 0.01 0.01 0.00 0.01 0.00 0.00 0.02 0.02 0.03 0.01 0.00 0.00 0.02 0.01 0.00 0.00 0.00 0.00 0.00 0.00 0.00 0.00 0.00 0.00 0.00 0.00 0.00 0.00 0.00 0.00 0.00 0.00 0.00 0.02 0.07 0.09 0.11 0.15
0.39 0.37 0.51 0.44 0.36 0.32 0.18 0.06 0.05 0.01 0.00 0.00 0.00 0.00 0.01 0.02 0.01 0.01 0.00 0.01 0.02 0.04 0.09 0.07 0.02 0.01 0.01 0.03 0.01 0.00 0.00 0.00 0.00 0.00 0.00 0.00 0.00 0.00 0.00 0.00 0.00 0.00 0.00 0.00 0.00 0.00 0.00 0.00 0.00 0.00 0.00 0.00 0.00 0.01
0.16 0.27 0.38 0.32 0.21 0.13 0.14 0.03 0.03 0.02 0.00 0.00 0.00 0.00 0.00 0.01 0.03 0.01 0.01 0.05 0.07 0.08 0.11 0.21 0.04 0.02 0.01 0.01 0.00 0.00 0.00 0.00 0.00 0.00 0.00 0.00 0.00 0.00 0.00 0.00 0.00 0.00 0.00 0.00 0.00 0.00 0.00 0.00 0.00 0.00 0.00 0.00 0.00 0.00
0.19 0.24 0.24 0.16 0.07 0.06 0.11 0.05 0.00 0.00 0.00 0.00 0.00 0.00 0.00 0.00 0.00 0.01 0.00 0.02 0.06 0.08 0.13 0.14 0.07 0.03 0.00 0.00 0.00 0.00 0.00 0.00 0.00 0.00 0.00 0.00 0.00 0.00 0.00 0.00 0.00 0.00 0.00 0.00 0.00 0.00 0.00 0.00 0.00 0.00 0.00 0.00 0.00 0.00
0.27 0.34 0.25 0.11 0.02 0.04 0.07 0.06 0.04 0.05 0.02 0.01 0.01 0.01 0.00 0.00 0.00 0.00 0.00 0.00 0.00 0.03 0.06 0.03 0.00 0.00 0.00 0.00 0.00 0.00 0.00 0.00 0.00 0.00 0.00 0.00 0.00 0.00 0.00 0.00 0.00 0.00 0.00 0.00 0.00 0.00 0.00 0.00 0.00 0.00 0.00 0.00 0.00 0.00
0.26 0.25 0.16 0.04 0.02 0.02 0.04 0.05 0.07 0.06 0.06 0.07 0.09 0.08 0.05 0.02 0.01 0.00 0.00 0.00 0.01 0.01 0.00 0.00 0.00 0.00 0.00 0.00 0.00 0.00 0.00 0.00 0.00 0.00 0.00 0.00 0.00 0.00 0.00 0.00 0.00 0.00 0.00 0.00 0.00 0.00 0.00 0.00 0.00 0.00 0.00 0.00 0.00 0.00
0.06 0.08 0.03 0.01 0.00 0.00 0.02 0.03 0.04 0.06 0.06 0.08 0.11 0.10 0.07 0.06 0.05 0.03 0.02 0.02 0.01 0.00 0.00 0.00 0.00 0.00 0.00 0.00 0.00 0.00 0.00 0.00 0.00 0.00 0.00 0.00 0.00 0.00 0.00 0.00 0.00 0.00 0.00 0.00 0.00 0.00 0.00 0.00 0.00 0.00 0.00 0.00 0.00 0.00
0.03 0.00 0.00 0.00 0.00 0.00 0.00 0.00 0.00 0.01 0.01 0.04 0.07 0.08 0.09 0.08 0.07 0.06 0.06 0.01 0.00 0.00 0.00 0.00 0.00 0.00 0.00 0.00 0.00 0.00 0.00 0.00 0.00 0.00 0.00 0.00 0.00 0.00 0.00 0.00 0.00 0.00 0.00 0.00 0.00 0.00 0.00 0.00 0.00 0.00 0.00 0.00 0.00 0.00
0.03 0.05 0.03 0.03 0.02 0.01 0.00 0.00 0.00 0.00 0.00 0.00 0.00 0.01 0.03 0.04 0.05 0.06 0.04 0.01 0.00 0.00 0.00 0.00 0.00 0.00 0.00 0.00 0.00 0.00 0.00 0.00 0.00 0.00 0.00 0.00 0.00 0.00 0.00 0.00 0.00 0.00 0.00 0.00 0.00 0.00 0.00 0.00 0.00 0.00 0.00 0.00 0.00 0.00
0.19 0.10 0.04 0.03 0.01 0.00 0.00 0.00 0.00 0.00 0.00 0.00 0.00 0.00 0.00 0.00 0.00 0.01 0.01 0.00 0.00 0.00 0.00 0.00 0.00 0.00 0.00 0.00 0.00 0.00 0.00 0.00 0.00 0.00 0.00 0.00 0.00 0.00 0.00 0.00 0.01 0.00 0.00 0.00 0.00 0.00 0.00 0.00 0.00 0.00 0.00 0.00 0.01 0.03
0.15 0.04 0.02 0.00 0.00 0.00 0.00 0.00 0.00 0.00 0.00 0.00 0.00 0.00 0.00 0.00 0.00 0.00 0.00 0.00 0.00 0.00 0.00 0.00 0.00 0.00 0.00 0.00 0.00 0.00 0.00 0.00 0.00 0.00 0.00 0.00 0.00 0.00 0.00 0.00 0.01 0.02 0.03 0.03 0.03 0.03 0.03 0.03 0.03 0.04 0.03 0.03 0.07 0.16
0.06 0.02 0.02 0.00 0.00 0.00 0.00 0.00 0.00 0.00 0.00 0.00 0.00 0.00 0.00 0.00 0.00 0.00 0.00 0.00 0.00 0.00 0.00 0.00 0.00 0.00 0.00 0.00 0.00 0.00 0.00 0.00 0.00 0.00 0.00 0.00 0.00 0.00 0.00 0.01 0.00 0.01 0.06 0.13 0.11 0.07 0.07 0.08 0.09 0.11 0.15 0.17 0.17 0.18
0.02 0.00 0.00 0.00 0.00 0.00 0.00 0.00 0.00 0.00 0.00 0.00 0.00 0.00 0.00 0.00 0.00 0.00 0.00 0.00 0.00 0.00 0.00 0.00 0.00 0.00 0.00 0.00 0.00 0.00 0.00 0.00 0.00 0.00 0.00 0.00 0.00 0.00 0.00 0.00 0.01 0.03 0.05 0.10 0.13 0.14 0.14 0.14 0.16 0.20 0.24 0.23 0.20 0.21
0.02 0.00 0.00 0.00 0.00 0.00 0.00 0.00 0.00 0.00 0.00 0.00 0.00 0.00 0.00 0.00 0.00 0.00 0.00 0.00 0.00 0.00 0.00 0.00 0.00 0.00 0.00 0.00 0.00 0.00 0.00 0.00 0.00 0.01 0.00 0.00 0.00 0.00 0.00 0.01 0.03 0.05 0.08 0.10 0.12 0.15 0.15 0.18 0.22 0.27 0.29 0.29 0.27 0.26
0.00 0.00 0.00 0.00 0.00 0.00 0.00 0.00 0.00 0.00 0.00 0.00 0.00 0.00 0.00 0.00 0.00 0.00 0.00 0.00 0.00 0.00 0.00 0.00 0.00 0.00 0.00 0.00 0.00 0.00 0.00 0.00 0.00 0.00 0.01 0.01 0.00 0.00 0.01 0.01 0.03 0.04 0.07 0.11 0.15 0.18 0.25 0.32 0.36 0.38 0.36 0.35 0.33 0.31
0.00 0.00 0.00 0.00 0.00 0.00 0.00 0.00 0.00 0.00 0.00 0.00 0.00 0.00 0.00 0.00 0.00 0.00 0.00 0.00 0.00 0.00 0.00 0.00 0.00 0.00 0.00 0.00 0.00 0.00 0.00 0.00 0.00 0.00 0.00 0.01 0.01 0.00 0.00 0.01 0.03 0.07 0.12 0.15 0.18 0.21 0.22 0.21 0.17 0.16 0.19 0.21 0.21 0.22
0.01 0.00 0.00 0.00 0.00 0.00 0.00 0.00 0.00 0.00 0.00 0.00 0.00 0.00 0.00 0.00 0.00 0.00 0.00 0.00 0.00 0.00 0.00 0.00 0.00 0.00 0.00 0.00 0.00 0.00 0.01 0.01 0.01 0.01 0.01 0.02 0.02 0.01 0.02 0.03 0.06 0.10 0.15 0.18 0.20 0.19 0.19 0.22 0.27 0.29 0.27 0.28 0.30 0.30
0.02 0.02 0.01 0.01 0.00 0.00 0.00 0.00 0.00 0.00 0.00 0.00 0.00 0.00 0.00 0.00 0.00 0.00 0.00 0.00 0.00 0.00 0.00 0.00 0.00 0.00 0.00 0.00 0.01 0.01 0.01 0.01 0.01 0.02 0.03 0.05 0.06 0.06 0.08 0.09 0.10 0.13 0.15 0.17 0.20 0.25 0.31 0.35 0.34 0.34 0.35 0.37 0.38 0.38

GFSWCAN_prec_precacc24_066.txt.gz
Total_Precipitation_Accumulation
0.05 0.05 0.04 0.02 0.02 0.01 0.01 0.01 0.01 0.01 0.01 0.01 0.01 0.01 0.00 0.00 0.00 0.00 0.00 0.01 0.02 0.03 0.01 0.01 0.01 0.01 0.00 0.01 0.02 0.03 0.02 0.01 0.02 0.02 0.01 0.00 0.00 0.00 0.00 0.00 0.00 0.02 0.01 0.02 0.03 0.03 0.00 0.00 0.00 0.01 0.01 0.00 0.00 0.00
0.05 0.03 0.02 0.02 0.02 0.01 0.02 0.02 0.01 0.01 0.02 0.01 0.01 0.01 0.02 0.02 0.02 0.01 0.01 0.02 0.02 0.06 0.03 0.01 0.00 0.00 0.00 0.01 0.03 0.04 0.04 0.00 0.02 0.02 0.01 0.00 0.00 0.00 0.00 0.01 0.00 0.00 0.00 0.00 0.00 0.00 0.00 0.00 0.00 0.00 0.00 0.00 0.00 0.00
0.06 0.06 0.05 0.04 0.03 0.03 0.02 0.02 0.02 0.02 0.02 0.02 0.02 0.02 0.03 0.04 0.04 0.04 0.01 0.03 0.05 0.10 0.05 0.02 0.01 0.01 0.00 0.00 0.01 0.06 0.02 0.01 0.01 0.01 0.03 0.01 0.01 0.00 0.00 0.00 0.00 0.00 0.00 0.00 0.00 0.00 0.00 0.00 0.00 0.00 0.00 0.00 0.00 0.00
0.08 0.07 0.06 0.05 0.03 0.02 0.02 0.02 0.03 0.03 0.03 0.03 0.04 0.05 0.04 0.04 0.06 0.09 0.05 0.05 0.10 0.19 0.16 0.08 0.03 0.05 0.03 0.01 0.01 0.02 0.00 0.01 0.00 0.01 0.05 0.04 0.02 0.00 0.01 0.00 0.00 0.00 0.00 0.00 0.00 0.00 0.00 0.00 0.00 0.00 0.00 0.00 0.00 0.00
0.08 0.08 0.07 0.06 0.05 0.04 0.03 0.04 0.04 0.04 0.04 0.05 0.05 0.05 0.06 0.08 0.11 0.12 0.05 0.03 0.10 0.26 0.21 0.24 0.10 0.01 0.04 0.03 0.04 0.06 0.02 0.03 0.06 0.13 0.09 0.04 0.02 0.00 0.00 0.00 0.00 0.00 0.00 0.00 0.00 0.00 0.00 0.00 0.00 0.00 0.00 0.00 0.00 0.00
0.12 0.11 0.11 0.10 0.06 0.05 0.05 0.05 0.04 0.04 0.05 0.06 0.07 0.09 0.07 0.12 0.18 0.04 0.04 0.06 0.09 0.23 0.39 0.46 0.26 0.08 0.06 0.11 0.05 0.09 0.15 0.11 0.19 0.23 0.15 0.08 0.01 0.05 0.06 0.01 0.00 0.00 0.00 0.00 0.00 0.00 0.00 0.00 0.00 0.00 0.00 0.00 0.00 0.00
0.11 0.10 0.10 0.09 0.06 0.06 0.08 0.08 0.08 0.08 0.08 0.07 0.06 0.06 0.08 0.12 0.08 0.02 0.13 0.31 0.22 0.20 0.39 0.63 0.50 0.22 0.12 0.43 0.17 0.19 0.37 0.46 0.40 0.35 0.14 0.06 0.06 0.15 0.14 0.01 0.00 0.00 0.00 0.00 0.00 0.00 0.00 0.00 0.00 0.00 0.00 0.00 0.00 0.00
0.17 0.16 0.14 0.10 0.07 0.07 0.08 0.08 0.07 0.08 0.06 0.06 0.05 0.05 0.07 0.07 0.04 0.03 0.03 0.12 0.20 0.25 0.37 0.48 0.52 0.48 0.36 0.65 0.44 0.45 0.62 0.62 0.56 0.36 0.16 0.07 0.10 0.19 0.15 0.01 0.00 0.00 0.00 0.00 0.00 0.00 0.00 0.00 0.00 0.00 0.00 0.00 0.00 0.00
0.16 0.14 0.11 0.08 0.08 0.08 0.09 0.09 0.09 0.10 0.10 0.10 0.06 0.04 0.04 0.03 0.05 0.07 0.14 0.18 0.26 0.31 0.32 0.32 0.34 0.60 0.35 0.52 0.49 0.48 0.55 0.61 0.49 0.38 0.22 0.29 0.23 0.14 0.03 0.00 0.00 0.00 0.00 0.00 0.00 0.00 0.00 0.00 0.00 0.00 0.00 0.00 0.00 0.00
0.20 0.15 0.14 0.14 0.14 0.15 0.14 0.14 0.17 0.22 0.20 0.11 0.03 0.05 0.09 0.14 0.19 0.31 0.32 0.32 0.31 0.25 0.19 0.14 0.23 0.34 0.36 0.34 0.41 0.33 0.45 0.41 0.38 0.32 0.38 0.36 0.20 0.12 0.02 0.00 0.00 0.00 0.00 0.00 0.00 0.00 0.00 0.00 0.00 0.00 0.00 0.00 0.00 0.00
0.32 0.27 0.22 0.21 0.23 0.25 0.27 0.28 0.27 0.23 0.18 0.11 0.02 0.05 0.15 0.36 0.36 0.36 0.30 0.19 0.14 0.11 0.06 0.03 0.09 0.17 0.26 0.28 0.30 0.14 0.31 0.15 0.17 0.22 0.29 0.28 0.19 0.06 0.00 0.00 0.00 0.00 0.00 0.00 0.00 0.00 0.00 0.00 0.00 0.00 0.00 0.00 0.00 0.00
0.28 0.27 0.30 0.39 0.38 0.32 0.32 0.32 0.37 0.24 0.12 0.02 0.01 0.04 0.17 0.41 0.36 0.31 0.22 0.08 0.08 0.02 0.00 0.03 0.03 0.10 0.11 0.10 0.08 0.05 0.07 0.06 0.04 0.08 0.21 0.11 0.04 0.00 0.00 0.00 0.00 0.00 0.00 0.00 0.00 0.00 0.00 0.00 0.01 0.01 0.00 0.00 0.00 0.00
0.35 0.28 0.30 0.35 0.43 0.45 0.32 0.28 0.24 0.16 0.11 0.07 0.04 0.21 0.18 0.26 0.29 0.16 0.11 0.04 0.02 0.00 0.01 0.01 0.05 0.11 0.09 0.04 0.01 0.02 0.01 0.02 0.01 0.04 0.07 0.11 0.01 0.00 0.00 0.00 0.00 0.01 0.15 0.22 0.15 0.06 0.03 0.02 0.06 0.07 0.04 0.02 0.00 0.00
0.50 0.50 0.40 0.40 0.33 0.34 0.31 0.31 0.16 0.13 0.09 0.05 0.05 0.19 0.14 0.18 0.03 0.01 0.00 0.00 0.00 0.00 0.00 0.03 0.19 0.12 0.03 0.03 0.02 0.01 0.01 0.02 0.02 0.02 0.00 0.00 0.00 0.00 0.00 0.00 0.00 0.03 0.04 0.06 0.12 0.11 0.12 0.16 0.26 0.20 0.15 0.14 0.06 0.03
0.54 0.65 0.59 0.44 0.36 0.38 0.39 0.37 0.23 0.08 0.03 0.02 0.03 0.05 0.07 0.01 0.01 0.00 0.00 0.00 0.00 0.00 0.00 0.03 0.20 0.06 0.03 0.03 0.01 0.01 0.01 0.02 0.00 0.00 0.00 0.00 0.00 0.00 0.00 0.00 0.00 0.00 0.00 0.00 0.00 0.02 0.03 0.07 0.13 0.15 0.09 0.10 0.10 0.11
0.64 0.75 0.72 0.54 0.44 0.45 0.47 0.27 0.23 0.09 0.03 0.02 0.02 0.02 0.01 0.02 0.01 0.02 0.02 0.01 0.00 0.01 0.04 0.05 0.05 0.02 0.02 0.01 0.02 0.01 0.00 0.00 0.00 0.00 0.00 0.00 0.00 0.00 0.00 0.00 0.00 0.00 0.00 0.00 0.00 0.00 0.00 0.00 0.00 0.02 0.07 0.09 0.11 0.15
0.40 0.40 0.59 0.52 0.53 0.54 0.30 0.14 0.12 0.02 0.00 0.00 0.00 0.00 0.01 0.02 0.02 0.02 0.03 0.02 0.03 0.07 0.14 0.15 0.03 0.01 0.02 0.03 0.01 0.00 0.00 0.00 0.00 0.00 0.00 0.00 0.00 0.00 0.00 0.00 0.00 0.00 0.00 0.00 0.00 0.00 0.00 0.00 0.00 0.00 0.00 0.00 0.00 0.01
0.16 0.33 0.49 0.41 0.28 0.20 0.24 0.08 0.05 0.02 0.00 0.00 0.00 0.00 0.00 0.01 0.04 0.03 0.04 0.09 0.15 0.17 0.17 0.27 0.05 0.02 0.01 0.01 0.00 0.00 0.00 0.00 0.00 0.00 0.00 0.00 0.00 0.00 0.00 0.00 0.00 0.00 0.00 0.00 0.00 0.00 0.00 0.00 0.00 0.00 0.00 0.00 0.00 0.00
0.24 0.30 0.28 0.21 0.10 0.08 0.14 0.09 0.01 0.00 0.00 0.00 0.00 0.00 0.00 0.00 0.00 0.01 0.01 0.04 0.14 0.20 0.25 0.19 0.08 0.02 0.00 0.00 0.00 0.00 0.00 0.00 0.00 0.00 0.00 0.00 0.00 0.00 0.00 0.00 0.00 0.00 0.00 0.00 0.00 0.00 0.00 0.00 0.00 0.00 0.00 0.00 0.00 0.00
0.33 0.40 0.31 0.13 0.02 0.04 0.08 0.07 0.04 0.05 0.02 0.01 0.01 0.01 0.00 0.00 0.00 0.00 0.00 0.00 0.01 0.07 0.12 0.06 0.01 0.00 0.00 0.00 0.00 0.00 0.00 0.00 0.00 0.00 0.00 0.00 0.00 0.00 0.00 0.00 0.00 0.00 0.00 0.00 0.00 0.00 0.00 0.00 0.00 0.00 0.00 0.00 0.00 0.00
0.27 0.27 0.17 0.04 0.02 0.02 0.04 0.05 0.07 0.06 0.06 0.07 0.09 0.08 0.05 0.02 0.01 0.00 0.00 0.00 0.01 0.01 0.00 0.00 0.00 0.00 0.00 0.00 0.00 0.00 0.00 0.00 0.00 0.00 0.00 0.00 0.00 0.00 0.00 0.00 0.00 0.00 0.00 0.00 0.00 0.00 0.00 0.00 0.00 0.00 0.00 0.00 0.00 0.00
0.06 0.08 0.03 0.01 0.00 0.00 0.02 0.03 0.04 0.05 0.06 0.09 0.10 0.10 0.08 0.06 0.05 0.03 0.02 0.02 0.01 0.00 0.00 0.00 0.00 0.00 0.00 0.00 0.00 0.00 0.00 0.00 0.00 0.00 0.00 0.00 0.00 0.00 0.00 0.00 0.00 0.00 0.00 0.00 0.00 0.00 0.00 0.00 0.00 0.00 0.00 0.00 0.00 0.00
0.02 0.00 0.00 0.00 0.00 0.00 0.00 0.00 0.00 0.00 0.02 0.04 0.07 0.09 0.09 0.09 0.07 0.06 0.06 0.01 0.00 0.00 0.00 0.00 0.00 0.00 0.00 0.00 0.00 0.00 0.00 0.00 0.00 0.00 0.00 0.00 0.00 0.00 0.00 0.00 0.00 0.00 0.00 0.00 0.00 0.00 0.00 0.00 0.00 0.00 0.00 0.00 0.00 0.00
0.03 0.04 0.02 0.02 0.01 0.01 0.00 0.00 0.00 0.00 0.00 0.00 0.00 0.02 0.03 0.05 0.05 0.06 0.05 0.01 0.00 0.00 0.00 0.00 0.00 0.00 0.00 0.00 0.00 0.00 0.00 0.00 0.00 0.00 0.00 0.00 0.00 0.00 0.00 0.00 0.00 0.00 0.00 0.00 0.00 0.00 0.00 0.00 0.00 0.00 0.00 0.00 0.00 0.00
0.15 0.06 0.01 0.02 0.01 0.00 0.00 0.00 0.00 0.00 0.00 0.00 0.00 0.00 0.00 0.00 0.01 0.03 0.02 0.00 0.00 0.00 0.00 0.00 0.00 0.00 0.00 0.00 0.00 0.00 0.00 0.00 0.00 0.00 0.00 0.00 0.00 0.00 0.00 0.00 0.00 0.00 0.00 0.00 0.00 0.00 0.00 0.00 0.00 0.00 0.00 0.00 0.00 0.02
0.12 0.02 0.01 0.00 0.00 0.00 0.00 0.00 0.00 0.00 0.00 0.00 0.00 0.00 0.00 0.00 0.00 0.00 0.00 0.00 0.00 0.00 0.00 0.00 0.00 0.00 0.00 0.00 0.00 0.00 0.00 0.00 0.00 0.00 0.00 0.00 0.00 0.00 0.00 0.00 0.00 0.00 0.00 0.00 0.01 0.01 0.02 0.02 0.02 0.01 0.02 0.01 0.04 0.13
0.04 0.01 0.02 0.00 0.00 0.00 0.00 0.00 0.00 0.00 0.00 0.00 0.00 0.00 0.00 0.00 0.00 0.00 0.00 0.00 0.00 0.00 0.00 0.00 0.00 0.00 0.00 0.00 0.00 0.00 0.00 0.00 0.00 0.00 0.00 0.00 0.00 0.00 0.00 0.00 0.00 0.00 0.00 0.00 0.01 0.02 0.03 0.04 0.05 0.05 0.06 0.08 0.11 0.16
0.02 0.00 0.00 0.00 0.00 0.00 0.00 0.00 0.00 0.00 0.00 0.00 0.00 0.00 0.00 0.00 0.00 0.00 0.00 0.00 0.00 0.00 0.00 0.00 0.00 0.00 0.00 0.00 0.00 0.00 0.00 0.00 0.00 0.00 0.00 0.00 0.00 0.00 0.00 0.00 0.00 0.00 0.00 0.00 0.02 0.04 0.04 0.05 0.07 0.09 0.10 0.11 0.12 0.19
0.02 0.00 0.00 0.00 0.00 0.00 0.00 0.00 0.00 0.00 0.00 0.00 0.00 0.00 0.00 0.00 0.00 0.00 0.00 0.00 0.00 0.00 0.00 0.00 0.00 0.00 0.00 0.00 0.00 0.00 0.00 0.00 0.00 0.00 0.00 0.00 0.00 0.00 0.00 0.00 0.00 0.01 0.01 0.01 0.01 0.04 0.05 0.06 0.09 0.13 0.16 0.17 0.19 0.24
0.00 0.00 0.00 0.00 0.00 0.00 0.00 0.00 0.00 0.00 0.00 0.00 0.00 0.00 0.00 0.00 0.00 0.00 0.00 0.00 0.00 0.00 0.00 0.00 0.00 0.00 0.00 0.00 0.00 0.00 0.00 0.00 0.00 0.00 0.00 0.00 0.00 0.00 0.00 0.00 0.00 0.00 0.00 0.01 0.02 0.03 0.06 0.12 0.16 0.20 0.23 0.24 0.26 0.28
0.00 0.00 0.00 0.00 0.00 0.00 0.00 0.00 0.00 0.00 0.00 0.00 0.00 0.00 0.00 0.00 0.00 0.00 0.00 0.00 0.00 0.00 0.00 0.00 0.00 0.00 0.00 0.00 0.00 0.00 0.00 0.00 0.00 0.00 0.00 0.01 0.01 0.00 0.00 0.00 0.00 0.00 0.01 0.02 0.04 0.05 0.08 0.11 0.11 0.10 0.14 0.17 0.20 0.20
0.00 0.00 0.00 0.00 0.00 0.00 0.00 0.00 0.00 0.00 0.00 0.00 0.00 0.00 0.00 0.00 0.00 0.00 0.00 0.00 0.00 0.00 0.00 0.00 0.00 0.00 0.00 0.00 0.00 0.00 0.00 0.01 0.00 0.00 0.01 0.02 0.02 0.01 0.01 0.01 0.01 0.02 0.04 0.05 0.06 0.08 0.09 0.10 0.13 0.17 0.20 0.23 0.25 0.23
0.02 0.01 0.01 0.01 0.00 0.00 0.00 0.00 0.00 0.00 0.00 0.00 0.00 0.00 0.00 0.00 0.00 0.00 0.00 0.00 0.00 0.00 0.00 0.00 0.00 0.00 0.00 0.00 0.00 0.00 0.00 0.00 0.01 0.01 0.02 0.03 0.04 0.05 0.06 0.06 0.05 0.05 0.06 0.07 0.08 0.10 0.13 0.16 0.18 0.20 0.22 0.25 0.27 0.29